<?xml version="1.0" encoding="UTF-8" standalone="no" ?>
<gpx xmlns="http://www.topografix.com/GPX/1/1" xmlns:xsi="http://www.w3.org/2001/XMLSchema-instance" xsi:schemaLocation="http://www.topografix.com/GPX/1/1 http://www.topografix.com/GPX/1/1/gpx.xsd" version="1.1" creator="VisuGPX - https://www.visugpx.com">
  <metadata>
    <name>Burtigny VTT</name>
  </metadata>
  <trk>
    <name><![CDATA[Burtigny VTT]]></name>
    <trkseg>
      <trkpt lat="46.47749" lon="6.27081">
        <ele>834.20001220703</ele>
        <time>2022-03-09T13:44:30.000Z</time>
      </trkpt>
      <trkpt lat="46.4775" lon="6.27084">
        <ele>834.59997558594</ele>
        <time>2022-03-09T13:44:32.000Z</time>
      </trkpt>
      <trkpt lat="46.47753" lon="6.27094">
        <ele>834.79998779297</ele>
        <time>2022-03-09T13:44:35.000Z</time>
      </trkpt>
      <trkpt lat="46.47752" lon="6.27102">
        <ele>835.40002441406</ele>
        <time>2022-03-09T13:44:37.000Z</time>
      </trkpt>
      <trkpt lat="46.47752" lon="6.27113">
        <ele>836.20001220703</ele>
        <time>2022-03-09T13:44:41.000Z</time>
      </trkpt>
      <trkpt lat="46.47751" lon="6.27118">
        <ele>836.59997558594</ele>
        <time>2022-03-09T13:44:43.000Z</time>
      </trkpt>
      <trkpt lat="46.47752" lon="6.27125">
        <ele>836.79998779297</ele>
        <time>2022-03-09T13:44:47.000Z</time>
      </trkpt>
      <trkpt lat="46.47752" lon="6.2714">
        <ele>838</ele>
        <time>2022-03-09T13:44:53.000Z</time>
      </trkpt>
      <trkpt lat="46.47751" lon="6.27143">
        <ele>838.20001220703</ele>
        <time>2022-03-09T13:44:54.000Z</time>
      </trkpt>
      <trkpt lat="46.47747" lon="6.27158">
        <ele>839</ele>
        <time>2022-03-09T13:45:00.000Z</time>
      </trkpt>
      <trkpt lat="46.47741" lon="6.27175">
        <ele>839.59997558594</ele>
        <time>2022-03-09T13:45:07.000Z</time>
      </trkpt>
      <trkpt lat="46.4774" lon="6.27181">
        <ele>840</ele>
        <time>2022-03-09T13:45:10.000Z</time>
      </trkpt>
      <trkpt lat="46.47735" lon="6.27186">
        <ele>840.20001220703</ele>
        <time>2022-03-09T13:45:14.000Z</time>
      </trkpt>
      <trkpt lat="46.47734" lon="6.2719">
        <ele>841</ele>
        <time>2022-03-09T13:45:16.000Z</time>
      </trkpt>
      <trkpt lat="46.47733" lon="6.27191">
        <ele>841</ele>
        <time>2022-03-09T13:45:17.000Z</time>
      </trkpt>
      <trkpt lat="46.4773" lon="6.27195">
        <ele>841.20001220703</ele>
        <time>2022-03-09T13:45:20.000Z</time>
      </trkpt>
      <trkpt lat="46.47722" lon="6.27207">
        <ele>842</ele>
        <time>2022-03-09T13:45:27.000Z</time>
      </trkpt>
      <trkpt lat="46.4771" lon="6.27217">
        <ele>843.20001220703</ele>
        <time>2022-03-09T13:45:34.000Z</time>
      </trkpt>
      <trkpt lat="46.47708" lon="6.2722">
        <ele>843.20001220703</ele>
        <time>2022-03-09T13:45:36.000Z</time>
      </trkpt>
      <trkpt lat="46.47702" lon="6.27232">
        <ele>843.79998779297</ele>
        <time>2022-03-09T13:45:42.000Z</time>
      </trkpt>
      <trkpt lat="46.47696" lon="6.27244">
        <ele>844.40002441406</ele>
        <time>2022-03-09T13:45:47.000Z</time>
      </trkpt>
      <trkpt lat="46.47695" lon="6.27247">
        <ele>844.59997558594</ele>
        <time>2022-03-09T13:45:48.000Z</time>
      </trkpt>
      <trkpt lat="46.47689" lon="6.27268">
        <ele>845.40002441406</ele>
        <time>2022-03-09T13:45:56.000Z</time>
      </trkpt>
      <trkpt lat="46.47688" lon="6.27272">
        <ele>845.40002441406</ele>
        <time>2022-03-09T13:45:57.000Z</time>
      </trkpt>
      <trkpt lat="46.47688" lon="6.2728">
        <ele>845.59997558594</ele>
        <time>2022-03-09T13:46:00.000Z</time>
      </trkpt>
      <trkpt lat="46.47688" lon="6.27283">
        <ele>845.79998779297</ele>
        <time>2022-03-09T13:46:01.000Z</time>
      </trkpt>
      <trkpt lat="46.47688" lon="6.27297">
        <ele>846.59997558594</ele>
        <time>2022-03-09T13:46:07.000Z</time>
      </trkpt>
      <trkpt lat="46.4769" lon="6.27302">
        <ele>846.79998779297</ele>
        <time>2022-03-09T13:46:09.000Z</time>
      </trkpt>
      <trkpt lat="46.47691" lon="6.27313">
        <ele>847.59997558594</ele>
        <time>2022-03-09T13:46:13.000Z</time>
      </trkpt>
      <trkpt lat="46.47694" lon="6.27321">
        <ele>848</ele>
        <time>2022-03-09T13:46:16.000Z</time>
      </trkpt>
      <trkpt lat="46.47697" lon="6.27327">
        <ele>848.79998779297</ele>
        <time>2022-03-09T13:46:18.000Z</time>
      </trkpt>
      <trkpt lat="46.477" lon="6.27337">
        <ele>849.59997558594</ele>
        <time>2022-03-09T13:46:22.000Z</time>
      </trkpt>
      <trkpt lat="46.47701" lon="6.27342">
        <ele>850</ele>
        <time>2022-03-09T13:46:24.000Z</time>
      </trkpt>
      <trkpt lat="46.47704" lon="6.27352">
        <ele>850.40002441406</ele>
        <time>2022-03-09T13:46:28.000Z</time>
      </trkpt>
      <trkpt lat="46.47704" lon="6.27354">
        <ele>850.79998779297</ele>
        <time>2022-03-09T13:46:29.000Z</time>
      </trkpt>
      <trkpt lat="46.47706" lon="6.27362">
        <ele>851</ele>
        <time>2022-03-09T13:46:32.000Z</time>
      </trkpt>
      <trkpt lat="46.47708" lon="6.27376">
        <ele>851.79998779297</ele>
        <time>2022-03-09T13:46:37.000Z</time>
      </trkpt>
      <trkpt lat="46.4771" lon="6.27382">
        <ele>852</ele>
        <time>2022-03-09T13:46:39.000Z</time>
      </trkpt>
      <trkpt lat="46.47713" lon="6.2739">
        <ele>852.40002441406</ele>
        <time>2022-03-09T13:46:42.000Z</time>
      </trkpt>
      <trkpt lat="46.47717" lon="6.27404">
        <ele>853</ele>
        <time>2022-03-09T13:46:47.000Z</time>
      </trkpt>
      <trkpt lat="46.47719" lon="6.2741">
        <ele>853.20001220703</ele>
        <time>2022-03-09T13:46:49.000Z</time>
      </trkpt>
      <trkpt lat="46.47723" lon="6.27423">
        <ele>854.20001220703</ele>
        <time>2022-03-09T13:46:54.000Z</time>
      </trkpt>
      <trkpt lat="46.47723" lon="6.27426">
        <ele>854.40002441406</ele>
        <time>2022-03-09T13:46:55.000Z</time>
      </trkpt>
      <trkpt lat="46.47729" lon="6.27446">
        <ele>855.20001220703</ele>
        <time>2022-03-09T13:47:03.000Z</time>
      </trkpt>
      <trkpt lat="46.4773" lon="6.27449">
        <ele>855.40002441406</ele>
        <time>2022-03-09T13:47:04.000Z</time>
      </trkpt>
      <trkpt lat="46.47732" lon="6.27466">
        <ele>856.20001220703</ele>
        <time>2022-03-09T13:47:11.000Z</time>
      </trkpt>
      <trkpt lat="46.47734" lon="6.27468">
        <ele>856.59997558594</ele>
        <time>2022-03-09T13:47:12.000Z</time>
      </trkpt>
      <trkpt lat="46.47736" lon="6.2748">
        <ele>857.20001220703</ele>
        <time>2022-03-09T13:47:17.000Z</time>
      </trkpt>
      <trkpt lat="46.47737" lon="6.2749">
        <ele>857.59997558594</ele>
        <time>2022-03-09T13:47:20.000Z</time>
      </trkpt>
      <trkpt lat="46.4774" lon="6.27502">
        <ele>858.20001220703</ele>
        <time>2022-03-09T13:47:24.000Z</time>
      </trkpt>
      <trkpt lat="46.47743" lon="6.27509">
        <ele>858.79998779297</ele>
        <time>2022-03-09T13:47:27.000Z</time>
      </trkpt>
      <trkpt lat="46.47746" lon="6.27515">
        <ele>859</ele>
        <time>2022-03-09T13:47:30.000Z</time>
      </trkpt>
      <trkpt lat="46.47752" lon="6.2753">
        <ele>859.40002441406</ele>
        <time>2022-03-09T13:47:36.000Z</time>
      </trkpt>
      <trkpt lat="46.47754" lon="6.27533">
        <ele>859.59997558594</ele>
        <time>2022-03-09T13:47:37.000Z</time>
      </trkpt>
      <trkpt lat="46.47756" lon="6.27535">
        <ele>859.79998779297</ele>
        <time>2022-03-09T13:47:38.000Z</time>
      </trkpt>
      <trkpt lat="46.47767" lon="6.27549">
        <ele>860.40002441406</ele>
        <time>2022-03-09T13:47:45.000Z</time>
      </trkpt>
      <trkpt lat="46.4777" lon="6.27552">
        <ele>861</ele>
        <time>2022-03-09T13:47:47.000Z</time>
      </trkpt>
      <trkpt lat="46.47776" lon="6.27559">
        <ele>861.20001220703</ele>
        <time>2022-03-09T13:47:52.000Z</time>
      </trkpt>
      <trkpt lat="46.47783" lon="6.27564">
        <ele>862.20001220703</ele>
        <time>2022-03-09T13:47:57.000Z</time>
      </trkpt>
      <trkpt lat="46.47784" lon="6.27564">
        <ele>862.40002441406</ele>
        <time>2022-03-09T13:47:58.000Z</time>
      </trkpt>
      <trkpt lat="46.47791" lon="6.27567">
        <ele>862.79998779297</ele>
        <time>2022-03-09T13:48:04.000Z</time>
      </trkpt>
      <trkpt lat="46.47796" lon="6.27568">
        <ele>863.40002441406</ele>
        <time>2022-03-09T13:48:07.000Z</time>
      </trkpt>
      <trkpt lat="46.47803" lon="6.27572">
        <ele>864</ele>
        <time>2022-03-09T13:48:12.000Z</time>
      </trkpt>
      <trkpt lat="46.47805" lon="6.27572">
        <ele>864.20001220703</ele>
        <time>2022-03-09T13:48:13.000Z</time>
      </trkpt>
      <trkpt lat="46.47809" lon="6.27575">
        <ele>864.40002441406</ele>
        <time>2022-03-09T13:48:17.000Z</time>
      </trkpt>
      <trkpt lat="46.47814" lon="6.27576">
        <ele>864.59997558594</ele>
        <time>2022-03-09T13:48:20.000Z</time>
      </trkpt>
      <trkpt lat="46.47824" lon="6.27578">
        <ele>865.40002441406</ele>
        <time>2022-03-09T13:48:26.000Z</time>
      </trkpt>
      <trkpt lat="46.47826" lon="6.27578">
        <ele>865.40002441406</ele>
        <time>2022-03-09T13:48:27.000Z</time>
      </trkpt>
      <trkpt lat="46.47828" lon="6.27578">
        <ele>865.40002441406</ele>
        <time>2022-03-09T13:48:28.000Z</time>
      </trkpt>
      <trkpt lat="46.4784" lon="6.27583">
        <ele>866.59997558594</ele>
        <time>2022-03-09T13:48:35.000Z</time>
      </trkpt>
      <trkpt lat="46.4785" lon="6.27583">
        <ele>867.20001220703</ele>
        <time>2022-03-09T13:48:42.000Z</time>
      </trkpt>
      <trkpt lat="46.47854" lon="6.27584">
        <ele>867.20001220703</ele>
        <time>2022-03-09T13:48:45.000Z</time>
      </trkpt>
      <trkpt lat="46.47859" lon="6.27584">
        <ele>867.59997558594</ele>
        <time>2022-03-09T13:48:49.000Z</time>
      </trkpt>
      <trkpt lat="46.47874" lon="6.27584">
        <ele>868.59997558594</ele>
        <time>2022-03-09T13:48:57.000Z</time>
      </trkpt>
      <trkpt lat="46.47877" lon="6.27584">
        <ele>868.59997558594</ele>
        <time>2022-03-09T13:48:59.000Z</time>
      </trkpt>
      <trkpt lat="46.47884" lon="6.27585">
        <ele>869.40002441406</ele>
        <time>2022-03-09T13:49:03.000Z</time>
      </trkpt>
      <trkpt lat="46.47887" lon="6.27587">
        <ele>869.79998779297</ele>
        <time>2022-03-09T13:49:05.000Z</time>
      </trkpt>
      <trkpt lat="46.47893" lon="6.27586">
        <ele>870.20001220703</ele>
        <time>2022-03-09T13:49:09.000Z</time>
      </trkpt>
      <trkpt lat="46.47899" lon="6.27587">
        <ele>871</ele>
        <time>2022-03-09T13:49:14.000Z</time>
      </trkpt>
      <trkpt lat="46.479" lon="6.27587">
        <ele>871</ele>
        <time>2022-03-09T13:49:15.000Z</time>
      </trkpt>
      <trkpt lat="46.47908" lon="6.2759">
        <ele>872.20001220703</ele>
        <time>2022-03-09T13:49:21.000Z</time>
      </trkpt>
      <trkpt lat="46.47912" lon="6.27591">
        <ele>872.40002441406</ele>
        <time>2022-03-09T13:49:23.000Z</time>
      </trkpt>
      <trkpt lat="46.47921" lon="6.27599">
        <ele>873.20001220703</ele>
        <time>2022-03-09T13:49:28.000Z</time>
      </trkpt>
      <trkpt lat="46.47928" lon="6.27612">
        <ele>874.20001220703</ele>
        <time>2022-03-09T13:49:34.000Z</time>
      </trkpt>
      <trkpt lat="46.47928" lon="6.27614">
        <ele>874.59997558594</ele>
        <time>2022-03-09T13:49:35.000Z</time>
      </trkpt>
      <trkpt lat="46.47933" lon="6.2763">
        <ele>875</ele>
        <time>2022-03-09T13:49:42.000Z</time>
      </trkpt>
      <trkpt lat="46.47933" lon="6.27633">
        <ele>875.40002441406</ele>
        <time>2022-03-09T13:49:43.000Z</time>
      </trkpt>
      <trkpt lat="46.4793" lon="6.27643">
        <ele>876.40002441406</ele>
        <time>2022-03-09T13:49:48.000Z</time>
      </trkpt>
      <trkpt lat="46.47931" lon="6.27647">
        <ele>876.40002441406</ele>
        <time>2022-03-09T13:49:50.000Z</time>
      </trkpt>
      <trkpt lat="46.47931" lon="6.27649">
        <ele>876.40002441406</ele>
        <time>2022-03-09T13:49:51.000Z</time>
      </trkpt>
      <trkpt lat="46.4793" lon="6.27653">
        <ele>876.40002441406</ele>
        <time>2022-03-09T13:49:53.000Z</time>
      </trkpt>
      <trkpt lat="46.47927" lon="6.27667">
        <ele>877.40002441406</ele>
        <time>2022-03-09T13:50:00.000Z</time>
      </trkpt>
      <trkpt lat="46.47926" lon="6.27673">
        <ele>877.79998779297</ele>
        <time>2022-03-09T13:50:02.000Z</time>
      </trkpt>
      <trkpt lat="46.47924" lon="6.27682">
        <ele>878</ele>
        <time>2022-03-09T13:50:06.000Z</time>
      </trkpt>
      <trkpt lat="46.47921" lon="6.27694">
        <ele>878.79998779297</ele>
        <time>2022-03-09T13:50:11.000Z</time>
      </trkpt>
      <trkpt lat="46.4792" lon="6.27697">
        <ele>879</ele>
        <time>2022-03-09T13:50:12.000Z</time>
      </trkpt>
      <trkpt lat="46.47916" lon="6.27708">
        <ele>879.79998779297</ele>
        <time>2022-03-09T13:50:17.000Z</time>
      </trkpt>
      <trkpt lat="46.47915" lon="6.2771">
        <ele>880</ele>
        <time>2022-03-09T13:50:18.000Z</time>
      </trkpt>
      <trkpt lat="46.4791" lon="6.27726">
        <ele>880.79998779297</ele>
        <time>2022-03-09T13:50:25.000Z</time>
      </trkpt>
      <trkpt lat="46.4791" lon="6.27728">
        <ele>881</ele>
        <time>2022-03-09T13:50:26.000Z</time>
      </trkpt>
      <trkpt lat="46.47903" lon="6.27745">
        <ele>882</ele>
        <time>2022-03-09T13:50:33.000Z</time>
      </trkpt>
      <trkpt lat="46.47902" lon="6.27748">
        <ele>882.20001220703</ele>
        <time>2022-03-09T13:50:34.000Z</time>
      </trkpt>
      <trkpt lat="46.47898" lon="6.27761">
        <ele>883</ele>
        <time>2022-03-09T13:50:39.000Z</time>
      </trkpt>
      <trkpt lat="46.47896" lon="6.27767">
        <ele>883.20001220703</ele>
        <time>2022-03-09T13:50:41.000Z</time>
      </trkpt>
      <trkpt lat="46.47891" lon="6.27784">
        <ele>884.20001220703</ele>
        <time>2022-03-09T13:50:49.000Z</time>
      </trkpt>
      <trkpt lat="46.47888" lon="6.27795">
        <ele>885.40002441406</ele>
        <time>2022-03-09T13:50:54.000Z</time>
      </trkpt>
      <trkpt lat="46.47885" lon="6.27802">
        <ele>885.79998779297</ele>
        <time>2022-03-09T13:50:58.000Z</time>
      </trkpt>
      <trkpt lat="46.47884" lon="6.27814">
        <ele>886.59997558594</ele>
        <time>2022-03-09T13:51:04.000Z</time>
      </trkpt>
      <trkpt lat="46.47883" lon="6.27818">
        <ele>886.79998779297</ele>
        <time>2022-03-09T13:51:05.000Z</time>
      </trkpt>
      <trkpt lat="46.47885" lon="6.27838">
        <ele>887.59997558594</ele>
        <time>2022-03-09T13:51:11.000Z</time>
      </trkpt>
      <trkpt lat="46.47885" lon="6.27843">
        <ele>887.59997558594</ele>
        <time>2022-03-09T13:51:13.000Z</time>
      </trkpt>
      <trkpt lat="46.47884" lon="6.27854">
        <ele>888.40002441406</ele>
        <time>2022-03-09T13:51:18.000Z</time>
      </trkpt>
      <trkpt lat="46.47885" lon="6.27858">
        <ele>888.79998779297</ele>
        <time>2022-03-09T13:51:20.000Z</time>
      </trkpt>
      <trkpt lat="46.47884" lon="6.27868">
        <ele>889.59997558594</ele>
        <time>2022-03-09T13:51:24.000Z</time>
      </trkpt>
      <trkpt lat="46.47886" lon="6.2788">
        <ele>889.79998779297</ele>
        <time>2022-03-09T13:51:28.000Z</time>
      </trkpt>
      <trkpt lat="46.47887" lon="6.27886">
        <ele>890.20001220703</ele>
        <time>2022-03-09T13:51:30.000Z</time>
      </trkpt>
      <trkpt lat="46.47888" lon="6.27894">
        <ele>890.79998779297</ele>
        <time>2022-03-09T13:51:33.000Z</time>
      </trkpt>
      <trkpt lat="46.47894" lon="6.27905">
        <ele>891.40002441406</ele>
        <time>2022-03-09T13:51:38.000Z</time>
      </trkpt>
      <trkpt lat="46.479" lon="6.27914">
        <ele>892</ele>
        <time>2022-03-09T13:51:42.000Z</time>
      </trkpt>
      <trkpt lat="46.47902" lon="6.2792">
        <ele>892.40002441406</ele>
        <time>2022-03-09T13:51:45.000Z</time>
      </trkpt>
      <trkpt lat="46.47905" lon="6.27926">
        <ele>893</ele>
        <time>2022-03-09T13:51:48.000Z</time>
      </trkpt>
      <trkpt lat="46.47911" lon="6.27933">
        <ele>893.59997558594</ele>
        <time>2022-03-09T13:51:52.000Z</time>
      </trkpt>
      <trkpt lat="46.47917" lon="6.27939">
        <ele>894</ele>
        <time>2022-03-09T13:51:56.000Z</time>
      </trkpt>
      <trkpt lat="46.4792" lon="6.27947">
        <ele>894.40002441406</ele>
        <time>2022-03-09T13:51:59.000Z</time>
      </trkpt>
      <trkpt lat="46.47925" lon="6.27953">
        <ele>895.20001220703</ele>
        <time>2022-03-09T13:52:03.000Z</time>
      </trkpt>
      <trkpt lat="46.47932" lon="6.27962">
        <ele>895.79998779297</ele>
        <time>2022-03-09T13:52:08.000Z</time>
      </trkpt>
      <trkpt lat="46.47935" lon="6.27965">
        <ele>896.20001220703</ele>
        <time>2022-03-09T13:52:10.000Z</time>
      </trkpt>
      <trkpt lat="46.47942" lon="6.27982">
        <ele>897</ele>
        <time>2022-03-09T13:52:17.000Z</time>
      </trkpt>
      <trkpt lat="46.47946" lon="6.2799">
        <ele>897.40002441406</ele>
        <time>2022-03-09T13:52:20.000Z</time>
      </trkpt>
      <trkpt lat="46.47951" lon="6.27999">
        <ele>898</ele>
        <time>2022-03-09T13:52:24.000Z</time>
      </trkpt>
      <trkpt lat="46.47958" lon="6.28007">
        <ele>898.40002441406</ele>
        <time>2022-03-09T13:52:28.000Z</time>
      </trkpt>
      <trkpt lat="46.4796" lon="6.28011">
        <ele>898.59997558594</ele>
        <time>2022-03-09T13:52:30.000Z</time>
      </trkpt>
      <trkpt lat="46.47962" lon="6.2802">
        <ele>899.40002441406</ele>
        <time>2022-03-09T13:52:33.000Z</time>
      </trkpt>
      <trkpt lat="46.47963" lon="6.28022">
        <ele>899.40002441406</ele>
        <time>2022-03-09T13:52:34.000Z</time>
      </trkpt>
      <trkpt lat="46.47965" lon="6.28024">
        <ele>899.59997558594</ele>
        <time>2022-03-09T13:52:35.000Z</time>
      </trkpt>
      <trkpt lat="46.47978" lon="6.28038">
        <ele>900.20001220703</ele>
        <time>2022-03-09T13:52:43.000Z</time>
      </trkpt>
      <trkpt lat="46.47982" lon="6.28047">
        <ele>900.59997558594</ele>
        <time>2022-03-09T13:52:46.000Z</time>
      </trkpt>
      <trkpt lat="46.47987" lon="6.28055">
        <ele>900.79998779297</ele>
        <time>2022-03-09T13:52:50.000Z</time>
      </trkpt>
      <trkpt lat="46.47995" lon="6.28066">
        <ele>900.79998779297</ele>
        <time>2022-03-09T13:52:57.000Z</time>
      </trkpt>
      <trkpt lat="46.48003" lon="6.28076">
        <ele>901.40002441406</ele>
        <time>2022-03-09T13:53:03.000Z</time>
      </trkpt>
      <trkpt lat="46.48013" lon="6.28092">
        <ele>901.20001220703</ele>
        <time>2022-03-09T13:53:10.000Z</time>
      </trkpt>
      <trkpt lat="46.48014" lon="6.28094">
        <ele>901.20001220703</ele>
        <time>2022-03-09T13:53:11.000Z</time>
      </trkpt>
      <trkpt lat="46.48024" lon="6.28111">
        <ele>901.40002441406</ele>
        <time>2022-03-09T13:53:19.000Z</time>
      </trkpt>
      <trkpt lat="46.48029" lon="6.2812">
        <ele>901.59997558594</ele>
        <time>2022-03-09T13:53:23.000Z</time>
      </trkpt>
      <trkpt lat="46.48033" lon="6.28126">
        <ele>901.79998779297</ele>
        <time>2022-03-09T13:53:26.000Z</time>
      </trkpt>
      <trkpt lat="46.48038" lon="6.28129">
        <ele>901.79998779297</ele>
        <time>2022-03-09T13:53:33.000Z</time>
      </trkpt>
      <trkpt lat="46.48037" lon="6.28126">
        <ele>901.59997558594</ele>
        <time>2022-03-09T13:53:37.000Z</time>
      </trkpt>
      <trkpt lat="46.48035" lon="6.28126">
        <ele>901.59997558594</ele>
        <time>2022-03-09T13:53:39.000Z</time>
      </trkpt>
      <trkpt lat="46.48034" lon="6.28127">
        <ele>901.59997558594</ele>
        <time>2022-03-09T13:53:40.000Z</time>
      </trkpt>
      <trkpt lat="46.48034" lon="6.28132">
        <ele>901.40002441406</ele>
        <time>2022-03-09T13:53:45.000Z</time>
      </trkpt>
      <trkpt lat="46.48035" lon="6.28133">
        <ele>901.40002441406</ele>
        <time>2022-03-09T13:53:46.000Z</time>
      </trkpt>
      <trkpt lat="46.48039" lon="6.28135">
        <ele>901.59997558594</ele>
        <time>2022-03-09T13:53:51.000Z</time>
      </trkpt>
      <trkpt lat="46.4804" lon="6.28133">
        <ele>901.59997558594</ele>
        <time>2022-03-09T13:53:53.000Z</time>
      </trkpt>
      <trkpt lat="46.4804" lon="6.2813">
        <ele>901.40002441406</ele>
        <time>2022-03-09T13:53:55.000Z</time>
      </trkpt>
      <trkpt lat="46.4804" lon="6.28128">
        <ele>901.40002441406</ele>
        <time>2022-03-09T13:53:57.000Z</time>
      </trkpt>
      <trkpt lat="46.48039" lon="6.28126">
        <ele>901.20001220703</ele>
        <time>2022-03-09T13:54:03.000Z</time>
      </trkpt>
      <trkpt lat="46.48037" lon="6.28125">
        <ele>901.59997558594</ele>
        <time>2022-03-09T13:54:11.000Z</time>
      </trkpt>
      <trkpt lat="46.48032" lon="6.28127">
        <ele>902.20001220703</ele>
        <time>2022-03-09T13:54:21.000Z</time>
      </trkpt>
      <trkpt lat="46.4803" lon="6.28121">
        <ele>901.79998779297</ele>
        <time>2022-03-09T13:54:32.000Z</time>
      </trkpt>
      <trkpt lat="46.48031" lon="6.28125">
        <ele>902.40002441406</ele>
        <time>2022-03-09T13:54:44.000Z</time>
      </trkpt>
      <trkpt lat="46.4803" lon="6.28131">
        <ele>902.79998779297</ele>
        <time>2022-03-09T13:54:54.000Z</time>
      </trkpt>
      <trkpt lat="46.48031" lon="6.28131">
        <ele>903</ele>
        <time>2022-03-09T13:54:55.000Z</time>
      </trkpt>
      <trkpt lat="46.48034" lon="6.28131">
        <ele>903.40002441406</ele>
        <time>2022-03-09T13:55:01.000Z</time>
      </trkpt>
      <trkpt lat="46.48035" lon="6.28129">
        <ele>903.40002441406</ele>
        <time>2022-03-09T13:55:08.000Z</time>
      </trkpt>
      <trkpt lat="46.48037" lon="6.28127">
        <ele>901.79998779297</ele>
        <time>2022-03-09T13:55:14.000Z</time>
      </trkpt>
      <trkpt lat="46.48041" lon="6.28129">
        <ele>901.79998779297</ele>
        <time>2022-03-09T13:55:24.000Z</time>
      </trkpt>
      <trkpt lat="46.48041" lon="6.2813">
        <ele>901.79998779297</ele>
        <time>2022-03-09T13:55:26.000Z</time>
      </trkpt>
      <trkpt lat="46.48037" lon="6.28133">
        <ele>902</ele>
        <time>2022-03-09T13:55:33.000Z</time>
      </trkpt>
      <trkpt lat="46.48035" lon="6.28133">
        <ele>902</ele>
        <time>2022-03-09T13:55:35.000Z</time>
      </trkpt>
      <trkpt lat="46.48033" lon="6.28135">
        <ele>902</ele>
        <time>2022-03-09T13:55:38.000Z</time>
      </trkpt>
      <trkpt lat="46.48031" lon="6.2814">
        <ele>902.20001220703</ele>
        <time>2022-03-09T13:55:41.000Z</time>
      </trkpt>
      <trkpt lat="46.48028" lon="6.28143">
        <ele>901.59997558594</ele>
        <time>2022-03-09T13:55:44.000Z</time>
      </trkpt>
      <trkpt lat="46.48022" lon="6.28146">
        <ele>901.40002441406</ele>
        <time>2022-03-09T13:55:50.000Z</time>
      </trkpt>
      <trkpt lat="46.4802" lon="6.28148">
        <ele>901.40002441406</ele>
        <time>2022-03-09T13:55:52.000Z</time>
      </trkpt>
      <trkpt lat="46.48016" lon="6.28152">
        <ele>901.59997558594</ele>
        <time>2022-03-09T13:55:55.000Z</time>
      </trkpt>
      <trkpt lat="46.48014" lon="6.28153">
        <ele>901.79998779297</ele>
        <time>2022-03-09T13:55:57.000Z</time>
      </trkpt>
      <trkpt lat="46.48011" lon="6.28156">
        <ele>901.79998779297</ele>
        <time>2022-03-09T13:55:59.000Z</time>
      </trkpt>
      <trkpt lat="46.48007" lon="6.28166">
        <ele>902</ele>
        <time>2022-03-09T13:56:03.000Z</time>
      </trkpt>
      <trkpt lat="46.48004" lon="6.2818">
        <ele>902.20001220703</ele>
        <time>2022-03-09T13:56:08.000Z</time>
      </trkpt>
      <trkpt lat="46.48004" lon="6.28182">
        <ele>902.20001220703</ele>
        <time>2022-03-09T13:56:09.000Z</time>
      </trkpt>
      <trkpt lat="46.48004" lon="6.28187">
        <ele>902.40002441406</ele>
        <time>2022-03-09T13:56:11.000Z</time>
      </trkpt>
      <trkpt lat="46.48004" lon="6.28194">
        <ele>902.59997558594</ele>
        <time>2022-03-09T13:56:13.000Z</time>
      </trkpt>
      <trkpt lat="46.48003" lon="6.28196">
        <ele>902.79998779297</ele>
        <time>2022-03-09T13:56:14.000Z</time>
      </trkpt>
      <trkpt lat="46.47995" lon="6.28208">
        <ele>902.79998779297</ele>
        <time>2022-03-09T13:56:18.000Z</time>
      </trkpt>
      <trkpt lat="46.47987" lon="6.28225">
        <ele>902.79998779297</ele>
        <time>2022-03-09T13:56:24.000Z</time>
      </trkpt>
      <trkpt lat="46.47981" lon="6.28241">
        <ele>902.59997558594</ele>
        <time>2022-03-09T13:56:30.000Z</time>
      </trkpt>
      <trkpt lat="46.4797" lon="6.28258">
        <ele>902.20001220703</ele>
        <time>2022-03-09T13:56:35.000Z</time>
      </trkpt>
      <trkpt lat="46.47968" lon="6.28259">
        <ele>902</ele>
        <time>2022-03-09T13:56:36.000Z</time>
      </trkpt>
      <trkpt lat="46.47961" lon="6.28269">
        <ele>901.79998779297</ele>
        <time>2022-03-09T13:56:40.000Z</time>
      </trkpt>
      <trkpt lat="46.47955" lon="6.28291">
        <ele>902</ele>
        <time>2022-03-09T13:56:46.000Z</time>
      </trkpt>
      <trkpt lat="46.47952" lon="6.28303">
        <ele>902</ele>
        <time>2022-03-09T13:56:51.000Z</time>
      </trkpt>
      <trkpt lat="46.47952" lon="6.28308">
        <ele>902</ele>
        <time>2022-03-09T13:56:53.000Z</time>
      </trkpt>
      <trkpt lat="46.47954" lon="6.28317">
        <ele>901.59997558594</ele>
        <time>2022-03-09T13:56:56.000Z</time>
      </trkpt>
      <trkpt lat="46.47955" lon="6.28319">
        <ele>901.40002441406</ele>
        <time>2022-03-09T13:56:57.000Z</time>
      </trkpt>
      <trkpt lat="46.47962" lon="6.28326">
        <ele>901.20001220703</ele>
        <time>2022-03-09T13:57:02.000Z</time>
      </trkpt>
      <trkpt lat="46.47972" lon="6.28334">
        <ele>900.59997558594</ele>
        <time>2022-03-09T13:57:07.000Z</time>
      </trkpt>
      <trkpt lat="46.47974" lon="6.28336">
        <ele>900.40002441406</ele>
        <time>2022-03-09T13:57:08.000Z</time>
      </trkpt>
      <trkpt lat="46.47986" lon="6.28346">
        <ele>900.20001220703</ele>
        <time>2022-03-09T13:57:13.000Z</time>
      </trkpt>
      <trkpt lat="46.47991" lon="6.2835">
        <ele>899.79998779297</ele>
        <time>2022-03-09T13:57:15.000Z</time>
      </trkpt>
      <trkpt lat="46.47999" lon="6.28362">
        <ele>899.20001220703</ele>
        <time>2022-03-09T13:57:19.000Z</time>
      </trkpt>
      <trkpt lat="46.48001" lon="6.28383">
        <ele>898</ele>
        <time>2022-03-09T13:57:25.000Z</time>
      </trkpt>
      <trkpt lat="46.47998" lon="6.28388">
        <ele>897.59997558594</ele>
        <time>2022-03-09T13:57:36.000Z</time>
      </trkpt>
      <trkpt lat="46.48" lon="6.28394">
        <ele>897.59997558594</ele>
        <time>2022-03-09T13:57:44.000Z</time>
      </trkpt>
      <trkpt lat="46.48001" lon="6.28402">
        <ele>897.20001220703</ele>
        <time>2022-03-09T13:57:53.000Z</time>
      </trkpt>
      <trkpt lat="46.48004" lon="6.28402">
        <ele>897.20001220703</ele>
        <time>2022-03-09T13:58:00.000Z</time>
      </trkpt>
      <trkpt lat="46.48008" lon="6.28401">
        <ele>897</ele>
        <time>2022-03-09T13:58:03.000Z</time>
      </trkpt>
      <trkpt lat="46.48008" lon="6.28403">
        <ele>896.79998779297</ele>
        <time>2022-03-09T13:58:04.000Z</time>
      </trkpt>
      <trkpt lat="46.48011" lon="6.28409">
        <ele>896.79998779297</ele>
        <time>2022-03-09T13:58:05.000Z</time>
      </trkpt>
      <trkpt lat="46.48014" lon="6.28423">
        <ele>895.59997558594</ele>
        <time>2022-03-09T13:58:09.000Z</time>
      </trkpt>
      <trkpt lat="46.48013" lon="6.28435">
        <ele>895</ele>
        <time>2022-03-09T13:58:11.000Z</time>
      </trkpt>
      <trkpt lat="46.48013" lon="6.28442">
        <ele>893.59997558594</ele>
        <time>2022-03-09T13:58:12.000Z</time>
      </trkpt>
      <trkpt lat="46.48013" lon="6.28448">
        <ele>892.79998779297</ele>
        <time>2022-03-09T13:58:13.000Z</time>
      </trkpt>
      <trkpt lat="46.48013" lon="6.28454">
        <ele>892.20001220703</ele>
        <time>2022-03-09T13:58:14.000Z</time>
      </trkpt>
      <trkpt lat="46.48013" lon="6.28463">
        <ele>891.59997558594</ele>
        <time>2022-03-09T13:58:16.000Z</time>
      </trkpt>
      <trkpt lat="46.48009" lon="6.28477">
        <ele>891.20001220703</ele>
        <time>2022-03-09T13:58:19.000Z</time>
      </trkpt>
      <trkpt lat="46.48008" lon="6.28489">
        <ele>891</ele>
        <time>2022-03-09T13:58:21.000Z</time>
      </trkpt>
      <trkpt lat="46.48005" lon="6.28511">
        <ele>890</ele>
        <time>2022-03-09T13:58:25.000Z</time>
      </trkpt>
      <trkpt lat="46.48005" lon="6.28515">
        <ele>889.79998779297</ele>
        <time>2022-03-09T13:58:26.000Z</time>
      </trkpt>
      <trkpt lat="46.48002" lon="6.28527">
        <ele>889.40002441406</ele>
        <time>2022-03-09T13:58:31.000Z</time>
      </trkpt>
      <trkpt lat="46.48" lon="6.28536">
        <ele>889</ele>
        <time>2022-03-09T13:58:34.000Z</time>
      </trkpt>
      <trkpt lat="46.47999" lon="6.28544">
        <ele>888.40002441406</ele>
        <time>2022-03-09T13:58:36.000Z</time>
      </trkpt>
      <trkpt lat="46.47998" lon="6.28547">
        <ele>887.79998779297</ele>
        <time>2022-03-09T13:58:37.000Z</time>
      </trkpt>
      <trkpt lat="46.47995" lon="6.28564">
        <ele>887.20001220703</ele>
        <time>2022-03-09T13:58:41.000Z</time>
      </trkpt>
      <trkpt lat="46.47994" lon="6.28573">
        <ele>886.79998779297</ele>
        <time>2022-03-09T13:58:43.000Z</time>
      </trkpt>
      <trkpt lat="46.47992" lon="6.28579">
        <ele>886.40002441406</ele>
        <time>2022-03-09T13:58:46.000Z</time>
      </trkpt>
      <trkpt lat="46.47989" lon="6.28594">
        <ele>886</ele>
        <time>2022-03-09T13:58:48.000Z</time>
      </trkpt>
      <trkpt lat="46.47987" lon="6.28602">
        <ele>885.59997558594</ele>
        <time>2022-03-09T13:58:50.000Z</time>
      </trkpt>
      <trkpt lat="46.47987" lon="6.28605">
        <ele>885.40002441406</ele>
        <time>2022-03-09T13:58:51.000Z</time>
      </trkpt>
      <trkpt lat="46.47982" lon="6.28635">
        <ele>884.59997558594</ele>
        <time>2022-03-09T13:58:57.000Z</time>
      </trkpt>
      <trkpt lat="46.47982" lon="6.28638">
        <ele>884.40002441406</ele>
        <time>2022-03-09T13:58:58.000Z</time>
      </trkpt>
      <trkpt lat="46.47984" lon="6.28659">
        <ele>883.20001220703</ele>
        <time>2022-03-09T13:59:03.000Z</time>
      </trkpt>
      <trkpt lat="46.47983" lon="6.28665">
        <ele>883</ele>
        <time>2022-03-09T13:59:04.000Z</time>
      </trkpt>
      <trkpt lat="46.47982" lon="6.28679">
        <ele>882</ele>
        <time>2022-03-09T13:59:07.000Z</time>
      </trkpt>
      <trkpt lat="46.47983" lon="6.28688">
        <ele>881.59997558594</ele>
        <time>2022-03-09T13:59:09.000Z</time>
      </trkpt>
      <trkpt lat="46.47982" lon="6.28704">
        <ele>881</ele>
        <time>2022-03-09T13:59:13.000Z</time>
      </trkpt>
      <trkpt lat="46.47982" lon="6.28709">
        <ele>880.79998779297</ele>
        <time>2022-03-09T13:59:14.000Z</time>
      </trkpt>
      <trkpt lat="46.47983" lon="6.28719">
        <ele>879.79998779297</ele>
        <time>2022-03-09T13:59:16.000Z</time>
      </trkpt>
      <trkpt lat="46.47982" lon="6.28728">
        <ele>878.59997558594</ele>
        <time>2022-03-09T13:59:18.000Z</time>
      </trkpt>
      <trkpt lat="46.47981" lon="6.28731">
        <ele>878</ele>
        <time>2022-03-09T13:59:19.000Z</time>
      </trkpt>
      <trkpt lat="46.4798" lon="6.28736">
        <ele>877.59997558594</ele>
        <time>2022-03-09T13:59:21.000Z</time>
      </trkpt>
      <trkpt lat="46.47979" lon="6.28748">
        <ele>876.59997558594</ele>
        <time>2022-03-09T13:59:24.000Z</time>
      </trkpt>
      <trkpt lat="46.47982" lon="6.28761">
        <ele>875.40002441406</ele>
        <time>2022-03-09T13:59:26.000Z</time>
      </trkpt>
      <trkpt lat="46.47984" lon="6.28778">
        <ele>874.20001220703</ele>
        <time>2022-03-09T13:59:28.000Z</time>
      </trkpt>
      <trkpt lat="46.47986" lon="6.28795">
        <ele>873.79998779297</ele>
        <time>2022-03-09T13:59:30.000Z</time>
      </trkpt>
      <trkpt lat="46.47986" lon="6.28821">
        <ele>873.20001220703</ele>
        <time>2022-03-09T13:59:35.000Z</time>
      </trkpt>
      <trkpt lat="46.47986" lon="6.28825">
        <ele>873</ele>
        <time>2022-03-09T13:59:36.000Z</time>
      </trkpt>
      <trkpt lat="46.47984" lon="6.28837">
        <ele>872</ele>
        <time>2022-03-09T13:59:40.000Z</time>
      </trkpt>
      <trkpt lat="46.47984" lon="6.28842">
        <ele>872</ele>
        <time>2022-03-09T13:59:41.000Z</time>
      </trkpt>
      <trkpt lat="46.47982" lon="6.28867">
        <ele>871</ele>
        <time>2022-03-09T13:59:46.000Z</time>
      </trkpt>
      <trkpt lat="46.47979" lon="6.28873">
        <ele>870.79998779297</ele>
        <time>2022-03-09T13:59:47.000Z</time>
      </trkpt>
      <trkpt lat="46.47968" lon="6.28905">
        <ele>870.40002441406</ele>
        <time>2022-03-09T13:59:52.000Z</time>
      </trkpt>
      <trkpt lat="46.47967" lon="6.28918">
        <ele>870</ele>
        <time>2022-03-09T13:59:54.000Z</time>
      </trkpt>
      <trkpt lat="46.47962" lon="6.28944">
        <ele>869.59997558594</ele>
        <time>2022-03-09T13:59:57.000Z</time>
      </trkpt>
      <trkpt lat="46.47963" lon="6.28968">
        <ele>869.20001220703</ele>
        <time>2022-03-09T14:00:02.000Z</time>
      </trkpt>
      <trkpt lat="46.47963" lon="6.28983">
        <ele>868.79998779297</ele>
        <time>2022-03-09T14:00:05.000Z</time>
      </trkpt>
      <trkpt lat="46.47963" lon="6.28983">
        <ele>868.40002441406</ele>
        <time>2022-03-09T14:00:06.000Z</time>
      </trkpt>
      <trkpt lat="46.47961" lon="6.28987">
        <ele>868.20001220703</ele>
        <time>2022-03-09T14:00:07.000Z</time>
      </trkpt>
      <trkpt lat="46.47955" lon="6.29001">
        <ele>867.59997558594</ele>
        <time>2022-03-09T14:00:10.000Z</time>
      </trkpt>
      <trkpt lat="46.4795" lon="6.2902">
        <ele>866.20001220703</ele>
        <time>2022-03-09T14:00:13.000Z</time>
      </trkpt>
      <trkpt lat="46.47947" lon="6.2903">
        <ele>865.79998779297</ele>
        <time>2022-03-09T14:00:15.000Z</time>
      </trkpt>
      <trkpt lat="46.47945" lon="6.29053">
        <ele>865.79998779297</ele>
        <time>2022-03-09T14:00:20.000Z</time>
      </trkpt>
      <trkpt lat="46.47947" lon="6.29078">
        <ele>865.20001220703</ele>
        <time>2022-03-09T14:00:26.000Z</time>
      </trkpt>
      <trkpt lat="46.47947" lon="6.29084">
        <ele>865.20001220703</ele>
        <time>2022-03-09T14:00:27.000Z</time>
      </trkpt>
      <trkpt lat="46.47948" lon="6.29101">
        <ele>865</ele>
        <time>2022-03-09T14:00:29.000Z</time>
      </trkpt>
      <trkpt lat="46.47949" lon="6.29109">
        <ele>864</ele>
        <time>2022-03-09T14:00:30.000Z</time>
      </trkpt>
      <trkpt lat="46.47949" lon="6.29117">
        <ele>863</ele>
        <time>2022-03-09T14:00:31.000Z</time>
      </trkpt>
      <trkpt lat="46.4795" lon="6.29127">
        <ele>862.20001220703</ele>
        <time>2022-03-09T14:00:32.000Z</time>
      </trkpt>
      <trkpt lat="46.4795" lon="6.29153">
        <ele>860.79998779297</ele>
        <time>2022-03-09T14:00:34.000Z</time>
      </trkpt>
      <trkpt lat="46.47951" lon="6.29168">
        <ele>860.20001220703</ele>
        <time>2022-03-09T14:00:36.000Z</time>
      </trkpt>
      <trkpt lat="46.47952" lon="6.29184">
        <ele>859.79998779297</ele>
        <time>2022-03-09T14:00:38.000Z</time>
      </trkpt>
      <trkpt lat="46.47953" lon="6.29195">
        <ele>858.59997558594</ele>
        <time>2022-03-09T14:00:39.000Z</time>
      </trkpt>
      <trkpt lat="46.47955" lon="6.29204">
        <ele>857.59997558594</ele>
        <time>2022-03-09T14:00:40.000Z</time>
      </trkpt>
      <trkpt lat="46.47956" lon="6.29212">
        <ele>857.20001220703</ele>
        <time>2022-03-09T14:00:41.000Z</time>
      </trkpt>
      <trkpt lat="46.47956" lon="6.29221">
        <ele>857</ele>
        <time>2022-03-09T14:00:42.000Z</time>
      </trkpt>
      <trkpt lat="46.47954" lon="6.29251">
        <ele>856.20001220703</ele>
        <time>2022-03-09T14:00:45.000Z</time>
      </trkpt>
      <trkpt lat="46.47953" lon="6.29267">
        <ele>856</ele>
        <time>2022-03-09T14:00:47.000Z</time>
      </trkpt>
      <trkpt lat="46.47952" lon="6.29286">
        <ele>855.79998779297</ele>
        <time>2022-03-09T14:00:50.000Z</time>
      </trkpt>
      <trkpt lat="46.47952" lon="6.29307">
        <ele>855.20001220703</ele>
        <time>2022-03-09T14:00:54.000Z</time>
      </trkpt>
      <trkpt lat="46.47953" lon="6.29322">
        <ele>854.20001220703</ele>
        <time>2022-03-09T14:00:56.000Z</time>
      </trkpt>
      <trkpt lat="46.47954" lon="6.29329">
        <ele>853.79998779297</ele>
        <time>2022-03-09T14:00:57.000Z</time>
      </trkpt>
      <trkpt lat="46.47961" lon="6.29356">
        <ele>852.79998779297</ele>
        <time>2022-03-09T14:00:59.000Z</time>
      </trkpt>
      <trkpt lat="46.47963" lon="6.29366">
        <ele>852.59997558594</ele>
        <time>2022-03-09T14:01:00.000Z</time>
      </trkpt>
      <trkpt lat="46.47965" lon="6.29377">
        <ele>852</ele>
        <time>2022-03-09T14:01:01.000Z</time>
      </trkpt>
      <trkpt lat="46.47967" lon="6.29388">
        <ele>851.20001220703</ele>
        <time>2022-03-09T14:01:02.000Z</time>
      </trkpt>
      <trkpt lat="46.47972" lon="6.29411">
        <ele>849.59997558594</ele>
        <time>2022-03-09T14:01:04.000Z</time>
      </trkpt>
      <trkpt lat="46.47976" lon="6.29431">
        <ele>847.59997558594</ele>
        <time>2022-03-09T14:01:06.000Z</time>
      </trkpt>
      <trkpt lat="46.47978" lon="6.29442">
        <ele>846.79998779297</ele>
        <time>2022-03-09T14:01:07.000Z</time>
      </trkpt>
      <trkpt lat="46.47983" lon="6.29462">
        <ele>845.79998779297</ele>
        <time>2022-03-09T14:01:08.000Z</time>
      </trkpt>
      <trkpt lat="46.47983" lon="6.29462">
        <ele>844.59997558594</ele>
        <time>2022-03-09T14:01:09.000Z</time>
      </trkpt>
      <trkpt lat="46.47987" lon="6.29481">
        <ele>843.40002441406</ele>
        <time>2022-03-09T14:01:11.000Z</time>
      </trkpt>
      <trkpt lat="46.47991" lon="6.295">
        <ele>842.20001220703</ele>
        <time>2022-03-09T14:01:13.000Z</time>
      </trkpt>
      <trkpt lat="46.47996" lon="6.29518">
        <ele>841.79998779297</ele>
        <time>2022-03-09T14:01:15.000Z</time>
      </trkpt>
      <trkpt lat="46.47998" lon="6.29525">
        <ele>841</ele>
        <time>2022-03-09T14:01:16.000Z</time>
      </trkpt>
      <trkpt lat="46.48001" lon="6.2954">
        <ele>840</ele>
        <time>2022-03-09T14:01:18.000Z</time>
      </trkpt>
      <trkpt lat="46.48008" lon="6.2957">
        <ele>838.20001220703</ele>
        <time>2022-03-09T14:01:22.000Z</time>
      </trkpt>
      <trkpt lat="46.4801" lon="6.29577">
        <ele>837.79998779297</ele>
        <time>2022-03-09T14:01:23.000Z</time>
      </trkpt>
      <trkpt lat="46.48015" lon="6.29589">
        <ele>837.59997558594</ele>
        <time>2022-03-09T14:01:25.000Z</time>
      </trkpt>
      <trkpt lat="46.48018" lon="6.29593">
        <ele>837.79998779297</ele>
        <time>2022-03-09T14:01:26.000Z</time>
      </trkpt>
      <trkpt lat="46.48029" lon="6.29597">
        <ele>839</ele>
        <time>2022-03-09T14:01:30.000Z</time>
      </trkpt>
      <trkpt lat="46.48033" lon="6.29595">
        <ele>839.40002441406</ele>
        <time>2022-03-09T14:01:32.000Z</time>
      </trkpt>
      <trkpt lat="46.48038" lon="6.29592">
        <ele>839.40002441406</ele>
        <time>2022-03-09T14:01:35.000Z</time>
      </trkpt>
      <trkpt lat="46.48046" lon="6.29586">
        <ele>840.20001220703</ele>
        <time>2022-03-09T14:01:42.000Z</time>
      </trkpt>
      <trkpt lat="46.48053" lon="6.29579">
        <ele>840.20001220703</ele>
        <time>2022-03-09T14:01:49.000Z</time>
      </trkpt>
      <trkpt lat="46.48055" lon="6.29578">
        <ele>840.40002441406</ele>
        <time>2022-03-09T14:01:51.000Z</time>
      </trkpt>
      <trkpt lat="46.48055" lon="6.29577">
        <ele>840.79998779297</ele>
        <time>2022-03-09T14:01:54.000Z</time>
      </trkpt>
      <trkpt lat="46.48054" lon="6.29577">
        <ele>841</ele>
        <time>2022-03-09T14:02:00.000Z</time>
      </trkpt>
      <trkpt lat="46.48054" lon="6.29578">
        <ele>840.79998779297</ele>
        <time>2022-03-09T14:02:08.000Z</time>
      </trkpt>
      <trkpt lat="46.48053" lon="6.29579">
        <ele>841</ele>
        <time>2022-03-09T14:02:17.000Z</time>
      </trkpt>
      <trkpt lat="46.48053" lon="6.29581">
        <ele>841.40002441406</ele>
        <time>2022-03-09T14:02:26.000Z</time>
      </trkpt>
      <trkpt lat="46.48052" lon="6.29581">
        <ele>841.59997558594</ele>
        <time>2022-03-09T14:02:27.000Z</time>
      </trkpt>
      <trkpt lat="46.48051" lon="6.29582">
        <ele>841.40002441406</ele>
        <time>2022-03-09T14:02:34.000Z</time>
      </trkpt>
      <trkpt lat="46.48051" lon="6.29582">
        <ele>841.79998779297</ele>
        <time>2022-03-09T14:02:43.000Z</time>
      </trkpt>
      <trkpt lat="46.48052" lon="6.29582">
        <ele>842.40002441406</ele>
        <time>2022-03-09T14:02:50.000Z</time>
      </trkpt>
      <trkpt lat="46.48051" lon="6.29584">
        <ele>842.40002441406</ele>
        <time>2022-03-09T14:03:02.000Z</time>
      </trkpt>
      <trkpt lat="46.48052" lon="6.29582">
        <ele>842.40002441406</ele>
        <time>2022-03-09T14:03:10.000Z</time>
      </trkpt>
      <trkpt lat="46.48052" lon="6.29582">
        <ele>842.59997558594</ele>
        <time>2022-03-09T14:03:11.000Z</time>
      </trkpt>
      <trkpt lat="46.48053" lon="6.29582">
        <ele>842.59997558594</ele>
        <time>2022-03-09T14:03:17.000Z</time>
      </trkpt>
      <trkpt lat="46.48053" lon="6.29581">
        <ele>842.40002441406</ele>
        <time>2022-03-09T14:03:22.000Z</time>
      </trkpt>
      <trkpt lat="46.48053" lon="6.29581">
        <ele>843.40002441406</ele>
        <time>2022-03-09T14:03:33.000Z</time>
      </trkpt>
      <trkpt lat="46.48052" lon="6.29581">
        <ele>843.59997558594</ele>
        <time>2022-03-09T14:03:35.000Z</time>
      </trkpt>
      <trkpt lat="46.48049" lon="6.29583">
        <ele>843.59997558594</ele>
        <time>2022-03-09T14:03:43.000Z</time>
      </trkpt>
      <trkpt lat="46.48049" lon="6.29584">
        <ele>844</ele>
        <time>2022-03-09T14:03:51.000Z</time>
      </trkpt>
      <trkpt lat="46.48049" lon="6.29584">
        <ele>844.40002441406</ele>
        <time>2022-03-09T14:03:56.000Z</time>
      </trkpt>
      <trkpt lat="46.48051" lon="6.29584">
        <ele>844.79998779297</ele>
        <time>2022-03-09T14:04:01.000Z</time>
      </trkpt>
      <trkpt lat="46.48052" lon="6.29586">
        <ele>845.20001220703</ele>
        <time>2022-03-09T14:04:12.000Z</time>
      </trkpt>
      <trkpt lat="46.48052" lon="6.29586">
        <ele>845.59997558594</ele>
        <time>2022-03-09T14:04:23.000Z</time>
      </trkpt>
      <trkpt lat="46.48052" lon="6.29586">
        <ele>845.79998779297</ele>
        <time>2022-03-09T14:04:27.000Z</time>
      </trkpt>
      <trkpt lat="46.48052" lon="6.29587">
        <ele>845.79998779297</ele>
        <time>2022-03-09T14:04:30.000Z</time>
      </trkpt>
      <trkpt lat="46.48052" lon="6.29588">
        <ele>846</ele>
        <time>2022-03-09T14:04:38.000Z</time>
      </trkpt>
      <trkpt lat="46.48052" lon="6.29587">
        <ele>846</ele>
        <time>2022-03-09T14:04:47.000Z</time>
      </trkpt>
      <trkpt lat="46.48052" lon="6.29585">
        <ele>845.79998779297</ele>
        <time>2022-03-09T14:04:57.000Z</time>
      </trkpt>
      <trkpt lat="46.48053" lon="6.29584">
        <ele>845.79998779297</ele>
        <time>2022-03-09T14:05:07.000Z</time>
      </trkpt>
      <trkpt lat="46.48052" lon="6.29584">
        <ele>845.79998779297</ele>
        <time>2022-03-09T14:05:15.000Z</time>
      </trkpt>
      <trkpt lat="46.48052" lon="6.29583">
        <ele>845.59997558594</ele>
        <time>2022-03-09T14:05:23.000Z</time>
      </trkpt>
      <trkpt lat="46.4805" lon="6.29585">
        <ele>845.59997558594</ele>
        <time>2022-03-09T14:05:36.000Z</time>
      </trkpt>
      <trkpt lat="46.4805" lon="6.29584">
        <ele>845.59997558594</ele>
        <time>2022-03-09T14:05:45.000Z</time>
      </trkpt>
      <trkpt lat="46.4805" lon="6.29583">
        <ele>845.79998779297</ele>
        <time>2022-03-09T14:05:54.000Z</time>
      </trkpt>
      <trkpt lat="46.4805" lon="6.29584">
        <ele>846</ele>
        <time>2022-03-09T14:06:05.000Z</time>
      </trkpt>
      <trkpt lat="46.4805" lon="6.29585">
        <ele>846</ele>
        <time>2022-03-09T14:06:14.000Z</time>
      </trkpt>
      <trkpt lat="46.4805" lon="6.29584">
        <ele>846</ele>
        <time>2022-03-09T14:06:23.000Z</time>
      </trkpt>
      <trkpt lat="46.48051" lon="6.29584">
        <ele>846</ele>
        <time>2022-03-09T14:06:35.000Z</time>
      </trkpt>
      <trkpt lat="46.48051" lon="6.29586">
        <ele>846</ele>
        <time>2022-03-09T14:06:45.000Z</time>
      </trkpt>
      <trkpt lat="46.4805" lon="6.29586">
        <ele>846</ele>
        <time>2022-03-09T14:07:06.000Z</time>
      </trkpt>
      <trkpt lat="46.48049" lon="6.29587">
        <ele>846</ele>
        <time>2022-03-09T14:07:25.000Z</time>
      </trkpt>
      <trkpt lat="46.48048" lon="6.29589">
        <ele>846</ele>
        <time>2022-03-09T14:07:44.000Z</time>
      </trkpt>
      <trkpt lat="46.48052" lon="6.29586">
        <ele>846</ele>
        <time>2022-03-09T14:07:50.000Z</time>
      </trkpt>
      <trkpt lat="46.48055" lon="6.29584">
        <ele>846</ele>
        <time>2022-03-09T14:07:52.000Z</time>
      </trkpt>
      <trkpt lat="46.48064" lon="6.29575">
        <ele>846.79998779297</ele>
        <time>2022-03-09T14:07:57.000Z</time>
      </trkpt>
      <trkpt lat="46.48067" lon="6.29572">
        <ele>846.79998779297</ele>
        <time>2022-03-09T14:07:59.000Z</time>
      </trkpt>
      <trkpt lat="46.4808" lon="6.2956">
        <ele>847.79998779297</ele>
        <time>2022-03-09T14:08:07.000Z</time>
      </trkpt>
      <trkpt lat="46.48082" lon="6.29558">
        <ele>848</ele>
        <time>2022-03-09T14:08:08.000Z</time>
      </trkpt>
      <trkpt lat="46.48101" lon="6.29542">
        <ele>848.20001220703</ele>
        <time>2022-03-09T14:08:15.000Z</time>
      </trkpt>
      <trkpt lat="46.4812" lon="6.29524">
        <ele>848.59997558594</ele>
        <time>2022-03-09T14:08:22.000Z</time>
      </trkpt>
      <trkpt lat="46.48135" lon="6.29515">
        <ele>847.59997558594</ele>
        <time>2022-03-09T14:08:27.000Z</time>
      </trkpt>
      <trkpt lat="46.48158" lon="6.29507">
        <ele>846.59997558594</ele>
        <time>2022-03-09T14:08:34.000Z</time>
      </trkpt>
      <trkpt lat="46.48179" lon="6.29498">
        <ele>846</ele>
        <time>2022-03-09T14:08:41.000Z</time>
      </trkpt>
      <trkpt lat="46.48187" lon="6.29494">
        <ele>845.59997558594</ele>
        <time>2022-03-09T14:08:43.000Z</time>
      </trkpt>
      <trkpt lat="46.48201" lon="6.29483">
        <ele>844.79998779297</ele>
        <time>2022-03-09T14:08:47.000Z</time>
      </trkpt>
      <trkpt lat="46.48209" lon="6.29471">
        <ele>844.40002441406</ele>
        <time>2022-03-09T14:08:50.000Z</time>
      </trkpt>
      <trkpt lat="46.48225" lon="6.29452">
        <ele>844.20001220703</ele>
        <time>2022-03-09T14:08:55.000Z</time>
      </trkpt>
      <trkpt lat="46.4824" lon="6.29436">
        <ele>843.79998779297</ele>
        <time>2022-03-09T14:09:01.000Z</time>
      </trkpt>
      <trkpt lat="46.48244" lon="6.29431">
        <ele>843.40002441406</ele>
        <time>2022-03-09T14:09:03.000Z</time>
      </trkpt>
      <trkpt lat="46.48252" lon="6.29424">
        <ele>843.20001220703</ele>
        <time>2022-03-09T14:09:07.000Z</time>
      </trkpt>
      <trkpt lat="46.48263" lon="6.29411">
        <ele>843.20001220703</ele>
        <time>2022-03-09T14:09:12.000Z</time>
      </trkpt>
      <trkpt lat="46.48279" lon="6.29391">
        <ele>842.40002441406</ele>
        <time>2022-03-09T14:09:19.000Z</time>
      </trkpt>
      <trkpt lat="46.48281" lon="6.29389">
        <ele>842.20001220703</ele>
        <time>2022-03-09T14:09:20.000Z</time>
      </trkpt>
      <trkpt lat="46.48289" lon="6.29377">
        <ele>841.79998779297</ele>
        <time>2022-03-09T14:09:25.000Z</time>
      </trkpt>
      <trkpt lat="46.48309" lon="6.29356">
        <ele>842</ele>
        <time>2022-03-09T14:09:31.000Z</time>
      </trkpt>
      <trkpt lat="46.48327" lon="6.29342">
        <ele>842.59997558594</ele>
        <time>2022-03-09T14:09:37.000Z</time>
      </trkpt>
      <trkpt lat="46.48339" lon="6.29334">
        <ele>842.59997558594</ele>
        <time>2022-03-09T14:09:42.000Z</time>
      </trkpt>
      <trkpt lat="46.48356" lon="6.29307">
        <ele>842</ele>
        <time>2022-03-09T14:09:47.000Z</time>
      </trkpt>
      <trkpt lat="46.48382" lon="6.29293">
        <ele>841.79998779297</ele>
        <time>2022-03-09T14:09:52.000Z</time>
      </trkpt>
      <trkpt lat="46.48403" lon="6.29284">
        <ele>841.59997558594</ele>
        <time>2022-03-09T14:09:57.000Z</time>
      </trkpt>
      <trkpt lat="46.48406" lon="6.29284">
        <ele>841.20001220703</ele>
        <time>2022-03-09T14:09:58.000Z</time>
      </trkpt>
      <trkpt lat="46.48422" lon="6.29281">
        <ele>841.20001220703</ele>
        <time>2022-03-09T14:10:03.000Z</time>
      </trkpt>
      <trkpt lat="46.48441" lon="6.29277">
        <ele>841.20001220703</ele>
        <time>2022-03-09T14:10:08.000Z</time>
      </trkpt>
      <trkpt lat="46.48462" lon="6.29279">
        <ele>841</ele>
        <time>2022-03-09T14:10:14.000Z</time>
      </trkpt>
      <trkpt lat="46.48482" lon="6.29274">
        <ele>841</ele>
        <time>2022-03-09T14:10:20.000Z</time>
      </trkpt>
      <trkpt lat="46.48502" lon="6.29262">
        <ele>841.20001220703</ele>
        <time>2022-03-09T14:10:27.000Z</time>
      </trkpt>
      <trkpt lat="46.48528" lon="6.29249">
        <ele>842.20001220703</ele>
        <time>2022-03-09T14:10:33.000Z</time>
      </trkpt>
      <trkpt lat="46.48532" lon="6.29247">
        <ele>842.20001220703</ele>
        <time>2022-03-09T14:10:34.000Z</time>
      </trkpt>
      <trkpt lat="46.48548" lon="6.29238">
        <ele>841.59997558594</ele>
        <time>2022-03-09T14:10:40.000Z</time>
      </trkpt>
      <trkpt lat="46.48566" lon="6.29228">
        <ele>841</ele>
        <time>2022-03-09T14:10:46.000Z</time>
      </trkpt>
      <trkpt lat="46.48575" lon="6.29221">
        <ele>840</ele>
        <time>2022-03-09T14:10:49.000Z</time>
      </trkpt>
      <trkpt lat="46.48587" lon="6.29214">
        <ele>838.79998779297</ele>
        <time>2022-03-09T14:10:52.000Z</time>
      </trkpt>
      <trkpt lat="46.48591" lon="6.2921">
        <ele>838.59997558594</ele>
        <time>2022-03-09T14:10:53.000Z</time>
      </trkpt>
      <trkpt lat="46.48601" lon="6.29194">
        <ele>837.79998779297</ele>
        <time>2022-03-09T14:10:57.000Z</time>
      </trkpt>
      <trkpt lat="46.48604" lon="6.2919">
        <ele>837.40002441406</ele>
        <time>2022-03-09T14:10:58.000Z</time>
      </trkpt>
      <trkpt lat="46.48607" lon="6.2918">
        <ele>836.40002441406</ele>
        <time>2022-03-09T14:11:00.000Z</time>
      </trkpt>
      <trkpt lat="46.48609" lon="6.2917">
        <ele>835</ele>
        <time>2022-03-09T14:11:02.000Z</time>
      </trkpt>
      <trkpt lat="46.48611" lon="6.29164">
        <ele>834.59997558594</ele>
        <time>2022-03-09T14:11:03.000Z</time>
      </trkpt>
      <trkpt lat="46.48615" lon="6.2915">
        <ele>833.59997558594</ele>
        <time>2022-03-09T14:11:05.000Z</time>
      </trkpt>
      <trkpt lat="46.48623" lon="6.29132">
        <ele>832.40002441406</ele>
        <time>2022-03-09T14:11:08.000Z</time>
      </trkpt>
      <trkpt lat="46.48641" lon="6.2912">
        <ele>831.59997558594</ele>
        <time>2022-03-09T14:11:10.000Z</time>
      </trkpt>
      <trkpt lat="46.48647" lon="6.29113">
        <ele>831.20001220703</ele>
        <time>2022-03-09T14:11:11.000Z</time>
      </trkpt>
      <trkpt lat="46.48657" lon="6.291">
        <ele>830.40002441406</ele>
        <time>2022-03-09T14:11:13.000Z</time>
      </trkpt>
      <trkpt lat="46.48666" lon="6.29086">
        <ele>829.79998779297</ele>
        <time>2022-03-09T14:11:15.000Z</time>
      </trkpt>
      <trkpt lat="46.48672" lon="6.29079">
        <ele>829.40002441406</ele>
        <time>2022-03-09T14:11:16.000Z</time>
      </trkpt>
      <trkpt lat="46.4868" lon="6.29066">
        <ele>828.59997558594</ele>
        <time>2022-03-09T14:11:18.000Z</time>
      </trkpt>
      <trkpt lat="46.48682" lon="6.29061">
        <ele>828.40002441406</ele>
        <time>2022-03-09T14:11:19.000Z</time>
      </trkpt>
      <trkpt lat="46.48689" lon="6.29044">
        <ele>827.40002441406</ele>
        <time>2022-03-09T14:11:22.000Z</time>
      </trkpt>
      <trkpt lat="46.48691" lon="6.29039">
        <ele>827.20001220703</ele>
        <time>2022-03-09T14:11:23.000Z</time>
      </trkpt>
      <trkpt lat="46.48713" lon="6.29013">
        <ele>827</ele>
        <time>2022-03-09T14:11:27.000Z</time>
      </trkpt>
      <trkpt lat="46.4872" lon="6.29">
        <ele>826.40002441406</ele>
        <time>2022-03-09T14:11:29.000Z</time>
      </trkpt>
      <trkpt lat="46.48725" lon="6.28994">
        <ele>826.20001220703</ele>
        <time>2022-03-09T14:11:30.000Z</time>
      </trkpt>
      <trkpt lat="46.4873" lon="6.28987">
        <ele>825.59997558594</ele>
        <time>2022-03-09T14:11:31.000Z</time>
      </trkpt>
      <trkpt lat="46.48737" lon="6.28976">
        <ele>825.20001220703</ele>
        <time>2022-03-09T14:11:33.000Z</time>
      </trkpt>
      <trkpt lat="46.48743" lon="6.28965">
        <ele>824.40002441406</ele>
        <time>2022-03-09T14:11:36.000Z</time>
      </trkpt>
      <trkpt lat="46.4875" lon="6.28945">
        <ele>825.59997558594</ele>
        <time>2022-03-09T14:11:41.000Z</time>
      </trkpt>
      <trkpt lat="46.48757" lon="6.28922">
        <ele>826.20001220703</ele>
        <time>2022-03-09T14:11:45.000Z</time>
      </trkpt>
      <trkpt lat="46.48763" lon="6.28913">
        <ele>827.20001220703</ele>
        <time>2022-03-09T14:11:47.000Z</time>
      </trkpt>
      <trkpt lat="46.48768" lon="6.28907">
        <ele>827.40002441406</ele>
        <time>2022-03-09T14:11:48.000Z</time>
      </trkpt>
      <trkpt lat="46.48773" lon="6.28889">
        <ele>828.59997558594</ele>
        <time>2022-03-09T14:11:53.000Z</time>
      </trkpt>
      <trkpt lat="46.48776" lon="6.28872">
        <ele>829.40002441406</ele>
        <time>2022-03-09T14:11:59.000Z</time>
      </trkpt>
      <trkpt lat="46.48776" lon="6.28868">
        <ele>829.59997558594</ele>
        <time>2022-03-09T14:12:00.000Z</time>
      </trkpt>
      <trkpt lat="46.48773" lon="6.28848">
        <ele>829.79998779297</ele>
        <time>2022-03-09T14:12:05.000Z</time>
      </trkpt>
      <trkpt lat="46.48771" lon="6.28842">
        <ele>830.79998779297</ele>
        <time>2022-03-09T14:12:08.000Z</time>
      </trkpt>
      <trkpt lat="46.48767" lon="6.28831">
        <ele>831.79998779297</ele>
        <time>2022-03-09T14:12:12.000Z</time>
      </trkpt>
      <trkpt lat="46.48766" lon="6.28828">
        <ele>832</ele>
        <time>2022-03-09T14:12:13.000Z</time>
      </trkpt>
      <trkpt lat="46.48764" lon="6.28807">
        <ele>833.20001220703</ele>
        <time>2022-03-09T14:12:19.000Z</time>
      </trkpt>
      <trkpt lat="46.48762" lon="6.28796">
        <ele>834.20001220703</ele>
        <time>2022-03-09T14:12:24.000Z</time>
      </trkpt>
      <trkpt lat="46.48762" lon="6.28794">
        <ele>834.20001220703</ele>
        <time>2022-03-09T14:12:25.000Z</time>
      </trkpt>
      <trkpt lat="46.48768" lon="6.28789">
        <ele>834.40002441406</ele>
        <time>2022-03-09T14:12:32.000Z</time>
      </trkpt>
      <trkpt lat="46.4877" lon="6.28789">
        <ele>834.59997558594</ele>
        <time>2022-03-09T14:12:39.000Z</time>
      </trkpt>
      <trkpt lat="46.48773" lon="6.28793">
        <ele>834.20001220703</ele>
        <time>2022-03-09T14:12:47.000Z</time>
      </trkpt>
      <trkpt lat="46.48775" lon="6.28793">
        <ele>834.40002441406</ele>
        <time>2022-03-09T14:12:57.000Z</time>
      </trkpt>
      <trkpt lat="46.48781" lon="6.28795">
        <ele>834.59997558594</ele>
        <time>2022-03-09T14:13:06.000Z</time>
      </trkpt>
      <trkpt lat="46.4878" lon="6.28797">
        <ele>834</ele>
        <time>2022-03-09T14:13:17.000Z</time>
      </trkpt>
      <trkpt lat="46.4878" lon="6.28796">
        <ele>834.59997558594</ele>
        <time>2022-03-09T14:13:27.000Z</time>
      </trkpt>
      <trkpt lat="46.4878" lon="6.28792">
        <ele>835</ele>
        <time>2022-03-09T14:13:37.000Z</time>
      </trkpt>
      <trkpt lat="46.48778" lon="6.28793">
        <ele>835</ele>
        <time>2022-03-09T14:13:46.000Z</time>
      </trkpt>
      <trkpt lat="46.48773" lon="6.28789">
        <ele>835</ele>
        <time>2022-03-09T14:13:54.000Z</time>
      </trkpt>
      <trkpt lat="46.48772" lon="6.28787">
        <ele>835</ele>
        <time>2022-03-09T14:13:59.000Z</time>
      </trkpt>
      <trkpt lat="46.48773" lon="6.28787">
        <ele>835</ele>
        <time>2022-03-09T14:14:09.000Z</time>
      </trkpt>
      <trkpt lat="46.48771" lon="6.28789">
        <ele>835</ele>
        <time>2022-03-09T14:14:19.000Z</time>
      </trkpt>
      <trkpt lat="46.4877" lon="6.28788">
        <ele>835</ele>
        <time>2022-03-09T14:14:30.000Z</time>
      </trkpt>
      <trkpt lat="46.48769" lon="6.28785">
        <ele>835</ele>
        <time>2022-03-09T14:14:40.000Z</time>
      </trkpt>
      <trkpt lat="46.48766" lon="6.2878">
        <ele>835</ele>
        <time>2022-03-09T14:14:49.000Z</time>
      </trkpt>
      <trkpt lat="46.48766" lon="6.2878">
        <ele>835</ele>
        <time>2022-03-09T14:14:59.000Z</time>
      </trkpt>
      <trkpt lat="46.48765" lon="6.28784">
        <ele>835</ele>
        <time>2022-03-09T14:15:08.000Z</time>
      </trkpt>
      <trkpt lat="46.48761" lon="6.28787">
        <ele>835</ele>
        <time>2022-03-09T14:15:14.000Z</time>
      </trkpt>
      <trkpt lat="46.48757" lon="6.28783">
        <ele>835.40002441406</ele>
        <time>2022-03-09T14:15:18.000Z</time>
      </trkpt>
      <trkpt lat="46.48754" lon="6.28781">
        <ele>836</ele>
        <time>2022-03-09T14:15:21.000Z</time>
      </trkpt>
      <trkpt lat="46.48751" lon="6.28777">
        <ele>836.40002441406</ele>
        <time>2022-03-09T14:15:23.000Z</time>
      </trkpt>
      <trkpt lat="46.48747" lon="6.2877">
        <ele>836.59997558594</ele>
        <time>2022-03-09T14:15:26.000Z</time>
      </trkpt>
      <trkpt lat="46.48745" lon="6.28767">
        <ele>836.59997558594</ele>
        <time>2022-03-09T14:15:27.000Z</time>
      </trkpt>
      <trkpt lat="46.48738" lon="6.28757">
        <ele>837.40002441406</ele>
        <time>2022-03-09T14:15:32.000Z</time>
      </trkpt>
      <trkpt lat="46.48736" lon="6.28756">
        <ele>837.79998779297</ele>
        <time>2022-03-09T14:15:33.000Z</time>
      </trkpt>
      <trkpt lat="46.48731" lon="6.28739">
        <ele>838.40002441406</ele>
        <time>2022-03-09T14:15:39.000Z</time>
      </trkpt>
      <trkpt lat="46.48727" lon="6.28733">
        <ele>838.79998779297</ele>
        <time>2022-03-09T14:15:43.000Z</time>
      </trkpt>
      <trkpt lat="46.48726" lon="6.28729">
        <ele>839.20001220703</ele>
        <time>2022-03-09T14:15:45.000Z</time>
      </trkpt>
      <trkpt lat="46.48723" lon="6.28728">
        <ele>839.59997558594</ele>
        <time>2022-03-09T14:15:46.000Z</time>
      </trkpt>
      <trkpt lat="46.48722" lon="6.28727">
        <ele>839.79998779297</ele>
        <time>2022-03-09T14:15:48.000Z</time>
      </trkpt>
      <trkpt lat="46.48721" lon="6.28721">
        <ele>840.40002441406</ele>
        <time>2022-03-09T14:15:50.000Z</time>
      </trkpt>
      <trkpt lat="46.4872" lon="6.28717">
        <ele>840.59997558594</ele>
        <time>2022-03-09T14:15:51.000Z</time>
      </trkpt>
      <trkpt lat="46.48717" lon="6.28711">
        <ele>841</ele>
        <time>2022-03-09T14:15:53.000Z</time>
      </trkpt>
      <trkpt lat="46.48709" lon="6.28702">
        <ele>841.79998779297</ele>
        <time>2022-03-09T14:15:57.000Z</time>
      </trkpt>
      <trkpt lat="46.48707" lon="6.28701">
        <ele>842</ele>
        <time>2022-03-09T14:15:58.000Z</time>
      </trkpt>
      <trkpt lat="46.48703" lon="6.2869">
        <ele>842.40002441406</ele>
        <time>2022-03-09T14:16:03.000Z</time>
      </trkpt>
      <trkpt lat="46.487" lon="6.28683">
        <ele>843</ele>
        <time>2022-03-09T14:16:05.000Z</time>
      </trkpt>
      <trkpt lat="46.48694" lon="6.28678">
        <ele>844</ele>
        <time>2022-03-09T14:16:12.000Z</time>
      </trkpt>
      <trkpt lat="46.48692" lon="6.28678">
        <ele>844</ele>
        <time>2022-03-09T14:16:13.000Z</time>
      </trkpt>
      <trkpt lat="46.48684" lon="6.28666">
        <ele>845</ele>
        <time>2022-03-09T14:16:19.000Z</time>
      </trkpt>
      <trkpt lat="46.48681" lon="6.2866">
        <ele>845.20001220703</ele>
        <time>2022-03-09T14:16:20.000Z</time>
      </trkpt>
      <trkpt lat="46.48675" lon="6.28643">
        <ele>846.40002441406</ele>
        <time>2022-03-09T14:16:27.000Z</time>
      </trkpt>
      <trkpt lat="46.48669" lon="6.28631">
        <ele>847.40002441406</ele>
        <time>2022-03-09T14:16:33.000Z</time>
      </trkpt>
      <trkpt lat="46.48664" lon="6.28618">
        <ele>848</ele>
        <time>2022-03-09T14:16:39.000Z</time>
      </trkpt>
      <trkpt lat="46.48663" lon="6.28612">
        <ele>848.40002441406</ele>
        <time>2022-03-09T14:16:42.000Z</time>
      </trkpt>
      <trkpt lat="46.4866" lon="6.2861">
        <ele>849.20001220703</ele>
        <time>2022-03-09T14:16:46.000Z</time>
      </trkpt>
      <trkpt lat="46.48658" lon="6.28609">
        <ele>849.40002441406</ele>
        <time>2022-03-09T14:16:47.000Z</time>
      </trkpt>
      <trkpt lat="46.48653" lon="6.28604">
        <ele>850</ele>
        <time>2022-03-09T14:16:53.000Z</time>
      </trkpt>
      <trkpt lat="46.48653" lon="6.28599">
        <ele>850.59997558594</ele>
        <time>2022-03-09T14:16:58.000Z</time>
      </trkpt>
      <trkpt lat="46.48653" lon="6.28598">
        <ele>851</ele>
        <time>2022-03-09T14:17:02.000Z</time>
      </trkpt>
      <trkpt lat="46.48648" lon="6.28593">
        <ele>851.59997558594</ele>
        <time>2022-03-09T14:17:08.000Z</time>
      </trkpt>
      <trkpt lat="46.48645" lon="6.28592">
        <ele>851.79998779297</ele>
        <time>2022-03-09T14:17:10.000Z</time>
      </trkpt>
      <trkpt lat="46.48644" lon="6.28591">
        <ele>852</ele>
        <time>2022-03-09T14:17:11.000Z</time>
      </trkpt>
      <trkpt lat="46.48641" lon="6.28583">
        <ele>852.40002441406</ele>
        <time>2022-03-09T14:17:15.000Z</time>
      </trkpt>
      <trkpt lat="46.48638" lon="6.28578">
        <ele>852.79998779297</ele>
        <time>2022-03-09T14:17:17.000Z</time>
      </trkpt>
      <trkpt lat="46.48634" lon="6.28567">
        <ele>854</ele>
        <time>2022-03-09T14:17:21.000Z</time>
      </trkpt>
      <trkpt lat="46.48632" lon="6.28561">
        <ele>854.20001220703</ele>
        <time>2022-03-09T14:17:24.000Z</time>
      </trkpt>
      <trkpt lat="46.4863" lon="6.28558">
        <ele>854.40002441406</ele>
        <time>2022-03-09T14:17:25.000Z</time>
      </trkpt>
      <trkpt lat="46.48626" lon="6.28548">
        <ele>854.59997558594</ele>
        <time>2022-03-09T14:17:32.000Z</time>
      </trkpt>
      <trkpt lat="46.48622" lon="6.28544">
        <ele>855</ele>
        <time>2022-03-09T14:17:39.000Z</time>
      </trkpt>
      <trkpt lat="46.48618" lon="6.28538">
        <ele>855.40002441406</ele>
        <time>2022-03-09T14:17:46.000Z</time>
      </trkpt>
      <trkpt lat="46.48613" lon="6.2853">
        <ele>856</ele>
        <time>2022-03-09T14:17:51.000Z</time>
      </trkpt>
      <trkpt lat="46.48611" lon="6.28527">
        <ele>856</ele>
        <time>2022-03-09T14:17:53.000Z</time>
      </trkpt>
      <trkpt lat="46.48607" lon="6.28522">
        <ele>856.20001220703</ele>
        <time>2022-03-09T14:17:57.000Z</time>
      </trkpt>
      <trkpt lat="46.48605" lon="6.28522">
        <ele>856.20001220703</ele>
        <time>2022-03-09T14:17:59.000Z</time>
      </trkpt>
      <trkpt lat="46.486" lon="6.28521">
        <ele>856.40002441406</ele>
        <time>2022-03-09T14:18:05.000Z</time>
      </trkpt>
      <trkpt lat="46.48599" lon="6.2852">
        <ele>856.59997558594</ele>
        <time>2022-03-09T14:18:07.000Z</time>
      </trkpt>
      <trkpt lat="46.48598" lon="6.28518">
        <ele>856.59997558594</ele>
        <time>2022-03-09T14:18:09.000Z</time>
      </trkpt>
      <trkpt lat="46.48596" lon="6.28514">
        <ele>856.59997558594</ele>
        <time>2022-03-09T14:18:11.000Z</time>
      </trkpt>
      <trkpt lat="46.48596" lon="6.28512">
        <ele>856.59997558594</ele>
        <time>2022-03-09T14:18:12.000Z</time>
      </trkpt>
      <trkpt lat="46.48591" lon="6.28507">
        <ele>857.20001220703</ele>
        <time>2022-03-09T14:18:19.000Z</time>
      </trkpt>
      <trkpt lat="46.48587" lon="6.28504">
        <ele>857.40002441406</ele>
        <time>2022-03-09T14:18:23.000Z</time>
      </trkpt>
      <trkpt lat="46.48582" lon="6.28502">
        <ele>857.59997558594</ele>
        <time>2022-03-09T14:18:27.000Z</time>
      </trkpt>
      <trkpt lat="46.48577" lon="6.28495">
        <ele>857.79998779297</ele>
        <time>2022-03-09T14:18:32.000Z</time>
      </trkpt>
      <trkpt lat="46.48575" lon="6.28494">
        <ele>858</ele>
        <time>2022-03-09T14:18:34.000Z</time>
      </trkpt>
      <trkpt lat="46.48574" lon="6.28493">
        <ele>858</ele>
        <time>2022-03-09T14:18:35.000Z</time>
      </trkpt>
      <trkpt lat="46.48573" lon="6.28492">
        <ele>858.20001220703</ele>
        <time>2022-03-09T14:18:36.000Z</time>
      </trkpt>
      <trkpt lat="46.48565" lon="6.28491">
        <ele>858.59997558594</ele>
        <time>2022-03-09T14:18:42.000Z</time>
      </trkpt>
      <trkpt lat="46.48552" lon="6.2849">
        <ele>859.20001220703</ele>
        <time>2022-03-09T14:18:51.000Z</time>
      </trkpt>
      <trkpt lat="46.48544" lon="6.28485">
        <ele>859.79998779297</ele>
        <time>2022-03-09T14:18:59.000Z</time>
      </trkpt>
      <trkpt lat="46.48542" lon="6.28477">
        <ele>860.20001220703</ele>
        <time>2022-03-09T14:19:04.000Z</time>
      </trkpt>
      <trkpt lat="46.48541" lon="6.28477">
        <ele>860.40002441406</ele>
        <time>2022-03-09T14:19:06.000Z</time>
      </trkpt>
      <trkpt lat="46.48541" lon="6.28475">
        <ele>860.59997558594</ele>
        <time>2022-03-09T14:19:12.000Z</time>
      </trkpt>
      <trkpt lat="46.4854" lon="6.28474">
        <ele>861.20001220703</ele>
        <time>2022-03-09T14:19:20.000Z</time>
      </trkpt>
      <trkpt lat="46.48532" lon="6.28478">
        <ele>860.79998779297</ele>
        <time>2022-03-09T14:19:29.000Z</time>
      </trkpt>
      <trkpt lat="46.48537" lon="6.28478">
        <ele>860.59997558594</ele>
        <time>2022-03-09T14:19:37.000Z</time>
      </trkpt>
      <trkpt lat="46.48545" lon="6.28477">
        <ele>860.79998779297</ele>
        <time>2022-03-09T14:19:44.000Z</time>
      </trkpt>
      <trkpt lat="46.48547" lon="6.28479">
        <ele>860.59997558594</ele>
        <time>2022-03-09T14:19:53.000Z</time>
      </trkpt>
      <trkpt lat="46.48544" lon="6.28482">
        <ele>860.59997558594</ele>
        <time>2022-03-09T14:20:01.000Z</time>
      </trkpt>
      <trkpt lat="46.48545" lon="6.28479">
        <ele>860.40002441406</ele>
        <time>2022-03-09T14:20:11.000Z</time>
      </trkpt>
      <trkpt lat="46.48541" lon="6.28478">
        <ele>860.40002441406</ele>
        <time>2022-03-09T14:20:19.000Z</time>
      </trkpt>
      <trkpt lat="46.4854" lon="6.28477">
        <ele>860.79998779297</ele>
        <time>2022-03-09T14:20:27.000Z</time>
      </trkpt>
      <trkpt lat="46.48538" lon="6.28476">
        <ele>860.59997558594</ele>
        <time>2022-03-09T14:20:33.000Z</time>
      </trkpt>
      <trkpt lat="46.48538" lon="6.28475">
        <ele>860.59997558594</ele>
        <time>2022-03-09T14:20:40.000Z</time>
      </trkpt>
      <trkpt lat="46.48539" lon="6.28472">
        <ele>861</ele>
        <time>2022-03-09T14:20:50.000Z</time>
      </trkpt>
      <trkpt lat="46.4854" lon="6.28471">
        <ele>861.20001220703</ele>
        <time>2022-03-09T14:20:59.000Z</time>
      </trkpt>
      <trkpt lat="46.48538" lon="6.28471">
        <ele>861.40002441406</ele>
        <time>2022-03-09T14:21:02.000Z</time>
      </trkpt>
      <trkpt lat="46.48537" lon="6.2847">
        <ele>861.40002441406</ele>
        <time>2022-03-09T14:21:06.000Z</time>
      </trkpt>
      <trkpt lat="46.48538" lon="6.28471">
        <ele>861.40002441406</ele>
        <time>2022-03-09T14:21:14.000Z</time>
      </trkpt>
      <trkpt lat="46.48538" lon="6.28472">
        <ele>861.40002441406</ele>
        <time>2022-03-09T14:21:21.000Z</time>
      </trkpt>
      <trkpt lat="46.48538" lon="6.28472">
        <ele>861.40002441406</ele>
        <time>2022-03-09T14:21:25.000Z</time>
      </trkpt>
      <trkpt lat="46.48543" lon="6.2847">
        <ele>861.20001220703</ele>
        <time>2022-03-09T14:21:32.000Z</time>
      </trkpt>
      <trkpt lat="46.48549" lon="6.28464">
        <ele>860.40002441406</ele>
        <time>2022-03-09T14:21:37.000Z</time>
      </trkpt>
      <trkpt lat="46.48551" lon="6.28467">
        <ele>860.40002441406</ele>
        <time>2022-03-09T14:21:38.000Z</time>
      </trkpt>
      <trkpt lat="46.48555" lon="6.28472">
        <ele>860</ele>
        <time>2022-03-09T14:21:40.000Z</time>
      </trkpt>
      <trkpt lat="46.48558" lon="6.28475">
        <ele>859.79998779297</ele>
        <time>2022-03-09T14:21:41.000Z</time>
      </trkpt>
      <trkpt lat="46.48566" lon="6.28481">
        <ele>859.40002441406</ele>
        <time>2022-03-09T14:21:44.000Z</time>
      </trkpt>
      <trkpt lat="46.48572" lon="6.28482">
        <ele>858.79998779297</ele>
        <time>2022-03-09T14:21:46.000Z</time>
      </trkpt>
      <trkpt lat="46.48581" lon="6.28482">
        <ele>858.20001220703</ele>
        <time>2022-03-09T14:21:48.000Z</time>
      </trkpt>
      <trkpt lat="46.48589" lon="6.28488">
        <ele>857.79998779297</ele>
        <time>2022-03-09T14:21:50.000Z</time>
      </trkpt>
      <trkpt lat="46.48601" lon="6.28498">
        <ele>857.40002441406</ele>
        <time>2022-03-09T14:21:55.000Z</time>
      </trkpt>
      <trkpt lat="46.48606" lon="6.28501">
        <ele>857.20001220703</ele>
        <time>2022-03-09T14:21:57.000Z</time>
      </trkpt>
      <trkpt lat="46.48616" lon="6.28512">
        <ele>857.20001220703</ele>
        <time>2022-03-09T14:22:02.000Z</time>
      </trkpt>
      <trkpt lat="46.48636" lon="6.28517">
        <ele>857.20001220703</ele>
        <time>2022-03-09T14:22:05.000Z</time>
      </trkpt>
      <trkpt lat="46.48636" lon="6.28517">
        <ele>856.59997558594</ele>
        <time>2022-03-09T14:22:06.000Z</time>
      </trkpt>
      <trkpt lat="46.48645" lon="6.28523">
        <ele>856.20001220703</ele>
        <time>2022-03-09T14:22:08.000Z</time>
      </trkpt>
      <trkpt lat="46.48655" lon="6.28535">
        <ele>856</ele>
        <time>2022-03-09T14:22:11.000Z</time>
      </trkpt>
      <trkpt lat="46.48665" lon="6.28544">
        <ele>854.79998779297</ele>
        <time>2022-03-09T14:22:14.000Z</time>
      </trkpt>
      <trkpt lat="46.48669" lon="6.28546">
        <ele>854.40002441406</ele>
        <time>2022-03-09T14:22:15.000Z</time>
      </trkpt>
      <trkpt lat="46.48677" lon="6.28549">
        <ele>853.59997558594</ele>
        <time>2022-03-09T14:22:17.000Z</time>
      </trkpt>
      <trkpt lat="46.4868" lon="6.28552">
        <ele>853</ele>
        <time>2022-03-09T14:22:18.000Z</time>
      </trkpt>
      <trkpt lat="46.48682" lon="6.28554">
        <ele>852.79998779297</ele>
        <time>2022-03-09T14:22:19.000Z</time>
      </trkpt>
      <trkpt lat="46.48684" lon="6.28558">
        <ele>852.59997558594</ele>
        <time>2022-03-09T14:22:21.000Z</time>
      </trkpt>
      <trkpt lat="46.48686" lon="6.28564">
        <ele>852</ele>
        <time>2022-03-09T14:22:24.000Z</time>
      </trkpt>
      <trkpt lat="46.48685" lon="6.28569">
        <ele>851.40002441406</ele>
        <time>2022-03-09T14:22:26.000Z</time>
      </trkpt>
      <trkpt lat="46.48682" lon="6.28579">
        <ele>850.40002441406</ele>
        <time>2022-03-09T14:22:28.000Z</time>
      </trkpt>
      <trkpt lat="46.48673" lon="6.28604">
        <ele>850</ele>
        <time>2022-03-09T14:22:32.000Z</time>
      </trkpt>
      <trkpt lat="46.48675" lon="6.28609">
        <ele>849.79998779297</ele>
        <time>2022-03-09T14:22:33.000Z</time>
      </trkpt>
      <trkpt lat="46.48676" lon="6.28611">
        <ele>849.59997558594</ele>
        <time>2022-03-09T14:22:34.000Z</time>
      </trkpt>
      <trkpt lat="46.48683" lon="6.28616">
        <ele>849.20001220703</ele>
        <time>2022-03-09T14:22:36.000Z</time>
      </trkpt>
      <trkpt lat="46.48695" lon="6.28615">
        <ele>847.79998779297</ele>
        <time>2022-03-09T14:22:40.000Z</time>
      </trkpt>
      <trkpt lat="46.4871" lon="6.2862">
        <ele>846.59997558594</ele>
        <time>2022-03-09T14:22:44.000Z</time>
      </trkpt>
      <trkpt lat="46.48712" lon="6.28622">
        <ele>846.20001220703</ele>
        <time>2022-03-09T14:22:45.000Z</time>
      </trkpt>
      <trkpt lat="46.4873" lon="6.28627">
        <ele>845.59997558594</ele>
        <time>2022-03-09T14:22:48.000Z</time>
      </trkpt>
      <trkpt lat="46.48743" lon="6.28634">
        <ele>845</ele>
        <time>2022-03-09T14:22:50.000Z</time>
      </trkpt>
      <trkpt lat="46.48755" lon="6.28641">
        <ele>844.40002441406</ele>
        <time>2022-03-09T14:22:52.000Z</time>
      </trkpt>
      <trkpt lat="46.48764" lon="6.28642">
        <ele>844</ele>
        <time>2022-03-09T14:22:54.000Z</time>
      </trkpt>
      <trkpt lat="46.4877" lon="6.28641">
        <ele>843.59997558594</ele>
        <time>2022-03-09T14:22:55.000Z</time>
      </trkpt>
      <trkpt lat="46.48776" lon="6.28643">
        <ele>843.40002441406</ele>
        <time>2022-03-09T14:22:56.000Z</time>
      </trkpt>
      <trkpt lat="46.48783" lon="6.2865">
        <ele>842.59997558594</ele>
        <time>2022-03-09T14:22:58.000Z</time>
      </trkpt>
      <trkpt lat="46.48794" lon="6.28657">
        <ele>842.40002441406</ele>
        <time>2022-03-09T14:23:02.000Z</time>
      </trkpt>
      <trkpt lat="46.48798" lon="6.28658">
        <ele>842.20001220703</ele>
        <time>2022-03-09T14:23:04.000Z</time>
      </trkpt>
      <trkpt lat="46.4881" lon="6.28661">
        <ele>841.20001220703</ele>
        <time>2022-03-09T14:23:07.000Z</time>
      </trkpt>
      <trkpt lat="46.48813" lon="6.28662">
        <ele>841</ele>
        <time>2022-03-09T14:23:08.000Z</time>
      </trkpt>
      <trkpt lat="46.4882" lon="6.28667">
        <ele>839.59997558594</ele>
        <time>2022-03-09T14:23:11.000Z</time>
      </trkpt>
      <trkpt lat="46.48821" lon="6.28668">
        <ele>839</ele>
        <time>2022-03-09T14:23:12.000Z</time>
      </trkpt>
      <trkpt lat="46.48824" lon="6.28665">
        <ele>838.40002441406</ele>
        <time>2022-03-09T14:23:14.000Z</time>
      </trkpt>
      <trkpt lat="46.48827" lon="6.28664">
        <ele>838.20001220703</ele>
        <time>2022-03-09T14:23:15.000Z</time>
      </trkpt>
      <trkpt lat="46.4883" lon="6.28666">
        <ele>837.79998779297</ele>
        <time>2022-03-09T14:23:17.000Z</time>
      </trkpt>
      <trkpt lat="46.48835" lon="6.28667">
        <ele>837.20001220703</ele>
        <time>2022-03-09T14:23:19.000Z</time>
      </trkpt>
      <trkpt lat="46.48843" lon="6.28672">
        <ele>835.40002441406</ele>
        <time>2022-03-09T14:23:21.000Z</time>
      </trkpt>
      <trkpt lat="46.48847" lon="6.28674">
        <ele>833.79998779297</ele>
        <time>2022-03-09T14:23:22.000Z</time>
      </trkpt>
      <trkpt lat="46.48853" lon="6.28676">
        <ele>833</ele>
        <time>2022-03-09T14:23:23.000Z</time>
      </trkpt>
      <trkpt lat="46.4886" lon="6.28679">
        <ele>832.40002441406</ele>
        <time>2022-03-09T14:23:24.000Z</time>
      </trkpt>
      <trkpt lat="46.48864" lon="6.28683">
        <ele>832.20001220703</ele>
        <time>2022-03-09T14:23:25.000Z</time>
      </trkpt>
      <trkpt lat="46.48869" lon="6.28689">
        <ele>831.79998779297</ele>
        <time>2022-03-09T14:23:27.000Z</time>
      </trkpt>
      <trkpt lat="46.4887" lon="6.28687">
        <ele>831.59997558594</ele>
        <time>2022-03-09T14:23:28.000Z</time>
      </trkpt>
      <trkpt lat="46.48871" lon="6.28685">
        <ele>831.40002441406</ele>
        <time>2022-03-09T14:23:29.000Z</time>
      </trkpt>
      <trkpt lat="46.48881" lon="6.28683">
        <ele>830.40002441406</ele>
        <time>2022-03-09T14:23:32.000Z</time>
      </trkpt>
      <trkpt lat="46.48883" lon="6.28683">
        <ele>829.79998779297</ele>
        <time>2022-03-09T14:23:33.000Z</time>
      </trkpt>
      <trkpt lat="46.48898" lon="6.28687">
        <ele>829.20001220703</ele>
        <time>2022-03-09T14:23:38.000Z</time>
      </trkpt>
      <trkpt lat="46.48899" lon="6.28686">
        <ele>829</ele>
        <time>2022-03-09T14:23:39.000Z</time>
      </trkpt>
      <trkpt lat="46.48906" lon="6.28681">
        <ele>828.79998779297</ele>
        <time>2022-03-09T14:23:48.000Z</time>
      </trkpt>
      <trkpt lat="46.48911" lon="6.28681">
        <ele>828.79998779297</ele>
        <time>2022-03-09T14:23:57.000Z</time>
      </trkpt>
      <trkpt lat="46.48913" lon="6.28682">
        <ele>828.59997558594</ele>
        <time>2022-03-09T14:24:08.000Z</time>
      </trkpt>
      <trkpt lat="46.48918" lon="6.28689">
        <ele>828.59997558594</ele>
        <time>2022-03-09T14:24:18.000Z</time>
      </trkpt>
      <trkpt lat="46.48918" lon="6.2869">
        <ele>828.40002441406</ele>
        <time>2022-03-09T14:24:27.000Z</time>
      </trkpt>
      <trkpt lat="46.48919" lon="6.28689">
        <ele>828.59997558594</ele>
        <time>2022-03-09T14:24:36.000Z</time>
      </trkpt>
      <trkpt lat="46.48917" lon="6.28683">
        <ele>828.59997558594</ele>
        <time>2022-03-09T14:24:46.000Z</time>
      </trkpt>
      <trkpt lat="46.48916" lon="6.28683">
        <ele>828.40002441406</ele>
        <time>2022-03-09T14:24:56.000Z</time>
      </trkpt>
      <trkpt lat="46.48918" lon="6.28684">
        <ele>829</ele>
        <time>2022-03-09T14:25:07.000Z</time>
      </trkpt>
      <trkpt lat="46.48924" lon="6.28689">
        <ele>828.79998779297</ele>
        <time>2022-03-09T14:25:18.000Z</time>
      </trkpt>
      <trkpt lat="46.48924" lon="6.28691">
        <ele>828.79998779297</ele>
        <time>2022-03-09T14:25:26.000Z</time>
      </trkpt>
      <trkpt lat="46.48925" lon="6.28704">
        <ele>828.40002441406</ele>
        <time>2022-03-09T14:25:35.000Z</time>
      </trkpt>
      <trkpt lat="46.48924" lon="6.28709">
        <ele>828.59997558594</ele>
        <time>2022-03-09T14:25:43.000Z</time>
      </trkpt>
      <trkpt lat="46.48925" lon="6.2871">
        <ele>828.40002441406</ele>
        <time>2022-03-09T14:25:44.000Z</time>
      </trkpt>
      <trkpt lat="46.4893" lon="6.28708">
        <ele>828</ele>
        <time>2022-03-09T14:25:47.000Z</time>
      </trkpt>
      <trkpt lat="46.48932" lon="6.28709">
        <ele>827.40002441406</ele>
        <time>2022-03-09T14:25:48.000Z</time>
      </trkpt>
      <trkpt lat="46.48937" lon="6.28713">
        <ele>826.79998779297</ele>
        <time>2022-03-09T14:25:50.000Z</time>
      </trkpt>
      <trkpt lat="46.48939" lon="6.28715">
        <ele>825.59997558594</ele>
        <time>2022-03-09T14:25:52.000Z</time>
      </trkpt>
      <trkpt lat="46.4894" lon="6.28715">
        <ele>825.20001220703</ele>
        <time>2022-03-09T14:25:53.000Z</time>
      </trkpt>
      <trkpt lat="46.48942" lon="6.28713">
        <ele>824.59997558594</ele>
        <time>2022-03-09T14:25:55.000Z</time>
      </trkpt>
      <trkpt lat="46.48945" lon="6.28713">
        <ele>824.20001220703</ele>
        <time>2022-03-09T14:25:56.000Z</time>
      </trkpt>
      <trkpt lat="46.48947" lon="6.28713">
        <ele>823</ele>
        <time>2022-03-09T14:25:57.000Z</time>
      </trkpt>
      <trkpt lat="46.4895" lon="6.28715">
        <ele>821.79998779297</ele>
        <time>2022-03-09T14:25:58.000Z</time>
      </trkpt>
      <trkpt lat="46.48952" lon="6.28718">
        <ele>820.79998779297</ele>
        <time>2022-03-09T14:25:59.000Z</time>
      </trkpt>
      <trkpt lat="46.48954" lon="6.28721">
        <ele>820.20001220703</ele>
        <time>2022-03-09T14:26:00.000Z</time>
      </trkpt>
      <trkpt lat="46.48957" lon="6.28725">
        <ele>819.59997558594</ele>
        <time>2022-03-09T14:26:01.000Z</time>
      </trkpt>
      <trkpt lat="46.48963" lon="6.28735">
        <ele>819</ele>
        <time>2022-03-09T14:26:04.000Z</time>
      </trkpt>
      <trkpt lat="46.48968" lon="6.28741">
        <ele>819</ele>
        <time>2022-03-09T14:26:05.000Z</time>
      </trkpt>
      <trkpt lat="46.4897" lon="6.28744">
        <ele>818.40002441406</ele>
        <time>2022-03-09T14:26:07.000Z</time>
      </trkpt>
      <trkpt lat="46.48974" lon="6.28746">
        <ele>818.20001220703</ele>
        <time>2022-03-09T14:26:08.000Z</time>
      </trkpt>
      <trkpt lat="46.48976" lon="6.2875">
        <ele>816.59997558594</ele>
        <time>2022-03-09T14:26:09.000Z</time>
      </trkpt>
      <trkpt lat="46.48977" lon="6.2875">
        <ele>815.20001220703</ele>
        <time>2022-03-09T14:26:11.000Z</time>
      </trkpt>
      <trkpt lat="46.48978" lon="6.28749">
        <ele>814.59997558594</ele>
        <time>2022-03-09T14:26:12.000Z</time>
      </trkpt>
      <trkpt lat="46.48979" lon="6.28748">
        <ele>813.40002441406</ele>
        <time>2022-03-09T14:26:13.000Z</time>
      </trkpt>
      <trkpt lat="46.4898" lon="6.28749">
        <ele>812.79998779297</ele>
        <time>2022-03-09T14:26:14.000Z</time>
      </trkpt>
      <trkpt lat="46.48981" lon="6.28749">
        <ele>812.20001220703</ele>
        <time>2022-03-09T14:26:15.000Z</time>
      </trkpt>
      <trkpt lat="46.48982" lon="6.28748">
        <ele>811.20001220703</ele>
        <time>2022-03-09T14:26:16.000Z</time>
      </trkpt>
      <trkpt lat="46.48983" lon="6.28746">
        <ele>810.40002441406</ele>
        <time>2022-03-09T14:26:17.000Z</time>
      </trkpt>
      <trkpt lat="46.48986" lon="6.28745">
        <ele>809.20001220703</ele>
        <time>2022-03-09T14:26:18.000Z</time>
      </trkpt>
      <trkpt lat="46.4899" lon="6.28745">
        <ele>808</ele>
        <time>2022-03-09T14:26:19.000Z</time>
      </trkpt>
      <trkpt lat="46.48991" lon="6.28744">
        <ele>806.40002441406</ele>
        <time>2022-03-09T14:26:20.000Z</time>
      </trkpt>
      <trkpt lat="46.48992" lon="6.28743">
        <ele>805</ele>
        <time>2022-03-09T14:26:21.000Z</time>
      </trkpt>
      <trkpt lat="46.48994" lon="6.28741">
        <ele>804.20001220703</ele>
        <time>2022-03-09T14:26:22.000Z</time>
      </trkpt>
      <trkpt lat="46.48996" lon="6.28741">
        <ele>803.79998779297</ele>
        <time>2022-03-09T14:26:23.000Z</time>
      </trkpt>
      <trkpt lat="46.49001" lon="6.28741">
        <ele>802.20001220703</ele>
        <time>2022-03-09T14:26:25.000Z</time>
      </trkpt>
      <trkpt lat="46.49007" lon="6.28745">
        <ele>801</ele>
        <time>2022-03-09T14:26:27.000Z</time>
      </trkpt>
      <trkpt lat="46.4901" lon="6.28745">
        <ele>800.59997558594</ele>
        <time>2022-03-09T14:26:28.000Z</time>
      </trkpt>
      <trkpt lat="46.49015" lon="6.28743">
        <ele>799.20001220703</ele>
        <time>2022-03-09T14:26:30.000Z</time>
      </trkpt>
      <trkpt lat="46.49024" lon="6.28742">
        <ele>798.20001220703</ele>
        <time>2022-03-09T14:26:32.000Z</time>
      </trkpt>
      <trkpt lat="46.4903" lon="6.28742">
        <ele>797.20001220703</ele>
        <time>2022-03-09T14:26:33.000Z</time>
      </trkpt>
      <trkpt lat="46.49043" lon="6.28744">
        <ele>796.40002441406</ele>
        <time>2022-03-09T14:26:35.000Z</time>
      </trkpt>
      <trkpt lat="46.49048" lon="6.28748">
        <ele>796.20001220703</ele>
        <time>2022-03-09T14:26:37.000Z</time>
      </trkpt>
      <trkpt lat="46.49052" lon="6.28749">
        <ele>796</ele>
        <time>2022-03-09T14:26:38.000Z</time>
      </trkpt>
      <trkpt lat="46.49055" lon="6.28747">
        <ele>795.59997558594</ele>
        <time>2022-03-09T14:26:40.000Z</time>
      </trkpt>
      <trkpt lat="46.49057" lon="6.28746">
        <ele>795</ele>
        <time>2022-03-09T14:26:41.000Z</time>
      </trkpt>
      <trkpt lat="46.49062" lon="6.28745">
        <ele>794.59997558594</ele>
        <time>2022-03-09T14:26:42.000Z</time>
      </trkpt>
      <trkpt lat="46.49069" lon="6.28748">
        <ele>794.20001220703</ele>
        <time>2022-03-09T14:26:45.000Z</time>
      </trkpt>
      <trkpt lat="46.49086" lon="6.28752">
        <ele>794</ele>
        <time>2022-03-09T14:26:50.000Z</time>
      </trkpt>
      <trkpt lat="46.49089" lon="6.28752">
        <ele>794</ele>
        <time>2022-03-09T14:26:51.000Z</time>
      </trkpt>
      <trkpt lat="46.49099" lon="6.28757">
        <ele>794.20001220703</ele>
        <time>2022-03-09T14:26:57.000Z</time>
      </trkpt>
      <trkpt lat="46.49105" lon="6.28757">
        <ele>793.79998779297</ele>
        <time>2022-03-09T14:27:07.000Z</time>
      </trkpt>
      <trkpt lat="46.49106" lon="6.28759">
        <ele>794</ele>
        <time>2022-03-09T14:27:15.000Z</time>
      </trkpt>
      <trkpt lat="46.49106" lon="6.28761">
        <ele>794</ele>
        <time>2022-03-09T14:27:23.000Z</time>
      </trkpt>
      <trkpt lat="46.49103" lon="6.28766">
        <ele>794</ele>
        <time>2022-03-09T14:27:31.000Z</time>
      </trkpt>
      <trkpt lat="46.49102" lon="6.28767">
        <ele>794</ele>
        <time>2022-03-09T14:27:39.000Z</time>
      </trkpt>
      <trkpt lat="46.49103" lon="6.2877">
        <ele>794</ele>
        <time>2022-03-09T14:27:47.000Z</time>
      </trkpt>
      <trkpt lat="46.49103" lon="6.28771">
        <ele>794</ele>
        <time>2022-03-09T14:27:55.000Z</time>
      </trkpt>
      <trkpt lat="46.49105" lon="6.28768">
        <ele>794</ele>
        <time>2022-03-09T14:28:04.000Z</time>
      </trkpt>
      <trkpt lat="46.49105" lon="6.28757">
        <ele>794</ele>
        <time>2022-03-09T14:28:12.000Z</time>
      </trkpt>
      <trkpt lat="46.49105" lon="6.28757">
        <ele>794</ele>
        <time>2022-03-09T14:28:20.000Z</time>
      </trkpt>
      <trkpt lat="46.49104" lon="6.2876">
        <ele>794</ele>
        <time>2022-03-09T14:28:30.000Z</time>
      </trkpt>
      <trkpt lat="46.49108" lon="6.28761">
        <ele>794</ele>
        <time>2022-03-09T14:28:40.000Z</time>
      </trkpt>
      <trkpt lat="46.49108" lon="6.28755">
        <ele>794</ele>
        <time>2022-03-09T14:28:46.000Z</time>
      </trkpt>
      <trkpt lat="46.49108" lon="6.28756">
        <ele>794</ele>
        <time>2022-03-09T14:28:53.000Z</time>
      </trkpt>
      <trkpt lat="46.49111" lon="6.28759">
        <ele>794</ele>
        <time>2022-03-09T14:29:02.000Z</time>
      </trkpt>
      <trkpt lat="46.4911" lon="6.2876">
        <ele>794</ele>
        <time>2022-03-09T14:29:10.000Z</time>
      </trkpt>
      <trkpt lat="46.49109" lon="6.28758">
        <ele>794</ele>
        <time>2022-03-09T14:29:17.000Z</time>
      </trkpt>
      <trkpt lat="46.49112" lon="6.28761">
        <ele>794</ele>
        <time>2022-03-09T14:29:24.000Z</time>
      </trkpt>
      <trkpt lat="46.49112" lon="6.28763">
        <ele>794</ele>
        <time>2022-03-09T14:29:34.000Z</time>
      </trkpt>
      <trkpt lat="46.49112" lon="6.28764">
        <ele>794</ele>
        <time>2022-03-09T14:29:43.000Z</time>
      </trkpt>
      <trkpt lat="46.49113" lon="6.28764">
        <ele>794</ele>
        <time>2022-03-09T14:29:53.000Z</time>
      </trkpt>
      <trkpt lat="46.49114" lon="6.28763">
        <ele>794</ele>
        <time>2022-03-09T14:29:55.000Z</time>
      </trkpt>
      <trkpt lat="46.49118" lon="6.28758">
        <ele>794</ele>
        <time>2022-03-09T14:29:58.000Z</time>
      </trkpt>
      <trkpt lat="46.49118" lon="6.28755">
        <ele>792.79998779297</ele>
        <time>2022-03-09T14:29:59.000Z</time>
      </trkpt>
      <trkpt lat="46.49122" lon="6.28748">
        <ele>791.40002441406</ele>
        <time>2022-03-09T14:30:01.000Z</time>
      </trkpt>
      <trkpt lat="46.49123" lon="6.28739">
        <ele>789.59997558594</ele>
        <time>2022-03-09T14:30:03.000Z</time>
      </trkpt>
      <trkpt lat="46.49124" lon="6.28738">
        <ele>788.40002441406</ele>
        <time>2022-03-09T14:30:04.000Z</time>
      </trkpt>
      <trkpt lat="46.49126" lon="6.28735">
        <ele>786.79998779297</ele>
        <time>2022-03-09T14:30:06.000Z</time>
      </trkpt>
      <trkpt lat="46.49127" lon="6.28734">
        <ele>785.59997558594</ele>
        <time>2022-03-09T14:30:07.000Z</time>
      </trkpt>
      <trkpt lat="46.49128" lon="6.28732">
        <ele>784.79998779297</ele>
        <time>2022-03-09T14:30:08.000Z</time>
      </trkpt>
      <trkpt lat="46.49129" lon="6.28731">
        <ele>784.40002441406</ele>
        <time>2022-03-09T14:30:09.000Z</time>
      </trkpt>
      <trkpt lat="46.4913" lon="6.28727">
        <ele>783.40002441406</ele>
        <time>2022-03-09T14:30:16.000Z</time>
      </trkpt>
      <trkpt lat="46.49129" lon="6.28725">
        <ele>783.20001220703</ele>
        <time>2022-03-09T14:30:22.000Z</time>
      </trkpt>
      <trkpt lat="46.49129" lon="6.28721">
        <ele>783</ele>
        <time>2022-03-09T14:30:25.000Z</time>
      </trkpt>
      <trkpt lat="46.49129" lon="6.28719">
        <ele>782.59997558594</ele>
        <time>2022-03-09T14:30:26.000Z</time>
      </trkpt>
      <trkpt lat="46.49128" lon="6.28714">
        <ele>781.59997558594</ele>
        <time>2022-03-09T14:30:28.000Z</time>
      </trkpt>
      <trkpt lat="46.49128" lon="6.28712">
        <ele>780.79998779297</ele>
        <time>2022-03-09T14:30:31.000Z</time>
      </trkpt>
      <trkpt lat="46.49131" lon="6.28711">
        <ele>780.59997558594</ele>
        <time>2022-03-09T14:30:40.000Z</time>
      </trkpt>
      <trkpt lat="46.49133" lon="6.28711">
        <ele>780.40002441406</ele>
        <time>2022-03-09T14:30:43.000Z</time>
      </trkpt>
      <trkpt lat="46.49136" lon="6.28711">
        <ele>780.40002441406</ele>
        <time>2022-03-09T14:30:47.000Z</time>
      </trkpt>
      <trkpt lat="46.4914" lon="6.28712">
        <ele>780.59997558594</ele>
        <time>2022-03-09T14:30:53.000Z</time>
      </trkpt>
      <trkpt lat="46.49142" lon="6.28712">
        <ele>780.40002441406</ele>
        <time>2022-03-09T14:31:01.000Z</time>
      </trkpt>
      <trkpt lat="46.49142" lon="6.28713">
        <ele>781</ele>
        <time>2022-03-09T14:31:10.000Z</time>
      </trkpt>
      <trkpt lat="46.49142" lon="6.28709">
        <ele>780.40002441406</ele>
        <time>2022-03-09T14:31:20.000Z</time>
      </trkpt>
      <trkpt lat="46.4915" lon="6.28707">
        <ele>780.20001220703</ele>
        <time>2022-03-09T14:31:27.000Z</time>
      </trkpt>
      <trkpt lat="46.49154" lon="6.28711">
        <ele>780.59997558594</ele>
        <time>2022-03-09T14:31:35.000Z</time>
      </trkpt>
      <trkpt lat="46.49153" lon="6.28711">
        <ele>780.20001220703</ele>
        <time>2022-03-09T14:31:42.000Z</time>
      </trkpt>
      <trkpt lat="46.49151" lon="6.28712">
        <ele>780.40002441406</ele>
        <time>2022-03-09T14:31:46.000Z</time>
      </trkpt>
      <trkpt lat="46.49149" lon="6.28712">
        <ele>780.20001220703</ele>
        <time>2022-03-09T14:31:49.000Z</time>
      </trkpt>
      <trkpt lat="46.49149" lon="6.28708">
        <ele>780.40002441406</ele>
        <time>2022-03-09T14:31:56.000Z</time>
      </trkpt>
      <trkpt lat="46.49146" lon="6.28703">
        <ele>780</ele>
        <time>2022-03-09T14:32:03.000Z</time>
      </trkpt>
      <trkpt lat="46.49146" lon="6.28706">
        <ele>779.79998779297</ele>
        <time>2022-03-09T14:32:09.000Z</time>
      </trkpt>
      <trkpt lat="46.49137" lon="6.28705">
        <ele>780.20001220703</ele>
        <time>2022-03-09T14:32:14.000Z</time>
      </trkpt>
      <trkpt lat="46.49136" lon="6.28706">
        <ele>780.20001220703</ele>
        <time>2022-03-09T14:32:22.000Z</time>
      </trkpt>
      <trkpt lat="46.49138" lon="6.28708">
        <ele>780.20001220703</ele>
        <time>2022-03-09T14:32:31.000Z</time>
      </trkpt>
      <trkpt lat="46.49135" lon="6.28705">
        <ele>779.79998779297</ele>
        <time>2022-03-09T14:32:38.000Z</time>
      </trkpt>
      <trkpt lat="46.49137" lon="6.28704">
        <ele>780</ele>
        <time>2022-03-09T14:32:45.000Z</time>
      </trkpt>
      <trkpt lat="46.49145" lon="6.28709">
        <ele>779.40002441406</ele>
        <time>2022-03-09T14:32:53.000Z</time>
      </trkpt>
      <trkpt lat="46.49144" lon="6.28708">
        <ele>779.40002441406</ele>
        <time>2022-03-09T14:32:54.000Z</time>
      </trkpt>
      <trkpt lat="46.49151" lon="6.28713">
        <ele>779.59997558594</ele>
        <time>2022-03-09T14:33:03.000Z</time>
      </trkpt>
      <trkpt lat="46.4915" lon="6.28715">
        <ele>779.79998779297</ele>
        <time>2022-03-09T14:33:11.000Z</time>
      </trkpt>
      <trkpt lat="46.49144" lon="6.28714">
        <ele>780.59997558594</ele>
        <time>2022-03-09T14:33:18.000Z</time>
      </trkpt>
      <trkpt lat="46.4914" lon="6.28715">
        <ele>780.59997558594</ele>
        <time>2022-03-09T14:33:20.000Z</time>
      </trkpt>
      <trkpt lat="46.49141" lon="6.28715">
        <ele>780</ele>
        <time>2022-03-09T14:33:26.000Z</time>
      </trkpt>
      <trkpt lat="46.49145" lon="6.28714">
        <ele>779.79998779297</ele>
        <time>2022-03-09T14:33:33.000Z</time>
      </trkpt>
      <trkpt lat="46.49151" lon="6.28717">
        <ele>779.59997558594</ele>
        <time>2022-03-09T14:33:41.000Z</time>
      </trkpt>
      <trkpt lat="46.49151" lon="6.28716">
        <ele>779.40002441406</ele>
        <time>2022-03-09T14:33:42.000Z</time>
      </trkpt>
      <trkpt lat="46.49152" lon="6.28718">
        <ele>779.40002441406</ele>
        <time>2022-03-09T14:33:49.000Z</time>
      </trkpt>
      <trkpt lat="46.49148" lon="6.28711">
        <ele>779</ele>
        <time>2022-03-09T14:33:57.000Z</time>
      </trkpt>
      <trkpt lat="46.49144" lon="6.28705">
        <ele>779</ele>
        <time>2022-03-09T14:34:04.000Z</time>
      </trkpt>
      <trkpt lat="46.49143" lon="6.28699">
        <ele>779</ele>
        <time>2022-03-09T14:34:10.000Z</time>
      </trkpt>
      <trkpt lat="46.49142" lon="6.287">
        <ele>779</ele>
        <time>2022-03-09T14:34:16.000Z</time>
      </trkpt>
      <trkpt lat="46.49143" lon="6.28699">
        <ele>779</ele>
        <time>2022-03-09T14:34:23.000Z</time>
      </trkpt>
      <trkpt lat="46.49145" lon="6.28694">
        <ele>779</ele>
        <time>2022-03-09T14:34:32.000Z</time>
      </trkpt>
      <trkpt lat="46.49146" lon="6.28692">
        <ele>779</ele>
        <time>2022-03-09T14:34:37.000Z</time>
      </trkpt>
      <trkpt lat="46.49147" lon="6.28691">
        <ele>779</ele>
        <time>2022-03-09T14:34:38.000Z</time>
      </trkpt>
      <trkpt lat="46.4915" lon="6.28686">
        <ele>776</ele>
        <time>2022-03-09T14:34:41.000Z</time>
      </trkpt>
      <trkpt lat="46.4915" lon="6.28683">
        <ele>773.79998779297</ele>
        <time>2022-03-09T14:34:42.000Z</time>
      </trkpt>
      <trkpt lat="46.49149" lon="6.2868">
        <ele>772.59997558594</ele>
        <time>2022-03-09T14:34:43.000Z</time>
      </trkpt>
      <trkpt lat="46.49147" lon="6.28674">
        <ele>771</ele>
        <time>2022-03-09T14:34:44.000Z</time>
      </trkpt>
      <trkpt lat="46.49146" lon="6.28672">
        <ele>769.40002441406</ele>
        <time>2022-03-09T14:34:46.000Z</time>
      </trkpt>
      <trkpt lat="46.49146" lon="6.28669">
        <ele>768.59997558594</ele>
        <time>2022-03-09T14:34:48.000Z</time>
      </trkpt>
      <trkpt lat="46.49146" lon="6.28668">
        <ele>768.40002441406</ele>
        <time>2022-03-09T14:34:49.000Z</time>
      </trkpt>
      <trkpt lat="46.49146" lon="6.28664">
        <ele>767.40002441406</ele>
        <time>2022-03-09T14:34:54.000Z</time>
      </trkpt>
      <trkpt lat="46.49146" lon="6.28664">
        <ele>767.40002441406</ele>
        <time>2022-03-09T14:34:55.000Z</time>
      </trkpt>
      <trkpt lat="46.49146" lon="6.28657">
        <ele>767.59997558594</ele>
        <time>2022-03-09T14:35:04.000Z</time>
      </trkpt>
      <trkpt lat="46.49148" lon="6.28657">
        <ele>767.40002441406</ele>
        <time>2022-03-09T14:35:10.000Z</time>
      </trkpt>
      <trkpt lat="46.49148" lon="6.28654">
        <ele>767.20001220703</ele>
        <time>2022-03-09T14:35:19.000Z</time>
      </trkpt>
      <trkpt lat="46.4915" lon="6.28661">
        <ele>767.20001220703</ele>
        <time>2022-03-09T14:35:26.000Z</time>
      </trkpt>
      <trkpt lat="46.4915" lon="6.28662">
        <ele>766.79998779297</ele>
        <time>2022-03-09T14:35:32.000Z</time>
      </trkpt>
      <trkpt lat="46.49149" lon="6.28658">
        <ele>766.20001220703</ele>
        <time>2022-03-09T14:35:36.000Z</time>
      </trkpt>
      <trkpt lat="46.4915" lon="6.28654">
        <ele>765.79998779297</ele>
        <time>2022-03-09T14:35:37.000Z</time>
      </trkpt>
      <trkpt lat="46.49152" lon="6.28649">
        <ele>765</ele>
        <time>2022-03-09T14:35:39.000Z</time>
      </trkpt>
      <trkpt lat="46.49153" lon="6.28647">
        <ele>764.20001220703</ele>
        <time>2022-03-09T14:35:40.000Z</time>
      </trkpt>
      <trkpt lat="46.49154" lon="6.28645">
        <ele>763.79998779297</ele>
        <time>2022-03-09T14:35:41.000Z</time>
      </trkpt>
      <trkpt lat="46.49156" lon="6.2864">
        <ele>762</ele>
        <time>2022-03-09T14:35:43.000Z</time>
      </trkpt>
      <trkpt lat="46.49158" lon="6.28631">
        <ele>759.79998779297</ele>
        <time>2022-03-09T14:35:45.000Z</time>
      </trkpt>
      <trkpt lat="46.49158" lon="6.28629">
        <ele>758.79998779297</ele>
        <time>2022-03-09T14:35:46.000Z</time>
      </trkpt>
      <trkpt lat="46.49159" lon="6.28626">
        <ele>758</ele>
        <time>2022-03-09T14:35:47.000Z</time>
      </trkpt>
      <trkpt lat="46.4916" lon="6.28623">
        <ele>757</ele>
        <time>2022-03-09T14:35:48.000Z</time>
      </trkpt>
      <trkpt lat="46.49162" lon="6.2862">
        <ele>756.20001220703</ele>
        <time>2022-03-09T14:35:49.000Z</time>
      </trkpt>
      <trkpt lat="46.49164" lon="6.28619">
        <ele>755.79998779297</ele>
        <time>2022-03-09T14:35:50.000Z</time>
      </trkpt>
      <trkpt lat="46.49166" lon="6.28618">
        <ele>755</ele>
        <time>2022-03-09T14:35:51.000Z</time>
      </trkpt>
      <trkpt lat="46.49168" lon="6.28619">
        <ele>753.59997558594</ele>
        <time>2022-03-09T14:35:52.000Z</time>
      </trkpt>
      <trkpt lat="46.49173" lon="6.28619">
        <ele>752.40002441406</ele>
        <time>2022-03-09T14:35:54.000Z</time>
      </trkpt>
      <trkpt lat="46.49177" lon="6.28612">
        <ele>751</ele>
        <time>2022-03-09T14:35:56.000Z</time>
      </trkpt>
      <trkpt lat="46.49179" lon="6.2861">
        <ele>750.20001220703</ele>
        <time>2022-03-09T14:35:57.000Z</time>
      </trkpt>
      <trkpt lat="46.4918" lon="6.28608">
        <ele>749.79998779297</ele>
        <time>2022-03-09T14:35:58.000Z</time>
      </trkpt>
      <trkpt lat="46.49186" lon="6.28606">
        <ele>748.20001220703</ele>
        <time>2022-03-09T14:36:00.000Z</time>
      </trkpt>
      <trkpt lat="46.49187" lon="6.28604">
        <ele>747.59997558594</ele>
        <time>2022-03-09T14:36:01.000Z</time>
      </trkpt>
      <trkpt lat="46.49189" lon="6.28603">
        <ele>746.59997558594</ele>
        <time>2022-03-09T14:36:03.000Z</time>
      </trkpt>
      <trkpt lat="46.49194" lon="6.28599">
        <ele>745.79998779297</ele>
        <time>2022-03-09T14:36:06.000Z</time>
      </trkpt>
      <trkpt lat="46.49199" lon="6.28595">
        <ele>745.79998779297</ele>
        <time>2022-03-09T14:36:12.000Z</time>
      </trkpt>
      <trkpt lat="46.49211" lon="6.28593">
        <ele>745.79998779297</ele>
        <time>2022-03-09T14:36:18.000Z</time>
      </trkpt>
      <trkpt lat="46.49213" lon="6.28594">
        <ele>745.79998779297</ele>
        <time>2022-03-09T14:36:25.000Z</time>
      </trkpt>
      <trkpt lat="46.4921" lon="6.28592">
        <ele>746.40002441406</ele>
        <time>2022-03-09T14:36:28.000Z</time>
      </trkpt>
      <trkpt lat="46.49211" lon="6.28592">
        <ele>747.20001220703</ele>
        <time>2022-03-09T14:36:31.000Z</time>
      </trkpt>
      <trkpt lat="46.49212" lon="6.286">
        <ele>747.20001220703</ele>
        <time>2022-03-09T14:36:38.000Z</time>
      </trkpt>
      <trkpt lat="46.49222" lon="6.28619">
        <ele>747.59997558594</ele>
        <time>2022-03-09T14:36:46.000Z</time>
      </trkpt>
      <trkpt lat="46.49223" lon="6.28623">
        <ele>747.59997558594</ele>
        <time>2022-03-09T14:36:47.000Z</time>
      </trkpt>
      <trkpt lat="46.49228" lon="6.28639">
        <ele>748.40002441406</ele>
        <time>2022-03-09T14:36:51.000Z</time>
      </trkpt>
      <trkpt lat="46.49233" lon="6.28662">
        <ele>748.40002441406</ele>
        <time>2022-03-09T14:36:57.000Z</time>
      </trkpt>
      <trkpt lat="46.49241" lon="6.2868">
        <ele>748</ele>
        <time>2022-03-09T14:37:02.000Z</time>
      </trkpt>
      <trkpt lat="46.49247" lon="6.2868">
        <ele>747.20001220703</ele>
        <time>2022-03-09T14:37:04.000Z</time>
      </trkpt>
      <trkpt lat="46.4925" lon="6.28676">
        <ele>747</ele>
        <time>2022-03-09T14:37:05.000Z</time>
      </trkpt>
      <trkpt lat="46.49256" lon="6.28666">
        <ele>746.59997558594</ele>
        <time>2022-03-09T14:37:07.000Z</time>
      </trkpt>
      <trkpt lat="46.49265" lon="6.28655">
        <ele>746.20001220703</ele>
        <time>2022-03-09T14:37:09.000Z</time>
      </trkpt>
      <trkpt lat="46.49273" lon="6.28645">
        <ele>745.40002441406</ele>
        <time>2022-03-09T14:37:11.000Z</time>
      </trkpt>
      <trkpt lat="46.49292" lon="6.28632">
        <ele>744</ele>
        <time>2022-03-09T14:37:15.000Z</time>
      </trkpt>
      <trkpt lat="46.49298" lon="6.28624">
        <ele>743.40002441406</ele>
        <time>2022-03-09T14:37:17.000Z</time>
      </trkpt>
      <trkpt lat="46.49309" lon="6.28601">
        <ele>743.40002441406</ele>
        <time>2022-03-09T14:37:23.000Z</time>
      </trkpt>
      <trkpt lat="46.49311" lon="6.28599">
        <ele>743.40002441406</ele>
        <time>2022-03-09T14:37:24.000Z</time>
      </trkpt>
      <trkpt lat="46.49311" lon="6.28598">
        <ele>743.79998779297</ele>
        <time>2022-03-09T14:37:26.000Z</time>
      </trkpt>
      <trkpt lat="46.4931" lon="6.28597">
        <ele>744.40002441406</ele>
        <time>2022-03-09T14:37:33.000Z</time>
      </trkpt>
      <trkpt lat="46.49309" lon="6.28597">
        <ele>744.20001220703</ele>
        <time>2022-03-09T14:37:42.000Z</time>
      </trkpt>
      <trkpt lat="46.49309" lon="6.28595">
        <ele>744</ele>
        <time>2022-03-09T14:37:52.000Z</time>
      </trkpt>
      <trkpt lat="46.4931" lon="6.28597">
        <ele>744.20001220703</ele>
        <time>2022-03-09T14:38:00.000Z</time>
      </trkpt>
      <trkpt lat="46.49311" lon="6.28598">
        <ele>744.20001220703</ele>
        <time>2022-03-09T14:38:08.000Z</time>
      </trkpt>
      <trkpt lat="46.49314" lon="6.28596">
        <ele>744.20001220703</ele>
        <time>2022-03-09T14:38:17.000Z</time>
      </trkpt>
      <trkpt lat="46.49314" lon="6.28596">
        <ele>744.20001220703</ele>
        <time>2022-03-09T14:38:25.000Z</time>
      </trkpt>
      <trkpt lat="46.49315" lon="6.28597">
        <ele>744.20001220703</ele>
        <time>2022-03-09T14:38:33.000Z</time>
      </trkpt>
      <trkpt lat="46.49316" lon="6.28597">
        <ele>744.20001220703</ele>
        <time>2022-03-09T14:38:35.000Z</time>
      </trkpt>
      <trkpt lat="46.4932" lon="6.28601">
        <ele>744.20001220703</ele>
        <time>2022-03-09T14:38:38.000Z</time>
      </trkpt>
      <trkpt lat="46.49325" lon="6.28602">
        <ele>745</ele>
        <time>2022-03-09T14:38:43.000Z</time>
      </trkpt>
      <trkpt lat="46.49328" lon="6.286">
        <ele>745.20001220703</ele>
        <time>2022-03-09T14:38:45.000Z</time>
      </trkpt>
      <trkpt lat="46.49329" lon="6.28601">
        <ele>745.20001220703</ele>
        <time>2022-03-09T14:38:46.000Z</time>
      </trkpt>
      <trkpt lat="46.49332" lon="6.28603">
        <ele>745.40002441406</ele>
        <time>2022-03-09T14:38:48.000Z</time>
      </trkpt>
      <trkpt lat="46.49344" lon="6.28609">
        <ele>745.59997558594</ele>
        <time>2022-03-09T14:38:54.000Z</time>
      </trkpt>
      <trkpt lat="46.49361" lon="6.28616">
        <ele>745.79998779297</ele>
        <time>2022-03-09T14:39:01.000Z</time>
      </trkpt>
      <trkpt lat="46.49384" lon="6.28625">
        <ele>745.40002441406</ele>
        <time>2022-03-09T14:39:09.000Z</time>
      </trkpt>
      <trkpt lat="46.49413" lon="6.28638">
        <ele>745.20001220703</ele>
        <time>2022-03-09T14:39:19.000Z</time>
      </trkpt>
      <trkpt lat="46.49445" lon="6.28658">
        <ele>744.79998779297</ele>
        <time>2022-03-09T14:39:29.000Z</time>
      </trkpt>
      <trkpt lat="46.49472" lon="6.2869">
        <ele>744.20001220703</ele>
        <time>2022-03-09T14:39:38.000Z</time>
      </trkpt>
      <trkpt lat="46.49476" lon="6.28695">
        <ele>744.20001220703</ele>
        <time>2022-03-09T14:39:39.000Z</time>
      </trkpt>
      <trkpt lat="46.49487" lon="6.28709">
        <ele>743</ele>
        <time>2022-03-09T14:39:42.000Z</time>
      </trkpt>
      <trkpt lat="46.49499" lon="6.28723">
        <ele>742.40002441406</ele>
        <time>2022-03-09T14:39:45.000Z</time>
      </trkpt>
      <trkpt lat="46.4952" lon="6.28746">
        <ele>742</ele>
        <time>2022-03-09T14:39:51.000Z</time>
      </trkpt>
      <trkpt lat="46.49531" lon="6.28758">
        <ele>741.40002441406</ele>
        <time>2022-03-09T14:39:54.000Z</time>
      </trkpt>
      <trkpt lat="46.49544" lon="6.2877">
        <ele>740.79998779297</ele>
        <time>2022-03-09T14:39:57.000Z</time>
      </trkpt>
      <trkpt lat="46.49567" lon="6.28796">
        <ele>741.20001220703</ele>
        <time>2022-03-09T14:40:03.000Z</time>
      </trkpt>
      <trkpt lat="46.49571" lon="6.288">
        <ele>741.59997558594</ele>
        <time>2022-03-09T14:40:04.000Z</time>
      </trkpt>
      <trkpt lat="46.49577" lon="6.28807">
        <ele>742</ele>
        <time>2022-03-09T14:40:06.000Z</time>
      </trkpt>
      <trkpt lat="46.49584" lon="6.28815">
        <ele>741.59997558594</ele>
        <time>2022-03-09T14:40:08.000Z</time>
      </trkpt>
      <trkpt lat="46.49603" lon="6.28837">
        <ele>740.40002441406</ele>
        <time>2022-03-09T14:40:14.000Z</time>
      </trkpt>
      <trkpt lat="46.49619" lon="6.28856">
        <ele>739.59997558594</ele>
        <time>2022-03-09T14:40:19.000Z</time>
      </trkpt>
      <trkpt lat="46.4964" lon="6.28862">
        <ele>739</ele>
        <time>2022-03-09T14:40:24.000Z</time>
      </trkpt>
      <trkpt lat="46.49644" lon="6.2886">
        <ele>738.79998779297</ele>
        <time>2022-03-09T14:40:25.000Z</time>
      </trkpt>
      <trkpt lat="46.49645" lon="6.28857">
        <ele>738.40002441406</ele>
        <time>2022-03-09T14:40:26.000Z</time>
      </trkpt>
      <trkpt lat="46.49646" lon="6.28848">
        <ele>738.40002441406</ele>
        <time>2022-03-09T14:40:28.000Z</time>
      </trkpt>
      <trkpt lat="46.49647" lon="6.28836">
        <ele>739.59997558594</ele>
        <time>2022-03-09T14:40:33.000Z</time>
      </trkpt>
      <trkpt lat="46.49647" lon="6.28832">
        <ele>740</ele>
        <time>2022-03-09T14:40:35.000Z</time>
      </trkpt>
      <trkpt lat="46.49648" lon="6.28827">
        <ele>740.20001220703</ele>
        <time>2022-03-09T14:40:37.000Z</time>
      </trkpt>
      <trkpt lat="46.49649" lon="6.28823">
        <ele>740.59997558594</ele>
        <time>2022-03-09T14:40:39.000Z</time>
      </trkpt>
      <trkpt lat="46.4965" lon="6.28816">
        <ele>741.20001220703</ele>
        <time>2022-03-09T14:40:42.000Z</time>
      </trkpt>
      <trkpt lat="46.49651" lon="6.28801">
        <ele>742.79998779297</ele>
        <time>2022-03-09T14:40:48.000Z</time>
      </trkpt>
      <trkpt lat="46.49653" lon="6.28791">
        <ele>743.79998779297</ele>
        <time>2022-03-09T14:40:52.000Z</time>
      </trkpt>
      <trkpt lat="46.49653" lon="6.28787">
        <ele>744.79998779297</ele>
        <time>2022-03-09T14:40:55.000Z</time>
      </trkpt>
      <trkpt lat="46.49656" lon="6.28781">
        <ele>746.20001220703</ele>
        <time>2022-03-09T14:40:59.000Z</time>
      </trkpt>
      <trkpt lat="46.49657" lon="6.28777">
        <ele>746.79998779297</ele>
        <time>2022-03-09T14:41:02.000Z</time>
      </trkpt>
      <trkpt lat="46.49657" lon="6.28774">
        <ele>747.40002441406</ele>
        <time>2022-03-09T14:41:04.000Z</time>
      </trkpt>
      <trkpt lat="46.49657" lon="6.28772">
        <ele>747.79998779297</ele>
        <time>2022-03-09T14:41:05.000Z</time>
      </trkpt>
      <trkpt lat="46.49657" lon="6.28767">
        <ele>748.40002441406</ele>
        <time>2022-03-09T14:41:08.000Z</time>
      </trkpt>
      <trkpt lat="46.49656" lon="6.28761">
        <ele>749.59997558594</ele>
        <time>2022-03-09T14:41:11.000Z</time>
      </trkpt>
      <trkpt lat="46.49658" lon="6.28759">
        <ele>750.59997558594</ele>
        <time>2022-03-09T14:41:13.000Z</time>
      </trkpt>
      <trkpt lat="46.49658" lon="6.28757">
        <ele>750.79998779297</ele>
        <time>2022-03-09T14:41:14.000Z</time>
      </trkpt>
      <trkpt lat="46.49657" lon="6.28754">
        <ele>751.59997558594</ele>
        <time>2022-03-09T14:41:16.000Z</time>
      </trkpt>
      <trkpt lat="46.49658" lon="6.28752">
        <ele>751.79998779297</ele>
        <time>2022-03-09T14:41:17.000Z</time>
      </trkpt>
      <trkpt lat="46.49658" lon="6.28751">
        <ele>752.20001220703</ele>
        <time>2022-03-09T14:41:18.000Z</time>
      </trkpt>
      <trkpt lat="46.49659" lon="6.2875">
        <ele>752.40002441406</ele>
        <time>2022-03-09T14:41:19.000Z</time>
      </trkpt>
      <trkpt lat="46.4966" lon="6.28744">
        <ele>753</ele>
        <time>2022-03-09T14:41:23.000Z</time>
      </trkpt>
      <trkpt lat="46.49662" lon="6.28739">
        <ele>754.20001220703</ele>
        <time>2022-03-09T14:41:26.000Z</time>
      </trkpt>
      <trkpt lat="46.49663" lon="6.28734">
        <ele>755.40002441406</ele>
        <time>2022-03-09T14:41:29.000Z</time>
      </trkpt>
      <trkpt lat="46.49664" lon="6.28726">
        <ele>756.59997558594</ele>
        <time>2022-03-09T14:41:33.000Z</time>
      </trkpt>
      <trkpt lat="46.49665" lon="6.28723">
        <ele>757</ele>
        <time>2022-03-09T14:41:35.000Z</time>
      </trkpt>
      <trkpt lat="46.49665" lon="6.28719">
        <ele>757.79998779297</ele>
        <time>2022-03-09T14:41:37.000Z</time>
      </trkpt>
      <trkpt lat="46.49668" lon="6.28714">
        <ele>758.79998779297</ele>
        <time>2022-03-09T14:41:41.000Z</time>
      </trkpt>
      <trkpt lat="46.49668" lon="6.28713">
        <ele>758.79998779297</ele>
        <time>2022-03-09T14:41:42.000Z</time>
      </trkpt>
      <trkpt lat="46.49671" lon="6.28707">
        <ele>760</ele>
        <time>2022-03-09T14:41:47.000Z</time>
      </trkpt>
      <trkpt lat="46.49671" lon="6.28705">
        <ele>760.40002441406</ele>
        <time>2022-03-09T14:41:48.000Z</time>
      </trkpt>
      <trkpt lat="46.49673" lon="6.28701">
        <ele>761.20001220703</ele>
        <time>2022-03-09T14:41:51.000Z</time>
      </trkpt>
      <trkpt lat="46.49674" lon="6.28695">
        <ele>761.59997558594</ele>
        <time>2022-03-09T14:41:54.000Z</time>
      </trkpt>
      <trkpt lat="46.49674" lon="6.28692">
        <ele>762.20001220703</ele>
        <time>2022-03-09T14:41:56.000Z</time>
      </trkpt>
      <trkpt lat="46.49675" lon="6.2869">
        <ele>762.59997558594</ele>
        <time>2022-03-09T14:41:57.000Z</time>
      </trkpt>
      <trkpt lat="46.49676" lon="6.28688">
        <ele>763.20001220703</ele>
        <time>2022-03-09T14:42:00.000Z</time>
      </trkpt>
      <trkpt lat="46.49677" lon="6.28687">
        <ele>763.40002441406</ele>
        <time>2022-03-09T14:42:01.000Z</time>
      </trkpt>
      <trkpt lat="46.49677" lon="6.28678">
        <ele>764.40002441406</ele>
        <time>2022-03-09T14:42:05.000Z</time>
      </trkpt>
      <trkpt lat="46.49677" lon="6.28678">
        <ele>764.79998779297</ele>
        <time>2022-03-09T14:42:06.000Z</time>
      </trkpt>
      <trkpt lat="46.49677" lon="6.28673">
        <ele>765.59997558594</ele>
        <time>2022-03-09T14:42:10.000Z</time>
      </trkpt>
      <trkpt lat="46.4968" lon="6.2867">
        <ele>766.20001220703</ele>
        <time>2022-03-09T14:42:13.000Z</time>
      </trkpt>
      <trkpt lat="46.4968" lon="6.28667">
        <ele>766.79998779297</ele>
        <time>2022-03-09T14:42:15.000Z</time>
      </trkpt>
      <trkpt lat="46.49679" lon="6.28666">
        <ele>767</ele>
        <time>2022-03-09T14:42:16.000Z</time>
      </trkpt>
      <trkpt lat="46.49677" lon="6.28661">
        <ele>767.79998779297</ele>
        <time>2022-03-09T14:42:19.000Z</time>
      </trkpt>
      <trkpt lat="46.49677" lon="6.2866">
        <ele>768.20001220703</ele>
        <time>2022-03-09T14:42:20.000Z</time>
      </trkpt>
      <trkpt lat="46.49675" lon="6.28656">
        <ele>769.20001220703</ele>
        <time>2022-03-09T14:42:23.000Z</time>
      </trkpt>
      <trkpt lat="46.49674" lon="6.28655">
        <ele>769.59997558594</ele>
        <time>2022-03-09T14:42:24.000Z</time>
      </trkpt>
      <trkpt lat="46.49672" lon="6.28649">
        <ele>770.40002441406</ele>
        <time>2022-03-09T14:42:28.000Z</time>
      </trkpt>
      <trkpt lat="46.4967" lon="6.28641">
        <ele>771</ele>
        <time>2022-03-09T14:42:33.000Z</time>
      </trkpt>
      <trkpt lat="46.49669" lon="6.28638">
        <ele>771.40002441406</ele>
        <time>2022-03-09T14:42:35.000Z</time>
      </trkpt>
      <trkpt lat="46.49669" lon="6.28632">
        <ele>772.40002441406</ele>
        <time>2022-03-09T14:42:40.000Z</time>
      </trkpt>
      <trkpt lat="46.49668" lon="6.28631">
        <ele>772.59997558594</ele>
        <time>2022-03-09T14:42:42.000Z</time>
      </trkpt>
      <trkpt lat="46.49667" lon="6.2863">
        <ele>772.79998779297</ele>
        <time>2022-03-09T14:42:45.000Z</time>
      </trkpt>
      <trkpt lat="46.49667" lon="6.2863">
        <ele>773</ele>
        <time>2022-03-09T14:42:46.000Z</time>
      </trkpt>
      <trkpt lat="46.49666" lon="6.28626">
        <ele>773.79998779297</ele>
        <time>2022-03-09T14:42:50.000Z</time>
      </trkpt>
      <trkpt lat="46.49666" lon="6.28625">
        <ele>774</ele>
        <time>2022-03-09T14:42:51.000Z</time>
      </trkpt>
      <trkpt lat="46.49665" lon="6.28624">
        <ele>774</ele>
        <time>2022-03-09T14:42:52.000Z</time>
      </trkpt>
      <trkpt lat="46.49666" lon="6.28623">
        <ele>774</ele>
        <time>2022-03-09T14:42:55.000Z</time>
      </trkpt>
      <trkpt lat="46.49667" lon="6.28623">
        <ele>774</ele>
        <time>2022-03-09T14:42:56.000Z</time>
      </trkpt>
      <trkpt lat="46.49673" lon="6.2863">
        <ele>773.59997558594</ele>
        <time>2022-03-09T14:43:01.000Z</time>
      </trkpt>
      <trkpt lat="46.49675" lon="6.28633">
        <ele>772.40002441406</ele>
        <time>2022-03-09T14:43:03.000Z</time>
      </trkpt>
      <trkpt lat="46.49677" lon="6.28641">
        <ele>771.40002441406</ele>
        <time>2022-03-09T14:43:06.000Z</time>
      </trkpt>
      <trkpt lat="46.49678" lon="6.28642">
        <ele>771.20001220703</ele>
        <time>2022-03-09T14:43:07.000Z</time>
      </trkpt>
      <trkpt lat="46.49682" lon="6.28649">
        <ele>770.20001220703</ele>
        <time>2022-03-09T14:43:14.000Z</time>
      </trkpt>
      <trkpt lat="46.49683" lon="6.28651">
        <ele>770</ele>
        <time>2022-03-09T14:43:15.000Z</time>
      </trkpt>
      <trkpt lat="46.49685" lon="6.28658">
        <ele>768.79998779297</ele>
        <time>2022-03-09T14:43:19.000Z</time>
      </trkpt>
      <trkpt lat="46.49687" lon="6.28665">
        <ele>767.40002441406</ele>
        <time>2022-03-09T14:43:24.000Z</time>
      </trkpt>
      <trkpt lat="46.49686" lon="6.28668">
        <ele>766.79998779297</ele>
        <time>2022-03-09T14:43:27.000Z</time>
      </trkpt>
      <trkpt lat="46.49685" lon="6.28673">
        <ele>766.20001220703</ele>
        <time>2022-03-09T14:43:30.000Z</time>
      </trkpt>
      <trkpt lat="46.49682" lon="6.28676">
        <ele>765.59997558594</ele>
        <time>2022-03-09T14:43:34.000Z</time>
      </trkpt>
      <trkpt lat="46.49682" lon="6.28681">
        <ele>765</ele>
        <time>2022-03-09T14:43:37.000Z</time>
      </trkpt>
      <trkpt lat="46.49683" lon="6.28682">
        <ele>764.79998779297</ele>
        <time>2022-03-09T14:43:38.000Z</time>
      </trkpt>
      <trkpt lat="46.49684" lon="6.28682">
        <ele>764.79998779297</ele>
        <time>2022-03-09T14:43:40.000Z</time>
      </trkpt>
      <trkpt lat="46.49685" lon="6.28681">
        <ele>764.59997558594</ele>
        <time>2022-03-09T14:43:41.000Z</time>
      </trkpt>
      <trkpt lat="46.49685" lon="6.28678">
        <ele>765.59997558594</ele>
        <time>2022-03-09T14:43:44.000Z</time>
      </trkpt>
      <trkpt lat="46.49684" lon="6.28676">
        <ele>766</ele>
        <time>2022-03-09T14:43:45.000Z</time>
      </trkpt>
      <trkpt lat="46.49681" lon="6.28667">
        <ele>767</ele>
        <time>2022-03-09T14:43:49.000Z</time>
      </trkpt>
      <trkpt lat="46.49679" lon="6.28661">
        <ele>768</ele>
        <time>2022-03-09T14:43:52.000Z</time>
      </trkpt>
      <trkpt lat="46.49678" lon="6.28659">
        <ele>768</ele>
        <time>2022-03-09T14:43:53.000Z</time>
      </trkpt>
      <trkpt lat="46.49676" lon="6.28655">
        <ele>769.20001220703</ele>
        <time>2022-03-09T14:43:57.000Z</time>
      </trkpt>
      <trkpt lat="46.49675" lon="6.28653">
        <ele>769.79998779297</ele>
        <time>2022-03-09T14:43:59.000Z</time>
      </trkpt>
      <trkpt lat="46.49673" lon="6.28652">
        <ele>770.20001220703</ele>
        <time>2022-03-09T14:44:02.000Z</time>
      </trkpt>
      <trkpt lat="46.49672" lon="6.28651">
        <ele>770.20001220703</ele>
        <time>2022-03-09T14:44:06.000Z</time>
      </trkpt>
      <trkpt lat="46.49672" lon="6.28651">
        <ele>770.20001220703</ele>
        <time>2022-03-09T14:44:14.000Z</time>
      </trkpt>
      <trkpt lat="46.49672" lon="6.28651">
        <ele>770</ele>
        <time>2022-03-09T14:44:22.000Z</time>
      </trkpt>
      <trkpt lat="46.49671" lon="6.28651">
        <ele>769.79998779297</ele>
        <time>2022-03-09T14:44:31.000Z</time>
      </trkpt>
      <trkpt lat="46.49672" lon="6.28651">
        <ele>770</ele>
        <time>2022-03-09T14:44:41.000Z</time>
      </trkpt>
      <trkpt lat="46.49672" lon="6.28649">
        <ele>770</ele>
        <time>2022-03-09T14:44:52.000Z</time>
      </trkpt>
      <trkpt lat="46.49672" lon="6.28649">
        <ele>770.59997558594</ele>
        <time>2022-03-09T14:45:01.000Z</time>
      </trkpt>
      <trkpt lat="46.49676" lon="6.28654">
        <ele>770.79998779297</ele>
        <time>2022-03-09T14:45:09.000Z</time>
      </trkpt>
      <trkpt lat="46.49676" lon="6.28654">
        <ele>770</ele>
        <time>2022-03-09T14:45:17.000Z</time>
      </trkpt>
      <trkpt lat="46.49677" lon="6.28652">
        <ele>770.20001220703</ele>
        <time>2022-03-09T14:45:23.000Z</time>
      </trkpt>
      <trkpt lat="46.49676" lon="6.28647">
        <ele>770.59997558594</ele>
        <time>2022-03-09T14:45:31.000Z</time>
      </trkpt>
      <trkpt lat="46.49675" lon="6.28646">
        <ele>770.40002441406</ele>
        <time>2022-03-09T14:45:36.000Z</time>
      </trkpt>
      <trkpt lat="46.49676" lon="6.28644">
        <ele>770.59997558594</ele>
        <time>2022-03-09T14:45:43.000Z</time>
      </trkpt>
      <trkpt lat="46.49677" lon="6.28645">
        <ele>770</ele>
        <time>2022-03-09T14:45:52.000Z</time>
      </trkpt>
      <trkpt lat="46.49676" lon="6.28646">
        <ele>770.20001220703</ele>
        <time>2022-03-09T14:45:58.000Z</time>
      </trkpt>
      <trkpt lat="46.49678" lon="6.28646">
        <ele>770.20001220703</ele>
        <time>2022-03-09T14:46:05.000Z</time>
      </trkpt>
      <trkpt lat="46.49676" lon="6.28647">
        <ele>770.40002441406</ele>
        <time>2022-03-09T14:46:13.000Z</time>
      </trkpt>
      <trkpt lat="46.49677" lon="6.28646">
        <ele>770.20001220703</ele>
        <time>2022-03-09T14:46:20.000Z</time>
      </trkpt>
      <trkpt lat="46.49676" lon="6.28643">
        <ele>771</ele>
        <time>2022-03-09T14:46:26.000Z</time>
      </trkpt>
      <trkpt lat="46.49679" lon="6.28646">
        <ele>770.59997558594</ele>
        <time>2022-03-09T14:46:32.000Z</time>
      </trkpt>
      <trkpt lat="46.4968" lon="6.28646">
        <ele>770.59997558594</ele>
        <time>2022-03-09T14:46:33.000Z</time>
      </trkpt>
      <trkpt lat="46.49679" lon="6.28646">
        <ele>771</ele>
        <time>2022-03-09T14:46:38.000Z</time>
      </trkpt>
      <trkpt lat="46.49677" lon="6.28643">
        <ele>771.20001220703</ele>
        <time>2022-03-09T14:46:40.000Z</time>
      </trkpt>
      <trkpt lat="46.49672" lon="6.28635">
        <ele>772</ele>
        <time>2022-03-09T14:46:44.000Z</time>
      </trkpt>
      <trkpt lat="46.49671" lon="6.28632">
        <ele>772.40002441406</ele>
        <time>2022-03-09T14:46:45.000Z</time>
      </trkpt>
      <trkpt lat="46.49667" lon="6.28623">
        <ele>773.79998779297</ele>
        <time>2022-03-09T14:46:49.000Z</time>
      </trkpt>
      <trkpt lat="46.49666" lon="6.28618">
        <ele>774.40002441406</ele>
        <time>2022-03-09T14:46:51.000Z</time>
      </trkpt>
      <trkpt lat="46.49663" lon="6.28614">
        <ele>775.20001220703</ele>
        <time>2022-03-09T14:46:53.000Z</time>
      </trkpt>
      <trkpt lat="46.49657" lon="6.28605">
        <ele>776.59997558594</ele>
        <time>2022-03-09T14:46:56.000Z</time>
      </trkpt>
      <trkpt lat="46.49655" lon="6.28599">
        <ele>777.79998779297</ele>
        <time>2022-03-09T14:46:58.000Z</time>
      </trkpt>
      <trkpt lat="46.49653" lon="6.28594">
        <ele>778.59997558594</ele>
        <time>2022-03-09T14:47:01.000Z</time>
      </trkpt>
      <trkpt lat="46.49653" lon="6.28593">
        <ele>779.20001220703</ele>
        <time>2022-03-09T14:47:02.000Z</time>
      </trkpt>
      <trkpt lat="46.4965" lon="6.28587">
        <ele>780.20001220703</ele>
        <time>2022-03-09T14:47:07.000Z</time>
      </trkpt>
      <trkpt lat="46.49645" lon="6.28579">
        <ele>781</ele>
        <time>2022-03-09T14:47:14.000Z</time>
      </trkpt>
      <trkpt lat="46.49644" lon="6.28578">
        <ele>781.20001220703</ele>
        <time>2022-03-09T14:47:16.000Z</time>
      </trkpt>
      <trkpt lat="46.49641" lon="6.28572">
        <ele>782.40002441406</ele>
        <time>2022-03-09T14:47:21.000Z</time>
      </trkpt>
      <trkpt lat="46.49638" lon="6.28566">
        <ele>783.40002441406</ele>
        <time>2022-03-09T14:47:26.000Z</time>
      </trkpt>
      <trkpt lat="46.49637" lon="6.28564">
        <ele>783.59997558594</ele>
        <time>2022-03-09T14:47:27.000Z</time>
      </trkpt>
      <trkpt lat="46.49635" lon="6.2856">
        <ele>784.40002441406</ele>
        <time>2022-03-09T14:47:32.000Z</time>
      </trkpt>
      <trkpt lat="46.49634" lon="6.28558">
        <ele>784.59997558594</ele>
        <time>2022-03-09T14:47:34.000Z</time>
      </trkpt>
      <trkpt lat="46.49633" lon="6.28557">
        <ele>784.79998779297</ele>
        <time>2022-03-09T14:47:36.000Z</time>
      </trkpt>
      <trkpt lat="46.49629" lon="6.2855">
        <ele>784.79998779297</ele>
        <time>2022-03-09T14:47:41.000Z</time>
      </trkpt>
      <trkpt lat="46.49627" lon="6.28547">
        <ele>785.79998779297</ele>
        <time>2022-03-09T14:47:43.000Z</time>
      </trkpt>
      <trkpt lat="46.49623" lon="6.28541">
        <ele>786.59997558594</ele>
        <time>2022-03-09T14:47:47.000Z</time>
      </trkpt>
      <trkpt lat="46.4962" lon="6.28539">
        <ele>786.79998779297</ele>
        <time>2022-03-09T14:47:49.000Z</time>
      </trkpt>
      <trkpt lat="46.49616" lon="6.28534">
        <ele>788</ele>
        <time>2022-03-09T14:47:53.000Z</time>
      </trkpt>
      <trkpt lat="46.49614" lon="6.28532">
        <ele>788.40002441406</ele>
        <time>2022-03-09T14:47:55.000Z</time>
      </trkpt>
      <trkpt lat="46.49611" lon="6.28527">
        <ele>789</ele>
        <time>2022-03-09T14:47:59.000Z</time>
      </trkpt>
      <trkpt lat="46.49609" lon="6.28525">
        <ele>789.79998779297</ele>
        <time>2022-03-09T14:48:02.000Z</time>
      </trkpt>
      <trkpt lat="46.49608" lon="6.28524">
        <ele>790</ele>
        <time>2022-03-09T14:48:03.000Z</time>
      </trkpt>
      <trkpt lat="46.49604" lon="6.28524">
        <ele>790.59997558594</ele>
        <time>2022-03-09T14:48:06.000Z</time>
      </trkpt>
      <trkpt lat="46.49604" lon="6.28523">
        <ele>791</ele>
        <time>2022-03-09T14:48:07.000Z</time>
      </trkpt>
      <trkpt lat="46.49603" lon="6.2852">
        <ele>791.20001220703</ele>
        <time>2022-03-09T14:48:10.000Z</time>
      </trkpt>
      <trkpt lat="46.49602" lon="6.2852">
        <ele>791.40002441406</ele>
        <time>2022-03-09T14:48:12.000Z</time>
      </trkpt>
      <trkpt lat="46.496" lon="6.2852">
        <ele>791.59997558594</ele>
        <time>2022-03-09T14:48:14.000Z</time>
      </trkpt>
      <trkpt lat="46.49599" lon="6.28519">
        <ele>792.20001220703</ele>
        <time>2022-03-09T14:48:18.000Z</time>
      </trkpt>
      <trkpt lat="46.49599" lon="6.28519">
        <ele>792</ele>
        <time>2022-03-09T14:48:27.000Z</time>
      </trkpt>
      <trkpt lat="46.49598" lon="6.28516">
        <ele>791.79998779297</ele>
        <time>2022-03-09T14:48:33.000Z</time>
      </trkpt>
      <trkpt lat="46.49595" lon="6.28514">
        <ele>792.40002441406</ele>
        <time>2022-03-09T14:48:37.000Z</time>
      </trkpt>
      <trkpt lat="46.49593" lon="6.28511">
        <ele>792.79998779297</ele>
        <time>2022-03-09T14:48:40.000Z</time>
      </trkpt>
      <trkpt lat="46.4959" lon="6.2851">
        <ele>793.59997558594</ele>
        <time>2022-03-09T14:48:43.000Z</time>
      </trkpt>
      <trkpt lat="46.49588" lon="6.28507">
        <ele>794.20001220703</ele>
        <time>2022-03-09T14:48:46.000Z</time>
      </trkpt>
      <trkpt lat="46.49587" lon="6.28504">
        <ele>794.59997558594</ele>
        <time>2022-03-09T14:48:48.000Z</time>
      </trkpt>
      <trkpt lat="46.49586" lon="6.28503">
        <ele>794.79998779297</ele>
        <time>2022-03-09T14:48:50.000Z</time>
      </trkpt>
      <trkpt lat="46.49585" lon="6.285">
        <ele>795.59997558594</ele>
        <time>2022-03-09T14:48:54.000Z</time>
      </trkpt>
      <trkpt lat="46.49584" lon="6.28499">
        <ele>795.59997558594</ele>
        <time>2022-03-09T14:48:56.000Z</time>
      </trkpt>
      <trkpt lat="46.49582" lon="6.28496">
        <ele>795.59997558594</ele>
        <time>2022-03-09T14:49:00.000Z</time>
      </trkpt>
      <trkpt lat="46.49581" lon="6.28496">
        <ele>795.79998779297</ele>
        <time>2022-03-09T14:49:01.000Z</time>
      </trkpt>
      <trkpt lat="46.4958" lon="6.28494">
        <ele>796.59997558594</ele>
        <time>2022-03-09T14:49:04.000Z</time>
      </trkpt>
      <trkpt lat="46.49579" lon="6.28492">
        <ele>796.79998779297</ele>
        <time>2022-03-09T14:49:06.000Z</time>
      </trkpt>
      <trkpt lat="46.49578" lon="6.28491">
        <ele>796.79998779297</ele>
        <time>2022-03-09T14:49:08.000Z</time>
      </trkpt>
      <trkpt lat="46.49576" lon="6.28488">
        <ele>797.40002441406</ele>
        <time>2022-03-09T14:49:13.000Z</time>
      </trkpt>
      <trkpt lat="46.49574" lon="6.2849">
        <ele>797.59997558594</ele>
        <time>2022-03-09T14:49:14.000Z</time>
      </trkpt>
      <trkpt lat="46.49571" lon="6.28491">
        <ele>797.79998779297</ele>
        <time>2022-03-09T14:49:17.000Z</time>
      </trkpt>
      <trkpt lat="46.4957" lon="6.2849">
        <ele>797.79998779297</ele>
        <time>2022-03-09T14:49:18.000Z</time>
      </trkpt>
      <trkpt lat="46.49567" lon="6.28487">
        <ele>798.40002441406</ele>
        <time>2022-03-09T14:49:22.000Z</time>
      </trkpt>
      <trkpt lat="46.49565" lon="6.28485">
        <ele>799</ele>
        <time>2022-03-09T14:49:25.000Z</time>
      </trkpt>
      <trkpt lat="46.49564" lon="6.28484">
        <ele>799</ele>
        <time>2022-03-09T14:49:26.000Z</time>
      </trkpt>
      <trkpt lat="46.49557" lon="6.28475">
        <ele>800</ele>
        <time>2022-03-09T14:49:35.000Z</time>
      </trkpt>
      <trkpt lat="46.49556" lon="6.28475">
        <ele>800.20001220703</ele>
        <time>2022-03-09T14:49:36.000Z</time>
      </trkpt>
      <trkpt lat="46.49551" lon="6.2847">
        <ele>800.79998779297</ele>
        <time>2022-03-09T14:49:43.000Z</time>
      </trkpt>
      <trkpt lat="46.49549" lon="6.28468">
        <ele>801</ele>
        <time>2022-03-09T14:49:46.000Z</time>
      </trkpt>
      <trkpt lat="46.49546" lon="6.28464">
        <ele>802</ele>
        <time>2022-03-09T14:49:51.000Z</time>
      </trkpt>
      <trkpt lat="46.49545" lon="6.28463">
        <ele>802.20001220703</ele>
        <time>2022-03-09T14:49:52.000Z</time>
      </trkpt>
      <trkpt lat="46.49541" lon="6.2846">
        <ele>803</ele>
        <time>2022-03-09T14:49:57.000Z</time>
      </trkpt>
      <trkpt lat="46.49539" lon="6.28459">
        <ele>803.20001220703</ele>
        <time>2022-03-09T14:49:59.000Z</time>
      </trkpt>
      <trkpt lat="46.49536" lon="6.28455">
        <ele>804</ele>
        <time>2022-03-09T14:50:04.000Z</time>
      </trkpt>
      <trkpt lat="46.49535" lon="6.28455">
        <ele>804.20001220703</ele>
        <time>2022-03-09T14:50:05.000Z</time>
      </trkpt>
      <trkpt lat="46.49534" lon="6.28455">
        <ele>804.40002441406</ele>
        <time>2022-03-09T14:50:06.000Z</time>
      </trkpt>
      <trkpt lat="46.49531" lon="6.2845">
        <ele>805.40002441406</ele>
        <time>2022-03-09T14:50:12.000Z</time>
      </trkpt>
      <trkpt lat="46.4953" lon="6.28449">
        <ele>805.59997558594</ele>
        <time>2022-03-09T14:50:13.000Z</time>
      </trkpt>
      <trkpt lat="46.4953" lon="6.28448">
        <ele>805.79998779297</ele>
        <time>2022-03-09T14:50:14.000Z</time>
      </trkpt>
      <trkpt lat="46.49524" lon="6.28446">
        <ele>806.59997558594</ele>
        <time>2022-03-09T14:50:20.000Z</time>
      </trkpt>
      <trkpt lat="46.49523" lon="6.28445">
        <ele>807</ele>
        <time>2022-03-09T14:50:21.000Z</time>
      </trkpt>
      <trkpt lat="46.49521" lon="6.28442">
        <ele>807.79998779297</ele>
        <time>2022-03-09T14:50:24.000Z</time>
      </trkpt>
      <trkpt lat="46.49521" lon="6.28438">
        <ele>808.20001220703</ele>
        <time>2022-03-09T14:50:27.000Z</time>
      </trkpt>
      <trkpt lat="46.49519" lon="6.28435">
        <ele>808.79998779297</ele>
        <time>2022-03-09T14:50:30.000Z</time>
      </trkpt>
      <trkpt lat="46.49519" lon="6.28434">
        <ele>809</ele>
        <time>2022-03-09T14:50:31.000Z</time>
      </trkpt>
      <trkpt lat="46.49517" lon="6.28434">
        <ele>809.20001220703</ele>
        <time>2022-03-09T14:50:33.000Z</time>
      </trkpt>
      <trkpt lat="46.49515" lon="6.28433">
        <ele>809.59997558594</ele>
        <time>2022-03-09T14:50:35.000Z</time>
      </trkpt>
      <trkpt lat="46.49514" lon="6.28433">
        <ele>810</ele>
        <time>2022-03-09T14:50:37.000Z</time>
      </trkpt>
      <trkpt lat="46.49514" lon="6.28432">
        <ele>810.20001220703</ele>
        <time>2022-03-09T14:50:38.000Z</time>
      </trkpt>
      <trkpt lat="46.49513" lon="6.28431">
        <ele>810.59997558594</ele>
        <time>2022-03-09T14:50:40.000Z</time>
      </trkpt>
      <trkpt lat="46.49508" lon="6.2843">
        <ele>811</ele>
        <time>2022-03-09T14:50:47.000Z</time>
      </trkpt>
      <trkpt lat="46.49507" lon="6.2843">
        <ele>811</ele>
        <time>2022-03-09T14:50:48.000Z</time>
      </trkpt>
      <trkpt lat="46.49506" lon="6.28427">
        <ele>811.40002441406</ele>
        <time>2022-03-09T14:50:52.000Z</time>
      </trkpt>
      <trkpt lat="46.49505" lon="6.28425">
        <ele>811.59997558594</ele>
        <time>2022-03-09T14:50:55.000Z</time>
      </trkpt>
      <trkpt lat="46.49501" lon="6.28423">
        <ele>812</ele>
        <time>2022-03-09T14:50:59.000Z</time>
      </trkpt>
      <trkpt lat="46.49502" lon="6.28421">
        <ele>812.20001220703</ele>
        <time>2022-03-09T14:51:01.000Z</time>
      </trkpt>
      <trkpt lat="46.495" lon="6.28419">
        <ele>812.40002441406</ele>
        <time>2022-03-09T14:51:06.000Z</time>
      </trkpt>
      <trkpt lat="46.49496" lon="6.28414">
        <ele>813.20001220703</ele>
        <time>2022-03-09T14:51:11.000Z</time>
      </trkpt>
      <trkpt lat="46.49495" lon="6.28413">
        <ele>813.40002441406</ele>
        <time>2022-03-09T14:51:12.000Z</time>
      </trkpt>
      <trkpt lat="46.49494" lon="6.28413">
        <ele>813.40002441406</ele>
        <time>2022-03-09T14:51:13.000Z</time>
      </trkpt>
      <trkpt lat="46.4949" lon="6.28406">
        <ele>814</ele>
        <time>2022-03-09T14:51:20.000Z</time>
      </trkpt>
      <trkpt lat="46.49487" lon="6.28404">
        <ele>814.40002441406</ele>
        <time>2022-03-09T14:51:23.000Z</time>
      </trkpt>
      <trkpt lat="46.49481" lon="6.28395">
        <ele>815.40002441406</ele>
        <time>2022-03-09T14:51:31.000Z</time>
      </trkpt>
      <trkpt lat="46.49477" lon="6.2839">
        <ele>816.59997558594</ele>
        <time>2022-03-09T14:51:36.000Z</time>
      </trkpt>
      <trkpt lat="46.49472" lon="6.28385">
        <ele>817.40002441406</ele>
        <time>2022-03-09T14:51:41.000Z</time>
      </trkpt>
      <trkpt lat="46.49472" lon="6.28383">
        <ele>817.59997558594</ele>
        <time>2022-03-09T14:51:42.000Z</time>
      </trkpt>
      <trkpt lat="46.49469" lon="6.28373">
        <ele>818</ele>
        <time>2022-03-09T14:51:48.000Z</time>
      </trkpt>
      <trkpt lat="46.49467" lon="6.28366">
        <ele>818.59997558594</ele>
        <time>2022-03-09T14:51:52.000Z</time>
      </trkpt>
      <trkpt lat="46.49467" lon="6.2836">
        <ele>819.59997558594</ele>
        <time>2022-03-09T14:51:56.000Z</time>
      </trkpt>
      <trkpt lat="46.49466" lon="6.28358">
        <ele>819.59997558594</ele>
        <time>2022-03-09T14:51:57.000Z</time>
      </trkpt>
      <trkpt lat="46.49465" lon="6.28348">
        <ele>820.20001220703</ele>
        <time>2022-03-09T14:52:03.000Z</time>
      </trkpt>
      <trkpt lat="46.49463" lon="6.28342">
        <ele>820.59997558594</ele>
        <time>2022-03-09T14:52:05.000Z</time>
      </trkpt>
      <trkpt lat="46.49461" lon="6.28334">
        <ele>821.20001220703</ele>
        <time>2022-03-09T14:52:11.000Z</time>
      </trkpt>
      <trkpt lat="46.49457" lon="6.28318">
        <ele>821.59997558594</ele>
        <time>2022-03-09T14:52:19.000Z</time>
      </trkpt>
      <trkpt lat="46.49458" lon="6.28315">
        <ele>821.79998779297</ele>
        <time>2022-03-09T14:52:20.000Z</time>
      </trkpt>
      <trkpt lat="46.49457" lon="6.28311">
        <ele>822</ele>
        <time>2022-03-09T14:52:22.000Z</time>
      </trkpt>
      <trkpt lat="46.49456" lon="6.28299">
        <ele>822.79998779297</ele>
        <time>2022-03-09T14:52:28.000Z</time>
      </trkpt>
      <trkpt lat="46.49456" lon="6.28289">
        <ele>823.79998779297</ele>
        <time>2022-03-09T14:52:33.000Z</time>
      </trkpt>
      <trkpt lat="46.49456" lon="6.28285">
        <ele>824.20001220703</ele>
        <time>2022-03-09T14:52:35.000Z</time>
      </trkpt>
      <trkpt lat="46.49458" lon="6.28276">
        <ele>825</ele>
        <time>2022-03-09T14:52:39.000Z</time>
      </trkpt>
      <trkpt lat="46.4946" lon="6.28272">
        <ele>825.40002441406</ele>
        <time>2022-03-09T14:52:41.000Z</time>
      </trkpt>
      <trkpt lat="46.49463" lon="6.28266">
        <ele>826</ele>
        <time>2022-03-09T14:52:44.000Z</time>
      </trkpt>
      <trkpt lat="46.49464" lon="6.28263">
        <ele>826.20001220703</ele>
        <time>2022-03-09T14:52:46.000Z</time>
      </trkpt>
      <trkpt lat="46.49469" lon="6.28255">
        <ele>826.59997558594</ele>
        <time>2022-03-09T14:52:52.000Z</time>
      </trkpt>
      <trkpt lat="46.49471" lon="6.2825">
        <ele>827</ele>
        <time>2022-03-09T14:52:55.000Z</time>
      </trkpt>
      <trkpt lat="46.49476" lon="6.28242">
        <ele>828.20001220703</ele>
        <time>2022-03-09T14:53:00.000Z</time>
      </trkpt>
      <trkpt lat="46.49477" lon="6.28239">
        <ele>828.40002441406</ele>
        <time>2022-03-09T14:53:02.000Z</time>
      </trkpt>
      <trkpt lat="46.49482" lon="6.28226">
        <ele>828.59997558594</ele>
        <time>2022-03-09T14:53:10.000Z</time>
      </trkpt>
      <trkpt lat="46.49482" lon="6.28223">
        <ele>828.59997558594</ele>
        <time>2022-03-09T14:53:11.000Z</time>
      </trkpt>
      <trkpt lat="46.49478" lon="6.28212">
        <ele>828.79998779297</ele>
        <time>2022-03-09T14:53:15.000Z</time>
      </trkpt>
      <trkpt lat="46.49474" lon="6.28196">
        <ele>828.59997558594</ele>
        <time>2022-03-09T14:53:22.000Z</time>
      </trkpt>
      <trkpt lat="46.49468" lon="6.28182">
        <ele>828.79998779297</ele>
        <time>2022-03-09T14:53:30.000Z</time>
      </trkpt>
      <trkpt lat="46.49468" lon="6.2818">
        <ele>828.79998779297</ele>
        <time>2022-03-09T14:53:31.000Z</time>
      </trkpt>
      <trkpt lat="46.49469" lon="6.28176">
        <ele>828.59997558594</ele>
        <time>2022-03-09T14:53:36.000Z</time>
      </trkpt>
      <trkpt lat="46.4947" lon="6.2817">
        <ele>828.79998779297</ele>
        <time>2022-03-09T14:53:43.000Z</time>
      </trkpt>
      <trkpt lat="46.49471" lon="6.28172">
        <ele>829</ele>
        <time>2022-03-09T14:53:49.000Z</time>
      </trkpt>
      <trkpt lat="46.49473" lon="6.28177">
        <ele>828.79998779297</ele>
        <time>2022-03-09T14:53:57.000Z</time>
      </trkpt>
      <trkpt lat="46.49472" lon="6.28176">
        <ele>828.59997558594</ele>
        <time>2022-03-09T14:54:04.000Z</time>
      </trkpt>
      <trkpt lat="46.4947" lon="6.28176">
        <ele>828.79998779297</ele>
        <time>2022-03-09T14:54:10.000Z</time>
      </trkpt>
      <trkpt lat="46.49469" lon="6.28173">
        <ele>829.20001220703</ele>
        <time>2022-03-09T14:54:18.000Z</time>
      </trkpt>
      <trkpt lat="46.49468" lon="6.28173">
        <ele>829</ele>
        <time>2022-03-09T14:54:26.000Z</time>
      </trkpt>
      <trkpt lat="46.49467" lon="6.28171">
        <ele>829</ele>
        <time>2022-03-09T14:54:36.000Z</time>
      </trkpt>
      <trkpt lat="46.49466" lon="6.28171">
        <ele>828.59997558594</ele>
        <time>2022-03-09T14:54:45.000Z</time>
      </trkpt>
      <trkpt lat="46.4947" lon="6.28173">
        <ele>828.59997558594</ele>
        <time>2022-03-09T14:54:53.000Z</time>
      </trkpt>
      <trkpt lat="46.49471" lon="6.28175">
        <ele>828.59997558594</ele>
        <time>2022-03-09T14:55:00.000Z</time>
      </trkpt>
      <trkpt lat="46.4947" lon="6.28181">
        <ele>828.59997558594</ele>
        <time>2022-03-09T14:55:09.000Z</time>
      </trkpt>
      <trkpt lat="46.4947" lon="6.28182">
        <ele>828.59997558594</ele>
        <time>2022-03-09T14:55:18.000Z</time>
      </trkpt>
      <trkpt lat="46.49471" lon="6.28185">
        <ele>828.59997558594</ele>
        <time>2022-03-09T14:55:26.000Z</time>
      </trkpt>
      <trkpt lat="46.49474" lon="6.28181">
        <ele>828.59997558594</ele>
        <time>2022-03-09T14:55:33.000Z</time>
      </trkpt>
      <trkpt lat="46.49474" lon="6.28179">
        <ele>828.59997558594</ele>
        <time>2022-03-09T14:55:42.000Z</time>
      </trkpt>
      <trkpt lat="46.49471" lon="6.28173">
        <ele>828.59997558594</ele>
        <time>2022-03-09T14:55:50.000Z</time>
      </trkpt>
      <trkpt lat="46.49469" lon="6.28172">
        <ele>828.59997558594</ele>
        <time>2022-03-09T14:56:00.000Z</time>
      </trkpt>
      <trkpt lat="46.4947" lon="6.28171">
        <ele>828.59997558594</ele>
        <time>2022-03-09T14:56:10.000Z</time>
      </trkpt>
      <trkpt lat="46.4947" lon="6.28166">
        <ele>828.59997558594</ele>
        <time>2022-03-09T14:56:18.000Z</time>
      </trkpt>
      <trkpt lat="46.49469" lon="6.28167">
        <ele>828.59997558594</ele>
        <time>2022-03-09T14:56:25.000Z</time>
      </trkpt>
      <trkpt lat="46.49469" lon="6.28167">
        <ele>828.59997558594</ele>
        <time>2022-03-09T14:56:32.000Z</time>
      </trkpt>
      <trkpt lat="46.49469" lon="6.28167">
        <ele>828.59997558594</ele>
        <time>2022-03-09T14:56:41.000Z</time>
      </trkpt>
      <trkpt lat="46.49469" lon="6.28163">
        <ele>828.59997558594</ele>
        <time>2022-03-09T14:56:50.000Z</time>
      </trkpt>
      <trkpt lat="46.49467" lon="6.28158">
        <ele>828.59997558594</ele>
        <time>2022-03-09T14:57:00.000Z</time>
      </trkpt>
      <trkpt lat="46.49469" lon="6.28163">
        <ele>828.59997558594</ele>
        <time>2022-03-09T14:57:08.000Z</time>
      </trkpt>
      <trkpt lat="46.4947" lon="6.28167">
        <ele>828.59997558594</ele>
        <time>2022-03-09T14:57:17.000Z</time>
      </trkpt>
      <trkpt lat="46.49472" lon="6.28165">
        <ele>828.59997558594</ele>
        <time>2022-03-09T14:57:25.000Z</time>
      </trkpt>
      <trkpt lat="46.49472" lon="6.2816">
        <ele>828.59997558594</ele>
        <time>2022-03-09T14:57:33.000Z</time>
      </trkpt>
      <trkpt lat="46.49473" lon="6.28159">
        <ele>828.59997558594</ele>
        <time>2022-03-09T14:57:41.000Z</time>
      </trkpt>
      <trkpt lat="46.49474" lon="6.28164">
        <ele>828.59997558594</ele>
        <time>2022-03-09T14:57:48.000Z</time>
      </trkpt>
      <trkpt lat="46.49473" lon="6.28166">
        <ele>828.59997558594</ele>
        <time>2022-03-09T14:57:55.000Z</time>
      </trkpt>
      <trkpt lat="46.49471" lon="6.28161">
        <ele>828.59997558594</ele>
        <time>2022-03-09T14:58:02.000Z</time>
      </trkpt>
      <trkpt lat="46.49471" lon="6.28159">
        <ele>828.59997558594</ele>
        <time>2022-03-09T14:58:08.000Z</time>
      </trkpt>
      <trkpt lat="46.49473" lon="6.28159">
        <ele>828.59997558594</ele>
        <time>2022-03-09T14:58:16.000Z</time>
      </trkpt>
      <trkpt lat="46.49474" lon="6.28167">
        <ele>828.59997558594</ele>
        <time>2022-03-09T14:58:24.000Z</time>
      </trkpt>
      <trkpt lat="46.49477" lon="6.28171">
        <ele>828.59997558594</ele>
        <time>2022-03-09T14:58:33.000Z</time>
      </trkpt>
      <trkpt lat="46.49477" lon="6.28173">
        <ele>828.59997558594</ele>
        <time>2022-03-09T14:58:41.000Z</time>
      </trkpt>
      <trkpt lat="46.49473" lon="6.28177">
        <ele>828.59997558594</ele>
        <time>2022-03-09T14:58:51.000Z</time>
      </trkpt>
      <trkpt lat="46.49474" lon="6.28178">
        <ele>828.59997558594</ele>
        <time>2022-03-09T14:59:01.000Z</time>
      </trkpt>
      <trkpt lat="46.49474" lon="6.28181">
        <ele>828.59997558594</ele>
        <time>2022-03-09T14:59:04.000Z</time>
      </trkpt>
      <trkpt lat="46.49475" lon="6.28183">
        <ele>828.59997558594</ele>
        <time>2022-03-09T14:59:08.000Z</time>
      </trkpt>
      <trkpt lat="46.49476" lon="6.2818">
        <ele>828.59997558594</ele>
        <time>2022-03-09T14:59:16.000Z</time>
      </trkpt>
      <trkpt lat="46.49475" lon="6.28177">
        <ele>828.59997558594</ele>
        <time>2022-03-09T14:59:24.000Z</time>
      </trkpt>
      <trkpt lat="46.49473" lon="6.2817">
        <ele>828.59997558594</ele>
        <time>2022-03-09T14:59:31.000Z</time>
      </trkpt>
      <trkpt lat="46.49472" lon="6.28175">
        <ele>828.59997558594</ele>
        <time>2022-03-09T14:59:38.000Z</time>
      </trkpt>
      <trkpt lat="46.49475" lon="6.2818">
        <ele>828.59997558594</ele>
        <time>2022-03-09T14:59:49.000Z</time>
      </trkpt>
      <trkpt lat="46.49472" lon="6.28175">
        <ele>828.59997558594</ele>
        <time>2022-03-09T14:59:54.000Z</time>
      </trkpt>
      <trkpt lat="46.49467" lon="6.28173">
        <ele>828.59997558594</ele>
        <time>2022-03-09T15:00:01.000Z</time>
      </trkpt>
      <trkpt lat="46.49466" lon="6.28171">
        <ele>828.59997558594</ele>
        <time>2022-03-09T15:00:08.000Z</time>
      </trkpt>
      <trkpt lat="46.49466" lon="6.28173">
        <ele>828.59997558594</ele>
        <time>2022-03-09T15:00:16.000Z</time>
      </trkpt>
      <trkpt lat="46.49465" lon="6.28167">
        <ele>828.59997558594</ele>
        <time>2022-03-09T15:00:24.000Z</time>
      </trkpt>
      <trkpt lat="46.49467" lon="6.28167">
        <ele>828.59997558594</ele>
        <time>2022-03-09T15:00:32.000Z</time>
      </trkpt>
      <trkpt lat="46.49469" lon="6.28167">
        <ele>828.59997558594</ele>
        <time>2022-03-09T15:00:40.000Z</time>
      </trkpt>
      <trkpt lat="46.4947" lon="6.28169">
        <ele>828.59997558594</ele>
        <time>2022-03-09T15:00:45.000Z</time>
      </trkpt>
      <trkpt lat="46.49469" lon="6.28171">
        <ele>828.59997558594</ele>
        <time>2022-03-09T15:00:52.000Z</time>
      </trkpt>
      <trkpt lat="46.49469" lon="6.28174">
        <ele>828.59997558594</ele>
        <time>2022-03-09T15:01:02.000Z</time>
      </trkpt>
      <trkpt lat="46.4947" lon="6.28177">
        <ele>828.59997558594</ele>
        <time>2022-03-09T15:01:10.000Z</time>
      </trkpt>
      <trkpt lat="46.4947" lon="6.28179">
        <ele>828.59997558594</ele>
        <time>2022-03-09T15:01:19.000Z</time>
      </trkpt>
      <trkpt lat="46.4947" lon="6.2818">
        <ele>828.59997558594</ele>
        <time>2022-03-09T15:01:28.000Z</time>
      </trkpt>
      <trkpt lat="46.49471" lon="6.28182">
        <ele>828.59997558594</ele>
        <time>2022-03-09T15:01:36.000Z</time>
      </trkpt>
      <trkpt lat="46.49469" lon="6.28183">
        <ele>828.59997558594</ele>
        <time>2022-03-09T15:01:42.000Z</time>
      </trkpt>
      <trkpt lat="46.49471" lon="6.28191">
        <ele>830.20001220703</ele>
        <time>2022-03-09T15:01:46.000Z</time>
      </trkpt>
      <trkpt lat="46.49471" lon="6.28193">
        <ele>831.20001220703</ele>
        <time>2022-03-09T15:01:47.000Z</time>
      </trkpt>
      <trkpt lat="46.49472" lon="6.28195">
        <ele>832</ele>
        <time>2022-03-09T15:01:48.000Z</time>
      </trkpt>
      <trkpt lat="46.49473" lon="6.28199">
        <ele>832.40002441406</ele>
        <time>2022-03-09T15:01:49.000Z</time>
      </trkpt>
      <trkpt lat="46.49481" lon="6.28214">
        <ele>832.40002441406</ele>
        <time>2022-03-09T15:01:54.000Z</time>
      </trkpt>
      <trkpt lat="46.49493" lon="6.28231">
        <ele>832.40002441406</ele>
        <time>2022-03-09T15:02:00.000Z</time>
      </trkpt>
      <trkpt lat="46.49513" lon="6.28255">
        <ele>832.40002441406</ele>
        <time>2022-03-09T15:02:09.000Z</time>
      </trkpt>
      <trkpt lat="46.49532" lon="6.28276">
        <ele>832.79998779297</ele>
        <time>2022-03-09T15:02:18.000Z</time>
      </trkpt>
      <trkpt lat="46.49549" lon="6.28293">
        <ele>832.20001220703</ele>
        <time>2022-03-09T15:02:25.000Z</time>
      </trkpt>
      <trkpt lat="46.49566" lon="6.28307">
        <ele>832</ele>
        <time>2022-03-09T15:02:32.000Z</time>
      </trkpt>
      <trkpt lat="46.49583" lon="6.2832">
        <ele>831.40002441406</ele>
        <time>2022-03-09T15:02:38.000Z</time>
      </trkpt>
      <trkpt lat="46.49589" lon="6.28324">
        <ele>831.20001220703</ele>
        <time>2022-03-09T15:02:40.000Z</time>
      </trkpt>
      <trkpt lat="46.49615" lon="6.28337">
        <ele>830.79998779297</ele>
        <time>2022-03-09T15:02:49.000Z</time>
      </trkpt>
      <trkpt lat="46.49632" lon="6.28342">
        <ele>830.40002441406</ele>
        <time>2022-03-09T15:02:54.000Z</time>
      </trkpt>
      <trkpt lat="46.49635" lon="6.28343">
        <ele>830.20001220703</ele>
        <time>2022-03-09T15:02:55.000Z</time>
      </trkpt>
      <trkpt lat="46.49639" lon="6.28344">
        <ele>830</ele>
        <time>2022-03-09T15:02:56.000Z</time>
      </trkpt>
      <trkpt lat="46.49662" lon="6.28347">
        <ele>830</ele>
        <time>2022-03-09T15:03:03.000Z</time>
      </trkpt>
      <trkpt lat="46.49684" lon="6.28357">
        <ele>829.40002441406</ele>
        <time>2022-03-09T15:03:10.000Z</time>
      </trkpt>
      <trkpt lat="46.49687" lon="6.2836">
        <ele>829</ele>
        <time>2022-03-09T15:03:11.000Z</time>
      </trkpt>
      <trkpt lat="46.49703" lon="6.28373">
        <ele>828.79998779297</ele>
        <time>2022-03-09T15:03:17.000Z</time>
      </trkpt>
      <trkpt lat="46.49719" lon="6.28389">
        <ele>827.79998779297</ele>
        <time>2022-03-09T15:03:23.000Z</time>
      </trkpt>
      <trkpt lat="46.49736" lon="6.28403">
        <ele>827.79998779297</ele>
        <time>2022-03-09T15:03:29.000Z</time>
      </trkpt>
      <trkpt lat="46.4975" lon="6.28413">
        <ele>827.79998779297</ele>
        <time>2022-03-09T15:03:34.000Z</time>
      </trkpt>
      <trkpt lat="46.49768" lon="6.28418">
        <ele>827.20001220703</ele>
        <time>2022-03-09T15:03:39.000Z</time>
      </trkpt>
      <trkpt lat="46.49778" lon="6.28422">
        <ele>827</ele>
        <time>2022-03-09T15:03:42.000Z</time>
      </trkpt>
      <trkpt lat="46.49785" lon="6.28425">
        <ele>827</ele>
        <time>2022-03-09T15:03:44.000Z</time>
      </trkpt>
      <trkpt lat="46.49804" lon="6.28431">
        <ele>827.20001220703</ele>
        <time>2022-03-09T15:03:50.000Z</time>
      </trkpt>
      <trkpt lat="46.4983" lon="6.28441">
        <ele>827.59997558594</ele>
        <time>2022-03-09T15:03:58.000Z</time>
      </trkpt>
      <trkpt lat="46.49849" lon="6.28451">
        <ele>827.20001220703</ele>
        <time>2022-03-09T15:04:03.000Z</time>
      </trkpt>
      <trkpt lat="46.49867" lon="6.28462">
        <ele>826.79998779297</ele>
        <time>2022-03-09T15:04:08.000Z</time>
      </trkpt>
      <trkpt lat="46.4987" lon="6.28463">
        <ele>826.79998779297</ele>
        <time>2022-03-09T15:04:09.000Z</time>
      </trkpt>
      <trkpt lat="46.49887" lon="6.28473">
        <ele>826</ele>
        <time>2022-03-09T15:04:14.000Z</time>
      </trkpt>
      <trkpt lat="46.49896" lon="6.28475">
        <ele>825.79998779297</ele>
        <time>2022-03-09T15:04:16.000Z</time>
      </trkpt>
      <trkpt lat="46.4991" lon="6.28479">
        <ele>825.59997558594</ele>
        <time>2022-03-09T15:04:20.000Z</time>
      </trkpt>
      <trkpt lat="46.4992" lon="6.28497">
        <ele>825.79998779297</ele>
        <time>2022-03-09T15:04:25.000Z</time>
      </trkpt>
      <trkpt lat="46.49921" lon="6.28506">
        <ele>825.40002441406</ele>
        <time>2022-03-09T15:04:27.000Z</time>
      </trkpt>
      <trkpt lat="46.49921" lon="6.28509">
        <ele>825.20001220703</ele>
        <time>2022-03-09T15:04:28.000Z</time>
      </trkpt>
      <trkpt lat="46.4992" lon="6.28511">
        <ele>824.79998779297</ele>
        <time>2022-03-09T15:04:30.000Z</time>
      </trkpt>
      <trkpt lat="46.4992" lon="6.28511">
        <ele>824</ele>
        <time>2022-03-09T15:04:36.000Z</time>
      </trkpt>
      <trkpt lat="46.4992" lon="6.28511">
        <ele>823.59997558594</ele>
        <time>2022-03-09T15:04:39.000Z</time>
      </trkpt>
      <trkpt lat="46.49921" lon="6.2851">
        <ele>823</ele>
        <time>2022-03-09T15:04:45.000Z</time>
      </trkpt>
      <trkpt lat="46.49921" lon="6.28509">
        <ele>822.79998779297</ele>
        <time>2022-03-09T15:04:51.000Z</time>
      </trkpt>
      <trkpt lat="46.49921" lon="6.28507">
        <ele>822.79998779297</ele>
        <time>2022-03-09T15:04:59.000Z</time>
      </trkpt>
      <trkpt lat="46.49921" lon="6.28506">
        <ele>822.79998779297</ele>
        <time>2022-03-09T15:05:07.000Z</time>
      </trkpt>
      <trkpt lat="46.49921" lon="6.28509">
        <ele>823.40002441406</ele>
        <time>2022-03-09T15:05:13.000Z</time>
      </trkpt>
      <trkpt lat="46.49923" lon="6.28509">
        <ele>823.40002441406</ele>
        <time>2022-03-09T15:05:19.000Z</time>
      </trkpt>
      <trkpt lat="46.49924" lon="6.28511">
        <ele>823.40002441406</ele>
        <time>2022-03-09T15:05:26.000Z</time>
      </trkpt>
      <trkpt lat="46.49926" lon="6.28507">
        <ele>823</ele>
        <time>2022-03-09T15:05:35.000Z</time>
      </trkpt>
      <trkpt lat="46.49925" lon="6.28507">
        <ele>822.79998779297</ele>
        <time>2022-03-09T15:05:43.000Z</time>
      </trkpt>
      <trkpt lat="46.49923" lon="6.28509">
        <ele>822.79998779297</ele>
        <time>2022-03-09T15:05:52.000Z</time>
      </trkpt>
      <trkpt lat="46.49923" lon="6.28509">
        <ele>822.59997558594</ele>
        <time>2022-03-09T15:05:53.000Z</time>
      </trkpt>
      <trkpt lat="46.49921" lon="6.28511">
        <ele>822.59997558594</ele>
        <time>2022-03-09T15:05:58.000Z</time>
      </trkpt>
      <trkpt lat="46.49921" lon="6.28514">
        <ele>822.20001220703</ele>
        <time>2022-03-09T15:06:05.000Z</time>
      </trkpt>
      <trkpt lat="46.49921" lon="6.28516">
        <ele>822.40002441406</ele>
        <time>2022-03-09T15:06:12.000Z</time>
      </trkpt>
      <trkpt lat="46.49922" lon="6.28517">
        <ele>822.59997558594</ele>
        <time>2022-03-09T15:06:19.000Z</time>
      </trkpt>
      <trkpt lat="46.49922" lon="6.28512">
        <ele>822.40002441406</ele>
        <time>2022-03-09T15:06:26.000Z</time>
      </trkpt>
      <trkpt lat="46.4992" lon="6.28509">
        <ele>822.40002441406</ele>
        <time>2022-03-09T15:06:34.000Z</time>
      </trkpt>
      <trkpt lat="46.49922" lon="6.28507">
        <ele>822.79998779297</ele>
        <time>2022-03-09T15:06:41.000Z</time>
      </trkpt>
      <trkpt lat="46.49922" lon="6.2851">
        <ele>822.59997558594</ele>
        <time>2022-03-09T15:06:48.000Z</time>
      </trkpt>
      <trkpt lat="46.49922" lon="6.2851">
        <ele>822.40002441406</ele>
        <time>2022-03-09T15:06:57.000Z</time>
      </trkpt>
      <trkpt lat="46.4992" lon="6.28511">
        <ele>822.40002441406</ele>
        <time>2022-03-09T15:07:05.000Z</time>
      </trkpt>
      <trkpt lat="46.4992" lon="6.28509">
        <ele>822.40002441406</ele>
        <time>2022-03-09T15:07:14.000Z</time>
      </trkpt>
      <trkpt lat="46.4992" lon="6.28509">
        <ele>822.59997558594</ele>
        <time>2022-03-09T15:07:24.000Z</time>
      </trkpt>
      <trkpt lat="46.49921" lon="6.2851">
        <ele>822.59997558594</ele>
        <time>2022-03-09T15:07:36.000Z</time>
      </trkpt>
      <trkpt lat="46.49921" lon="6.28511">
        <ele>822.40002441406</ele>
        <time>2022-03-09T15:07:46.000Z</time>
      </trkpt>
      <trkpt lat="46.49921" lon="6.28512">
        <ele>822.40002441406</ele>
        <time>2022-03-09T15:07:52.000Z</time>
      </trkpt>
      <trkpt lat="46.49923" lon="6.28513">
        <ele>822.40002441406</ele>
        <time>2022-03-09T15:08:02.000Z</time>
      </trkpt>
      <trkpt lat="46.49923" lon="6.28511">
        <ele>822.40002441406</ele>
        <time>2022-03-09T15:08:12.000Z</time>
      </trkpt>
      <trkpt lat="46.49923" lon="6.28513">
        <ele>822.59997558594</ele>
        <time>2022-03-09T15:08:20.000Z</time>
      </trkpt>
      <trkpt lat="46.49924" lon="6.28511">
        <ele>822.79998779297</ele>
        <time>2022-03-09T15:08:27.000Z</time>
      </trkpt>
      <trkpt lat="46.49926" lon="6.28511">
        <ele>822.59997558594</ele>
        <time>2022-03-09T15:08:33.000Z</time>
      </trkpt>
      <trkpt lat="46.49923" lon="6.28512">
        <ele>822.40002441406</ele>
        <time>2022-03-09T15:08:41.000Z</time>
      </trkpt>
      <trkpt lat="46.49924" lon="6.28516">
        <ele>823</ele>
        <time>2022-03-09T15:08:49.000Z</time>
      </trkpt>
      <trkpt lat="46.49923" lon="6.28517">
        <ele>823</ele>
        <time>2022-03-09T15:08:55.000Z</time>
      </trkpt>
      <trkpt lat="46.49923" lon="6.2852">
        <ele>822.79998779297</ele>
        <time>2022-03-09T15:09:02.000Z</time>
      </trkpt>
      <trkpt lat="46.49921" lon="6.2852">
        <ele>822.79998779297</ele>
        <time>2022-03-09T15:09:10.000Z</time>
      </trkpt>
      <trkpt lat="46.4992" lon="6.28521">
        <ele>822.59997558594</ele>
        <time>2022-03-09T15:09:11.000Z</time>
      </trkpt>
      <trkpt lat="46.49915" lon="6.28526">
        <ele>822.20001220703</ele>
        <time>2022-03-09T15:09:15.000Z</time>
      </trkpt>
      <trkpt lat="46.49913" lon="6.28525">
        <ele>822.20001220703</ele>
        <time>2022-03-09T15:09:16.000Z</time>
      </trkpt>
      <trkpt lat="46.49906" lon="6.28519">
        <ele>822.79998779297</ele>
        <time>2022-03-09T15:09:21.000Z</time>
      </trkpt>
      <trkpt lat="46.49905" lon="6.28519">
        <ele>823</ele>
        <time>2022-03-09T15:09:22.000Z</time>
      </trkpt>
      <trkpt lat="46.49899" lon="6.28514">
        <ele>823</ele>
        <time>2022-03-09T15:09:26.000Z</time>
      </trkpt>
      <trkpt lat="46.49889" lon="6.28514">
        <ele>822.20001220703</ele>
        <time>2022-03-09T15:09:31.000Z</time>
      </trkpt>
      <trkpt lat="46.49884" lon="6.28522">
        <ele>821.20001220703</ele>
        <time>2022-03-09T15:09:34.000Z</time>
      </trkpt>
      <trkpt lat="46.49881" lon="6.28527">
        <ele>820.79998779297</ele>
        <time>2022-03-09T15:09:36.000Z</time>
      </trkpt>
      <trkpt lat="46.49878" lon="6.2853">
        <ele>820</ele>
        <time>2022-03-09T15:09:38.000Z</time>
      </trkpt>
      <trkpt lat="46.49873" lon="6.28533">
        <ele>818.40002441406</ele>
        <time>2022-03-09T15:09:40.000Z</time>
      </trkpt>
      <trkpt lat="46.49869" lon="6.28533">
        <ele>817.40002441406</ele>
        <time>2022-03-09T15:09:42.000Z</time>
      </trkpt>
      <trkpt lat="46.49865" lon="6.28533">
        <ele>816</ele>
        <time>2022-03-09T15:09:44.000Z</time>
      </trkpt>
      <trkpt lat="46.4986" lon="6.28533">
        <ele>814.59997558594</ele>
        <time>2022-03-09T15:09:46.000Z</time>
      </trkpt>
      <trkpt lat="46.49855" lon="6.28534">
        <ele>813</ele>
        <time>2022-03-09T15:09:48.000Z</time>
      </trkpt>
      <trkpt lat="46.49853" lon="6.28533">
        <ele>811.79998779297</ele>
        <time>2022-03-09T15:09:49.000Z</time>
      </trkpt>
      <trkpt lat="46.49848" lon="6.28533">
        <ele>810</ele>
        <time>2022-03-09T15:09:51.000Z</time>
      </trkpt>
      <trkpt lat="46.49845" lon="6.28532">
        <ele>808.59997558594</ele>
        <time>2022-03-09T15:09:53.000Z</time>
      </trkpt>
      <trkpt lat="46.49842" lon="6.28533">
        <ele>807.59997558594</ele>
        <time>2022-03-09T15:09:54.000Z</time>
      </trkpt>
      <trkpt lat="46.49839" lon="6.28534">
        <ele>806.59997558594</ele>
        <time>2022-03-09T15:09:55.000Z</time>
      </trkpt>
      <trkpt lat="46.49836" lon="6.28535">
        <ele>804.59997558594</ele>
        <time>2022-03-09T15:09:56.000Z</time>
      </trkpt>
      <trkpt lat="46.49831" lon="6.28536">
        <ele>802.79998779297</ele>
        <time>2022-03-09T15:09:57.000Z</time>
      </trkpt>
      <trkpt lat="46.49828" lon="6.28536">
        <ele>801.59997558594</ele>
        <time>2022-03-09T15:09:58.000Z</time>
      </trkpt>
      <trkpt lat="46.49826" lon="6.28537">
        <ele>801.20001220703</ele>
        <time>2022-03-09T15:09:59.000Z</time>
      </trkpt>
      <trkpt lat="46.49823" lon="6.2854">
        <ele>800.79998779297</ele>
        <time>2022-03-09T15:10:00.000Z</time>
      </trkpt>
      <trkpt lat="46.4982" lon="6.28542">
        <ele>800.59997558594</ele>
        <time>2022-03-09T15:10:01.000Z</time>
      </trkpt>
      <trkpt lat="46.49812" lon="6.28545">
        <ele>799.20001220703</ele>
        <time>2022-03-09T15:10:03.000Z</time>
      </trkpt>
      <trkpt lat="46.49807" lon="6.28547">
        <ele>797.79998779297</ele>
        <time>2022-03-09T15:10:04.000Z</time>
      </trkpt>
      <trkpt lat="46.49798" lon="6.2855">
        <ele>797.20001220703</ele>
        <time>2022-03-09T15:10:05.000Z</time>
      </trkpt>
      <trkpt lat="46.49798" lon="6.2855">
        <ele>796.59997558594</ele>
        <time>2022-03-09T15:10:06.000Z</time>
      </trkpt>
      <trkpt lat="46.49789" lon="6.28554">
        <ele>795.20001220703</ele>
        <time>2022-03-09T15:10:09.000Z</time>
      </trkpt>
      <trkpt lat="46.49785" lon="6.28557">
        <ele>793.79998779297</ele>
        <time>2022-03-09T15:10:11.000Z</time>
      </trkpt>
      <trkpt lat="46.49787" lon="6.28564">
        <ele>791.79998779297</ele>
        <time>2022-03-09T15:10:13.000Z</time>
      </trkpt>
      <trkpt lat="46.4979" lon="6.2857">
        <ele>790.59997558594</ele>
        <time>2022-03-09T15:10:15.000Z</time>
      </trkpt>
      <trkpt lat="46.49791" lon="6.28574">
        <ele>790.20001220703</ele>
        <time>2022-03-09T15:10:17.000Z</time>
      </trkpt>
      <trkpt lat="46.49795" lon="6.28576">
        <ele>789.79998779297</ele>
        <time>2022-03-09T15:10:19.000Z</time>
      </trkpt>
      <trkpt lat="46.49796" lon="6.28581">
        <ele>789</ele>
        <time>2022-03-09T15:10:21.000Z</time>
      </trkpt>
      <trkpt lat="46.49797" lon="6.28584">
        <ele>787.40002441406</ele>
        <time>2022-03-09T15:10:22.000Z</time>
      </trkpt>
      <trkpt lat="46.49798" lon="6.28588">
        <ele>785.79998779297</ele>
        <time>2022-03-09T15:10:23.000Z</time>
      </trkpt>
      <trkpt lat="46.49799" lon="6.28592">
        <ele>784.79998779297</ele>
        <time>2022-03-09T15:10:24.000Z</time>
      </trkpt>
      <trkpt lat="46.49802" lon="6.286">
        <ele>783.40002441406</ele>
        <time>2022-03-09T15:10:26.000Z</time>
      </trkpt>
      <trkpt lat="46.49803" lon="6.28604">
        <ele>782.79998779297</ele>
        <time>2022-03-09T15:10:27.000Z</time>
      </trkpt>
      <trkpt lat="46.49803" lon="6.28608">
        <ele>781.40002441406</ele>
        <time>2022-03-09T15:10:28.000Z</time>
      </trkpt>
      <trkpt lat="46.49803" lon="6.28612">
        <ele>780</ele>
        <time>2022-03-09T15:10:29.000Z</time>
      </trkpt>
      <trkpt lat="46.49802" lon="6.28616">
        <ele>779</ele>
        <time>2022-03-09T15:10:30.000Z</time>
      </trkpt>
      <trkpt lat="46.49802" lon="6.2862">
        <ele>777.59997558594</ele>
        <time>2022-03-09T15:10:31.000Z</time>
      </trkpt>
      <trkpt lat="46.49802" lon="6.28623">
        <ele>776.59997558594</ele>
        <time>2022-03-09T15:10:32.000Z</time>
      </trkpt>
      <trkpt lat="46.49801" lon="6.28626">
        <ele>775.20001220703</ele>
        <time>2022-03-09T15:10:33.000Z</time>
      </trkpt>
      <trkpt lat="46.498" lon="6.28631">
        <ele>773.79998779297</ele>
        <time>2022-03-09T15:10:35.000Z</time>
      </trkpt>
      <trkpt lat="46.49799" lon="6.28632">
        <ele>773.59997558594</ele>
        <time>2022-03-09T15:10:36.000Z</time>
      </trkpt>
      <trkpt lat="46.49795" lon="6.28645">
        <ele>772.20001220703</ele>
        <time>2022-03-09T15:10:40.000Z</time>
      </trkpt>
      <trkpt lat="46.49793" lon="6.28647">
        <ele>771.40002441406</ele>
        <time>2022-03-09T15:10:42.000Z</time>
      </trkpt>
      <trkpt lat="46.49789" lon="6.28647">
        <ele>771</ele>
        <time>2022-03-09T15:10:44.000Z</time>
      </trkpt>
      <trkpt lat="46.49784" lon="6.28656">
        <ele>770.59997558594</ele>
        <time>2022-03-09T15:10:48.000Z</time>
      </trkpt>
      <trkpt lat="46.49787" lon="6.28663">
        <ele>770.40002441406</ele>
        <time>2022-03-09T15:10:54.000Z</time>
      </trkpt>
      <trkpt lat="46.49788" lon="6.28662">
        <ele>770.40002441406</ele>
        <time>2022-03-09T15:11:02.000Z</time>
      </trkpt>
      <trkpt lat="46.49788" lon="6.28662">
        <ele>770</ele>
        <time>2022-03-09T15:11:11.000Z</time>
      </trkpt>
      <trkpt lat="46.49787" lon="6.28664">
        <ele>769.79998779297</ele>
        <time>2022-03-09T15:11:13.000Z</time>
      </trkpt>
      <trkpt lat="46.49789" lon="6.28671">
        <ele>769.40002441406</ele>
        <time>2022-03-09T15:11:18.000Z</time>
      </trkpt>
      <trkpt lat="46.49782" lon="6.2867">
        <ele>770</ele>
        <time>2022-03-09T15:11:27.000Z</time>
      </trkpt>
      <trkpt lat="46.49778" lon="6.2867">
        <ele>770</ele>
        <time>2022-03-09T15:11:35.000Z</time>
      </trkpt>
      <trkpt lat="46.49776" lon="6.28659">
        <ele>769.79998779297</ele>
        <time>2022-03-09T15:11:42.000Z</time>
      </trkpt>
      <trkpt lat="46.49774" lon="6.28664">
        <ele>768.40002441406</ele>
        <time>2022-03-09T15:11:47.000Z</time>
      </trkpt>
      <trkpt lat="46.49773" lon="6.28667">
        <ele>767</ele>
        <time>2022-03-09T15:11:48.000Z</time>
      </trkpt>
      <trkpt lat="46.49771" lon="6.2867">
        <ele>766</ele>
        <time>2022-03-09T15:11:49.000Z</time>
      </trkpt>
      <trkpt lat="46.49769" lon="6.28673">
        <ele>765.40002441406</ele>
        <time>2022-03-09T15:11:50.000Z</time>
      </trkpt>
      <trkpt lat="46.49767" lon="6.28674">
        <ele>763.79998779297</ele>
        <time>2022-03-09T15:11:51.000Z</time>
      </trkpt>
      <trkpt lat="46.49765" lon="6.28675">
        <ele>762.59997558594</ele>
        <time>2022-03-09T15:11:52.000Z</time>
      </trkpt>
      <trkpt lat="46.49759" lon="6.28677">
        <ele>761.40002441406</ele>
        <time>2022-03-09T15:11:54.000Z</time>
      </trkpt>
      <trkpt lat="46.49757" lon="6.28678">
        <ele>761.40002441406</ele>
        <time>2022-03-09T15:11:55.000Z</time>
      </trkpt>
      <trkpt lat="46.49756" lon="6.28681">
        <ele>761.40002441406</ele>
        <time>2022-03-09T15:11:57.000Z</time>
      </trkpt>
      <trkpt lat="46.49757" lon="6.28684">
        <ele>761.40002441406</ele>
        <time>2022-03-09T15:11:59.000Z</time>
      </trkpt>
      <trkpt lat="46.49758" lon="6.28685">
        <ele>761.40002441406</ele>
        <time>2022-03-09T15:12:00.000Z</time>
      </trkpt>
      <trkpt lat="46.4976" lon="6.28689">
        <ele>761.40002441406</ele>
        <time>2022-03-09T15:12:04.000Z</time>
      </trkpt>
      <trkpt lat="46.49762" lon="6.28685">
        <ele>762</ele>
        <time>2022-03-09T15:12:10.000Z</time>
      </trkpt>
      <trkpt lat="46.49758" lon="6.28688">
        <ele>761.59997558594</ele>
        <time>2022-03-09T15:12:16.000Z</time>
      </trkpt>
      <trkpt lat="46.49758" lon="6.28692">
        <ele>761.59997558594</ele>
        <time>2022-03-09T15:12:22.000Z</time>
      </trkpt>
      <trkpt lat="46.49763" lon="6.28683">
        <ele>761.59997558594</ele>
        <time>2022-03-09T15:12:28.000Z</time>
      </trkpt>
      <trkpt lat="46.49768" lon="6.28677">
        <ele>762</ele>
        <time>2022-03-09T15:12:33.000Z</time>
      </trkpt>
      <trkpt lat="46.49768" lon="6.28681">
        <ele>761.79998779297</ele>
        <time>2022-03-09T15:12:41.000Z</time>
      </trkpt>
      <trkpt lat="46.49766" lon="6.28683">
        <ele>762.20001220703</ele>
        <time>2022-03-09T15:12:48.000Z</time>
      </trkpt>
      <trkpt lat="46.49767" lon="6.28683">
        <ele>762.59997558594</ele>
        <time>2022-03-09T15:12:50.000Z</time>
      </trkpt>
      <trkpt lat="46.49767" lon="6.28681">
        <ele>763</ele>
        <time>2022-03-09T15:12:53.000Z</time>
      </trkpt>
      <trkpt lat="46.49767" lon="6.28681">
        <ele>763.20001220703</ele>
        <time>2022-03-09T15:12:54.000Z</time>
      </trkpt>
      <trkpt lat="46.49765" lon="6.28683">
        <ele>763.59997558594</ele>
        <time>2022-03-09T15:13:00.000Z</time>
      </trkpt>
      <trkpt lat="46.49764" lon="6.28683">
        <ele>763.59997558594</ele>
        <time>2022-03-09T15:13:01.000Z</time>
      </trkpt>
      <trkpt lat="46.4976" lon="6.28687">
        <ele>763.79998779297</ele>
        <time>2022-03-09T15:13:07.000Z</time>
      </trkpt>
      <trkpt lat="46.49761" lon="6.28682">
        <ele>763.20001220703</ele>
        <time>2022-03-09T15:13:14.000Z</time>
      </trkpt>
      <trkpt lat="46.49759" lon="6.28684">
        <ele>762.59997558594</ele>
        <time>2022-03-09T15:13:22.000Z</time>
      </trkpt>
      <trkpt lat="46.49759" lon="6.28684">
        <ele>762.59997558594</ele>
        <time>2022-03-09T15:13:23.000Z</time>
      </trkpt>
      <trkpt lat="46.49759" lon="6.28686">
        <ele>762.79998779297</ele>
        <time>2022-03-09T15:13:27.000Z</time>
      </trkpt>
      <trkpt lat="46.49755" lon="6.28686">
        <ele>763.40002441406</ele>
        <time>2022-03-09T15:13:34.000Z</time>
      </trkpt>
      <trkpt lat="46.49757" lon="6.28683">
        <ele>763</ele>
        <time>2022-03-09T15:13:43.000Z</time>
      </trkpt>
      <trkpt lat="46.49761" lon="6.28678">
        <ele>763.20001220703</ele>
        <time>2022-03-09T15:13:50.000Z</time>
      </trkpt>
      <trkpt lat="46.4976" lon="6.28679">
        <ele>763.20001220703</ele>
        <time>2022-03-09T15:13:59.000Z</time>
      </trkpt>
      <trkpt lat="46.4976" lon="6.28684">
        <ele>762.79998779297</ele>
        <time>2022-03-09T15:14:07.000Z</time>
      </trkpt>
      <trkpt lat="46.4976" lon="6.28685">
        <ele>762.79998779297</ele>
        <time>2022-03-09T15:14:08.000Z</time>
      </trkpt>
      <trkpt lat="46.4976" lon="6.2869">
        <ele>762.59997558594</ele>
        <time>2022-03-09T15:14:13.000Z</time>
      </trkpt>
      <trkpt lat="46.49762" lon="6.28693">
        <ele>762.40002441406</ele>
        <time>2022-03-09T15:14:19.000Z</time>
      </trkpt>
      <trkpt lat="46.49762" lon="6.28687">
        <ele>763</ele>
        <time>2022-03-09T15:14:25.000Z</time>
      </trkpt>
      <trkpt lat="46.49757" lon="6.28682">
        <ele>763</ele>
        <time>2022-03-09T15:14:33.000Z</time>
      </trkpt>
      <trkpt lat="46.49761" lon="6.28684">
        <ele>762.79998779297</ele>
        <time>2022-03-09T15:14:42.000Z</time>
      </trkpt>
      <trkpt lat="46.49762" lon="6.28685">
        <ele>761.59997558594</ele>
        <time>2022-03-09T15:14:45.000Z</time>
      </trkpt>
      <trkpt lat="46.49761" lon="6.28685">
        <ele>761.59997558594</ele>
        <time>2022-03-09T15:14:48.000Z</time>
      </trkpt>
      <trkpt lat="46.49767" lon="6.28689">
        <ele>761.59997558594</ele>
        <time>2022-03-09T15:14:56.000Z</time>
      </trkpt>
      <trkpt lat="46.49766" lon="6.28685">
        <ele>761.79998779297</ele>
        <time>2022-03-09T15:15:04.000Z</time>
      </trkpt>
      <trkpt lat="46.4977" lon="6.28681">
        <ele>761.59997558594</ele>
        <time>2022-03-09T15:15:10.000Z</time>
      </trkpt>
      <trkpt lat="46.49771" lon="6.28682">
        <ele>761.59997558594</ele>
        <time>2022-03-09T15:15:19.000Z</time>
      </trkpt>
      <trkpt lat="46.49771" lon="6.28683">
        <ele>761.59997558594</ele>
        <time>2022-03-09T15:15:27.000Z</time>
      </trkpt>
      <trkpt lat="46.49769" lon="6.28685">
        <ele>761.59997558594</ele>
        <time>2022-03-09T15:15:34.000Z</time>
      </trkpt>
      <trkpt lat="46.49758" lon="6.28688">
        <ele>761.59997558594</ele>
        <time>2022-03-09T15:15:42.000Z</time>
      </trkpt>
      <trkpt lat="46.49757" lon="6.28688">
        <ele>761.79998779297</ele>
        <time>2022-03-09T15:15:52.000Z</time>
      </trkpt>
      <trkpt lat="46.49753" lon="6.28687">
        <ele>761.79998779297</ele>
        <time>2022-03-09T15:16:01.000Z</time>
      </trkpt>
      <trkpt lat="46.4975" lon="6.28687">
        <ele>761.79998779297</ele>
        <time>2022-03-09T15:16:08.000Z</time>
      </trkpt>
      <trkpt lat="46.49752" lon="6.28686">
        <ele>762.20001220703</ele>
        <time>2022-03-09T15:16:13.000Z</time>
      </trkpt>
      <trkpt lat="46.49748" lon="6.28678">
        <ele>762.59997558594</ele>
        <time>2022-03-09T15:16:18.000Z</time>
      </trkpt>
      <trkpt lat="46.49749" lon="6.28681">
        <ele>762.59997558594</ele>
        <time>2022-03-09T15:16:25.000Z</time>
      </trkpt>
      <trkpt lat="46.49749" lon="6.28681">
        <ele>762.79998779297</ele>
        <time>2022-03-09T15:16:27.000Z</time>
      </trkpt>
      <trkpt lat="46.4975" lon="6.28682">
        <ele>762.79998779297</ele>
        <time>2022-03-09T15:16:36.000Z</time>
      </trkpt>
      <trkpt lat="46.4975" lon="6.28681">
        <ele>762.20001220703</ele>
        <time>2022-03-09T15:16:42.000Z</time>
      </trkpt>
      <trkpt lat="46.49755" lon="6.28675">
        <ele>762.40002441406</ele>
        <time>2022-03-09T15:16:49.000Z</time>
      </trkpt>
      <trkpt lat="46.49761" lon="6.28683">
        <ele>762.20001220703</ele>
        <time>2022-03-09T15:16:54.000Z</time>
      </trkpt>
      <trkpt lat="46.49762" lon="6.28683">
        <ele>761.59997558594</ele>
        <time>2022-03-09T15:16:55.000Z</time>
      </trkpt>
      <trkpt lat="46.49759" lon="6.28692">
        <ele>761.40002441406</ele>
        <time>2022-03-09T15:17:02.000Z</time>
      </trkpt>
      <trkpt lat="46.49756" lon="6.28689">
        <ele>761.40002441406</ele>
        <time>2022-03-09T15:17:08.000Z</time>
      </trkpt>
      <trkpt lat="46.49754" lon="6.28692">
        <ele>760.79998779297</ele>
        <time>2022-03-09T15:17:15.000Z</time>
      </trkpt>
      <trkpt lat="46.49755" lon="6.28692">
        <ele>761</ele>
        <time>2022-03-09T15:17:21.000Z</time>
      </trkpt>
      <trkpt lat="46.49752" lon="6.28691">
        <ele>761.20001220703</ele>
        <time>2022-03-09T15:17:28.000Z</time>
      </trkpt>
      <trkpt lat="46.49754" lon="6.28699">
        <ele>761.20001220703</ele>
        <time>2022-03-09T15:17:36.000Z</time>
      </trkpt>
      <trkpt lat="46.49755" lon="6.287">
        <ele>761.40002441406</ele>
        <time>2022-03-09T15:17:46.000Z</time>
      </trkpt>
      <trkpt lat="46.49758" lon="6.28696">
        <ele>761</ele>
        <time>2022-03-09T15:17:54.000Z</time>
      </trkpt>
      <trkpt lat="46.49759" lon="6.28695">
        <ele>760.79998779297</ele>
        <time>2022-03-09T15:18:02.000Z</time>
      </trkpt>
      <trkpt lat="46.49764" lon="6.28696">
        <ele>760.59997558594</ele>
        <time>2022-03-09T15:18:10.000Z</time>
      </trkpt>
      <trkpt lat="46.49765" lon="6.28698">
        <ele>760.59997558594</ele>
        <time>2022-03-09T15:18:12.000Z</time>
      </trkpt>
      <trkpt lat="46.49765" lon="6.287">
        <ele>760.40002441406</ele>
        <time>2022-03-09T15:18:18.000Z</time>
      </trkpt>
      <trkpt lat="46.49766" lon="6.28697">
        <ele>761</ele>
        <time>2022-03-09T15:18:26.000Z</time>
      </trkpt>
      <trkpt lat="46.49765" lon="6.28695">
        <ele>760.59997558594</ele>
        <time>2022-03-09T15:18:33.000Z</time>
      </trkpt>
      <trkpt lat="46.4977" lon="6.28692">
        <ele>760.59997558594</ele>
        <time>2022-03-09T15:18:42.000Z</time>
      </trkpt>
      <trkpt lat="46.49772" lon="6.28696">
        <ele>760.59997558594</ele>
        <time>2022-03-09T15:18:53.000Z</time>
      </trkpt>
      <trkpt lat="46.49767" lon="6.28694">
        <ele>760.79998779297</ele>
        <time>2022-03-09T15:19:00.000Z</time>
      </trkpt>
      <trkpt lat="46.49764" lon="6.28689">
        <ele>760.79998779297</ele>
        <time>2022-03-09T15:19:10.000Z</time>
      </trkpt>
      <trkpt lat="46.4976" lon="6.2869">
        <ele>760.79998779297</ele>
        <time>2022-03-09T15:19:15.000Z</time>
      </trkpt>
      <trkpt lat="46.49761" lon="6.28694">
        <ele>761</ele>
        <time>2022-03-09T15:19:24.000Z</time>
      </trkpt>
      <trkpt lat="46.49758" lon="6.28699">
        <ele>760.79998779297</ele>
        <time>2022-03-09T15:19:34.000Z</time>
      </trkpt>
      <trkpt lat="46.49762" lon="6.28702">
        <ele>760.79998779297</ele>
        <time>2022-03-09T15:19:41.000Z</time>
      </trkpt>
      <trkpt lat="46.49765" lon="6.28705">
        <ele>760.59997558594</ele>
        <time>2022-03-09T15:19:48.000Z</time>
      </trkpt>
      <trkpt lat="46.49763" lon="6.28707">
        <ele>760.59997558594</ele>
        <time>2022-03-09T15:19:54.000Z</time>
      </trkpt>
      <trkpt lat="46.49762" lon="6.28711">
        <ele>760.59997558594</ele>
        <time>2022-03-09T15:20:01.000Z</time>
      </trkpt>
      <trkpt lat="46.49756" lon="6.28707">
        <ele>760.59997558594</ele>
        <time>2022-03-09T15:20:09.000Z</time>
      </trkpt>
      <trkpt lat="46.49755" lon="6.28702">
        <ele>760.59997558594</ele>
        <time>2022-03-09T15:20:17.000Z</time>
      </trkpt>
      <trkpt lat="46.49765" lon="6.28702">
        <ele>760.59997558594</ele>
        <time>2022-03-09T15:20:24.000Z</time>
      </trkpt>
      <trkpt lat="46.49765" lon="6.28701">
        <ele>760.59997558594</ele>
        <time>2022-03-09T15:20:33.000Z</time>
      </trkpt>
      <trkpt lat="46.49767" lon="6.28698">
        <ele>760.59997558594</ele>
        <time>2022-03-09T15:20:41.000Z</time>
      </trkpt>
      <trkpt lat="46.49766" lon="6.28698">
        <ele>760.59997558594</ele>
        <time>2022-03-09T15:20:51.000Z</time>
      </trkpt>
      <trkpt lat="46.49762" lon="6.28694">
        <ele>760.59997558594</ele>
        <time>2022-03-09T15:20:57.000Z</time>
      </trkpt>
      <trkpt lat="46.49763" lon="6.28696">
        <ele>760.59997558594</ele>
        <time>2022-03-09T15:21:05.000Z</time>
      </trkpt>
      <trkpt lat="46.49761" lon="6.28695">
        <ele>760.59997558594</ele>
        <time>2022-03-09T15:21:08.000Z</time>
      </trkpt>
      <trkpt lat="46.49756" lon="6.28698">
        <ele>760.59997558594</ele>
        <time>2022-03-09T15:21:11.000Z</time>
      </trkpt>
      <trkpt lat="46.49751" lon="6.28701">
        <ele>759.59997558594</ele>
        <time>2022-03-09T15:21:16.000Z</time>
      </trkpt>
      <trkpt lat="46.4975" lon="6.28703">
        <ele>759.40002441406</ele>
        <time>2022-03-09T15:21:17.000Z</time>
      </trkpt>
      <trkpt lat="46.49749" lon="6.28704">
        <ele>759.40002441406</ele>
        <time>2022-03-09T15:21:18.000Z</time>
      </trkpt>
      <trkpt lat="46.49744" lon="6.28709">
        <ele>759.20001220703</ele>
        <time>2022-03-09T15:21:21.000Z</time>
      </trkpt>
      <trkpt lat="46.49738" lon="6.28716">
        <ele>758.40002441406</ele>
        <time>2022-03-09T15:21:23.000Z</time>
      </trkpt>
      <trkpt lat="46.4973" lon="6.28725">
        <ele>757.40002441406</ele>
        <time>2022-03-09T15:21:25.000Z</time>
      </trkpt>
      <trkpt lat="46.49727" lon="6.28729">
        <ele>756.59997558594</ele>
        <time>2022-03-09T15:21:26.000Z</time>
      </trkpt>
      <trkpt lat="46.49724" lon="6.28734">
        <ele>755.40002441406</ele>
        <time>2022-03-09T15:21:28.000Z</time>
      </trkpt>
      <trkpt lat="46.49723" lon="6.28737">
        <ele>754.79998779297</ele>
        <time>2022-03-09T15:21:29.000Z</time>
      </trkpt>
      <trkpt lat="46.49724" lon="6.2874">
        <ele>754.20001220703</ele>
        <time>2022-03-09T15:21:30.000Z</time>
      </trkpt>
      <trkpt lat="46.49726" lon="6.28746">
        <ele>752.59997558594</ele>
        <time>2022-03-09T15:21:32.000Z</time>
      </trkpt>
      <trkpt lat="46.49726" lon="6.2875">
        <ele>751.59997558594</ele>
        <time>2022-03-09T15:21:33.000Z</time>
      </trkpt>
      <trkpt lat="46.49728" lon="6.28758">
        <ele>750.20001220703</ele>
        <time>2022-03-09T15:21:35.000Z</time>
      </trkpt>
      <trkpt lat="46.4973" lon="6.28763">
        <ele>748.20001220703</ele>
        <time>2022-03-09T15:21:37.000Z</time>
      </trkpt>
      <trkpt lat="46.49731" lon="6.28764">
        <ele>747.20001220703</ele>
        <time>2022-03-09T15:21:38.000Z</time>
      </trkpt>
      <trkpt lat="46.4973" lon="6.28766">
        <ele>746.40002441406</ele>
        <time>2022-03-09T15:21:39.000Z</time>
      </trkpt>
      <trkpt lat="46.49728" lon="6.28768">
        <ele>745.20001220703</ele>
        <time>2022-03-09T15:21:41.000Z</time>
      </trkpt>
      <trkpt lat="46.49727" lon="6.28773">
        <ele>744.40002441406</ele>
        <time>2022-03-09T15:21:43.000Z</time>
      </trkpt>
      <trkpt lat="46.49728" lon="6.28775">
        <ele>743.59997558594</ele>
        <time>2022-03-09T15:21:44.000Z</time>
      </trkpt>
      <trkpt lat="46.49729" lon="6.28778">
        <ele>743</ele>
        <time>2022-03-09T15:21:45.000Z</time>
      </trkpt>
      <trkpt lat="46.49728" lon="6.2878">
        <ele>742.20001220703</ele>
        <time>2022-03-09T15:21:46.000Z</time>
      </trkpt>
      <trkpt lat="46.49727" lon="6.28784">
        <ele>740.59997558594</ele>
        <time>2022-03-09T15:21:49.000Z</time>
      </trkpt>
      <trkpt lat="46.49726" lon="6.28786">
        <ele>740.40002441406</ele>
        <time>2022-03-09T15:21:50.000Z</time>
      </trkpt>
      <trkpt lat="46.49725" lon="6.28791">
        <ele>739.59997558594</ele>
        <time>2022-03-09T15:21:53.000Z</time>
      </trkpt>
      <trkpt lat="46.49724" lon="6.28794">
        <ele>739.20001220703</ele>
        <time>2022-03-09T15:21:56.000Z</time>
      </trkpt>
      <trkpt lat="46.49721" lon="6.28811">
        <ele>739</ele>
        <time>2022-03-09T15:22:03.000Z</time>
      </trkpt>
      <trkpt lat="46.49721" lon="6.28816">
        <ele>739</ele>
        <time>2022-03-09T15:22:11.000Z</time>
      </trkpt>
      <trkpt lat="46.4972" lon="6.28815">
        <ele>738.79998779297</ele>
        <time>2022-03-09T15:22:21.000Z</time>
      </trkpt>
      <trkpt lat="46.49723" lon="6.28817">
        <ele>738.59997558594</ele>
        <time>2022-03-09T15:22:29.000Z</time>
      </trkpt>
      <trkpt lat="46.49723" lon="6.28817">
        <ele>738.40002441406</ele>
        <time>2022-03-09T15:22:35.000Z</time>
      </trkpt>
      <trkpt lat="46.49722" lon="6.28817">
        <ele>738.40002441406</ele>
        <time>2022-03-09T15:22:37.000Z</time>
      </trkpt>
      <trkpt lat="46.49721" lon="6.28817">
        <ele>738.40002441406</ele>
        <time>2022-03-09T15:22:38.000Z</time>
      </trkpt>
      <trkpt lat="46.49711" lon="6.28816">
        <ele>737.59997558594</ele>
        <time>2022-03-09T15:22:42.000Z</time>
      </trkpt>
      <trkpt lat="46.49708" lon="6.28816">
        <ele>736.79998779297</ele>
        <time>2022-03-09T15:22:43.000Z</time>
      </trkpt>
      <trkpt lat="46.49692" lon="6.28821">
        <ele>735.59997558594</ele>
        <time>2022-03-09T15:22:47.000Z</time>
      </trkpt>
      <trkpt lat="46.49688" lon="6.28824">
        <ele>735.20001220703</ele>
        <time>2022-03-09T15:22:48.000Z</time>
      </trkpt>
      <trkpt lat="46.49674" lon="6.28836">
        <ele>734.40002441406</ele>
        <time>2022-03-09T15:22:52.000Z</time>
      </trkpt>
      <trkpt lat="46.49672" lon="6.28838">
        <ele>734.40002441406</ele>
        <time>2022-03-09T15:22:53.000Z</time>
      </trkpt>
      <trkpt lat="46.49653" lon="6.28858">
        <ele>733.79998779297</ele>
        <time>2022-03-09T15:23:00.000Z</time>
      </trkpt>
      <trkpt lat="46.49642" lon="6.28857">
        <ele>733.79998779297</ele>
        <time>2022-03-09T15:23:04.000Z</time>
      </trkpt>
      <trkpt lat="46.49625" lon="6.28849">
        <ele>734</ele>
        <time>2022-03-09T15:23:10.000Z</time>
      </trkpt>
      <trkpt lat="46.49602" lon="6.28831">
        <ele>734.20001220703</ele>
        <time>2022-03-09T15:23:17.000Z</time>
      </trkpt>
      <trkpt lat="46.4958" lon="6.28811">
        <ele>734.79998779297</ele>
        <time>2022-03-09T15:23:25.000Z</time>
      </trkpt>
      <trkpt lat="46.49569" lon="6.288">
        <ele>735.59997558594</ele>
        <time>2022-03-09T15:23:29.000Z</time>
      </trkpt>
      <trkpt lat="46.49556" lon="6.28786">
        <ele>735.79998779297</ele>
        <time>2022-03-09T15:23:34.000Z</time>
      </trkpt>
      <trkpt lat="46.49535" lon="6.28768">
        <ele>736.20001220703</ele>
        <time>2022-03-09T15:23:41.000Z</time>
      </trkpt>
      <trkpt lat="46.49521" lon="6.28751">
        <ele>736.40002441406</ele>
        <time>2022-03-09T15:23:47.000Z</time>
      </trkpt>
      <trkpt lat="46.49517" lon="6.28746">
        <ele>736.59997558594</ele>
        <time>2022-03-09T15:23:49.000Z</time>
      </trkpt>
      <trkpt lat="46.495" lon="6.28721">
        <ele>737.59997558594</ele>
        <time>2022-03-09T15:23:57.000Z</time>
      </trkpt>
      <trkpt lat="46.49498" lon="6.28718">
        <ele>737.79998779297</ele>
        <time>2022-03-09T15:23:58.000Z</time>
      </trkpt>
      <trkpt lat="46.49481" lon="6.28698">
        <ele>738.40002441406</ele>
        <time>2022-03-09T15:24:05.000Z</time>
      </trkpt>
      <trkpt lat="46.49473" lon="6.28688">
        <ele>738.79998779297</ele>
        <time>2022-03-09T15:24:08.000Z</time>
      </trkpt>
      <trkpt lat="46.49461" lon="6.28673">
        <ele>739.59997558594</ele>
        <time>2022-03-09T15:24:13.000Z</time>
      </trkpt>
      <trkpt lat="46.49455" lon="6.28664">
        <ele>739.79998779297</ele>
        <time>2022-03-09T15:24:16.000Z</time>
      </trkpt>
      <trkpt lat="46.49443" lon="6.28651">
        <ele>740.79998779297</ele>
        <time>2022-03-09T15:24:21.000Z</time>
      </trkpt>
      <trkpt lat="46.49437" lon="6.28646">
        <ele>741</ele>
        <time>2022-03-09T15:24:23.000Z</time>
      </trkpt>
      <trkpt lat="46.49419" lon="6.28634">
        <ele>741.40002441406</ele>
        <time>2022-03-09T15:24:29.000Z</time>
      </trkpt>
      <trkpt lat="46.49393" lon="6.28622">
        <ele>741.40002441406</ele>
        <time>2022-03-09T15:24:37.000Z</time>
      </trkpt>
      <trkpt lat="46.49364" lon="6.28611">
        <ele>741.79998779297</ele>
        <time>2022-03-09T15:24:46.000Z</time>
      </trkpt>
      <trkpt lat="46.49358" lon="6.28609">
        <ele>742</ele>
        <time>2022-03-09T15:24:48.000Z</time>
      </trkpt>
      <trkpt lat="46.49346" lon="6.28604">
        <ele>742</ele>
        <time>2022-03-09T15:24:52.000Z</time>
      </trkpt>
      <trkpt lat="46.49325" lon="6.28594">
        <ele>741.59997558594</ele>
        <time>2022-03-09T15:24:59.000Z</time>
      </trkpt>
      <trkpt lat="46.49309" lon="6.28578">
        <ele>741</ele>
        <time>2022-03-09T15:25:04.000Z</time>
      </trkpt>
      <trkpt lat="46.493" lon="6.28567">
        <ele>740.79998779297</ele>
        <time>2022-03-09T15:25:07.000Z</time>
      </trkpt>
      <trkpt lat="46.4928" lon="6.2854">
        <ele>740.79998779297</ele>
        <time>2022-03-09T15:25:13.000Z</time>
      </trkpt>
      <trkpt lat="46.49275" lon="6.2853">
        <ele>740.79998779297</ele>
        <time>2022-03-09T15:25:15.000Z</time>
      </trkpt>
      <trkpt lat="46.49257" lon="6.28498">
        <ele>741.40002441406</ele>
        <time>2022-03-09T15:25:22.000Z</time>
      </trkpt>
      <trkpt lat="46.49241" lon="6.28474">
        <ele>742</ele>
        <time>2022-03-09T15:25:28.000Z</time>
      </trkpt>
      <trkpt lat="46.49238" lon="6.28468">
        <ele>742</ele>
        <time>2022-03-09T15:25:29.000Z</time>
      </trkpt>
      <trkpt lat="46.49234" lon="6.28463">
        <ele>742</ele>
        <time>2022-03-09T15:25:30.000Z</time>
      </trkpt>
      <trkpt lat="46.49225" lon="6.28447">
        <ele>743.40002441406</ele>
        <time>2022-03-09T15:25:33.000Z</time>
      </trkpt>
      <trkpt lat="46.49219" lon="6.28437">
        <ele>744.20001220703</ele>
        <time>2022-03-09T15:25:35.000Z</time>
      </trkpt>
      <trkpt lat="46.49216" lon="6.28433">
        <ele>744.40002441406</ele>
        <time>2022-03-09T15:25:36.000Z</time>
      </trkpt>
      <trkpt lat="46.49201" lon="6.28415">
        <ele>745.59997558594</ele>
        <time>2022-03-09T15:25:40.000Z</time>
      </trkpt>
      <trkpt lat="46.49193" lon="6.28408">
        <ele>746</ele>
        <time>2022-03-09T15:25:42.000Z</time>
      </trkpt>
      <trkpt lat="46.49176" lon="6.28393">
        <ele>746.59997558594</ele>
        <time>2022-03-09T15:25:47.000Z</time>
      </trkpt>
      <trkpt lat="46.49159" lon="6.28366">
        <ele>747.20001220703</ele>
        <time>2022-03-09T15:25:54.000Z</time>
      </trkpt>
      <trkpt lat="46.49133" lon="6.2834">
        <ele>746.79998779297</ele>
        <time>2022-03-09T15:26:03.000Z</time>
      </trkpt>
      <trkpt lat="46.4911" lon="6.28321">
        <ele>746.79998779297</ele>
        <time>2022-03-09T15:26:11.000Z</time>
      </trkpt>
      <trkpt lat="46.49094" lon="6.28306">
        <ele>747.20001220703</ele>
        <time>2022-03-09T15:26:17.000Z</time>
      </trkpt>
      <trkpt lat="46.49077" lon="6.28289">
        <ele>746.59997558594</ele>
        <time>2022-03-09T15:26:23.000Z</time>
      </trkpt>
      <trkpt lat="46.49065" lon="6.2828">
        <ele>747.59997558594</ele>
        <time>2022-03-09T15:26:27.000Z</time>
      </trkpt>
      <trkpt lat="46.49062" lon="6.28278">
        <ele>747.79998779297</ele>
        <time>2022-03-09T15:26:28.000Z</time>
      </trkpt>
      <trkpt lat="46.4904" lon="6.28259">
        <ele>748.59997558594</ele>
        <time>2022-03-09T15:26:36.000Z</time>
      </trkpt>
      <trkpt lat="46.49038" lon="6.28256">
        <ele>748.59997558594</ele>
        <time>2022-03-09T15:26:37.000Z</time>
      </trkpt>
      <trkpt lat="46.49029" lon="6.28249">
        <ele>748.79998779297</ele>
        <time>2022-03-09T15:26:40.000Z</time>
      </trkpt>
      <trkpt lat="46.49018" lon="6.28238">
        <ele>748.79998779297</ele>
        <time>2022-03-09T15:26:44.000Z</time>
      </trkpt>
      <trkpt lat="46.48994" lon="6.28211">
        <ele>748.20001220703</ele>
        <time>2022-03-09T15:26:53.000Z</time>
      </trkpt>
      <trkpt lat="46.48973" lon="6.28188">
        <ele>748.79998779297</ele>
        <time>2022-03-09T15:27:01.000Z</time>
      </trkpt>
      <trkpt lat="46.48955" lon="6.28167">
        <ele>749</ele>
        <time>2022-03-09T15:27:08.000Z</time>
      </trkpt>
      <trkpt lat="46.48936" lon="6.28138">
        <ele>749.40002441406</ele>
        <time>2022-03-09T15:27:16.000Z</time>
      </trkpt>
      <trkpt lat="46.48919" lon="6.28108">
        <ele>749.20001220703</ele>
        <time>2022-03-09T15:27:24.000Z</time>
      </trkpt>
      <trkpt lat="46.48905" lon="6.28077">
        <ele>749.40002441406</ele>
        <time>2022-03-09T15:27:32.000Z</time>
      </trkpt>
      <trkpt lat="46.48897" lon="6.28044">
        <ele>749.79998779297</ele>
        <time>2022-03-09T15:27:40.000Z</time>
      </trkpt>
      <trkpt lat="46.48896" lon="6.28039">
        <ele>750</ele>
        <time>2022-03-09T15:27:41.000Z</time>
      </trkpt>
      <trkpt lat="46.48894" lon="6.28009">
        <ele>749.59997558594</ele>
        <time>2022-03-09T15:27:47.000Z</time>
      </trkpt>
      <trkpt lat="46.48894" lon="6.27975">
        <ele>749.59997558594</ele>
        <time>2022-03-09T15:27:53.000Z</time>
      </trkpt>
      <trkpt lat="46.48898" lon="6.2794">
        <ele>749.59997558594</ele>
        <time>2022-03-09T15:28:00.000Z</time>
      </trkpt>
      <trkpt lat="46.48902" lon="6.27909">
        <ele>750.40002441406</ele>
        <time>2022-03-09T15:28:06.000Z</time>
      </trkpt>
      <trkpt lat="46.48902" lon="6.27876">
        <ele>750.59997558594</ele>
        <time>2022-03-09T15:28:13.000Z</time>
      </trkpt>
      <trkpt lat="46.48901" lon="6.27854">
        <ele>751</ele>
        <time>2022-03-09T15:28:18.000Z</time>
      </trkpt>
      <trkpt lat="46.489" lon="6.27841">
        <ele>751.40002441406</ele>
        <time>2022-03-09T15:28:21.000Z</time>
      </trkpt>
      <trkpt lat="46.48901" lon="6.27807">
        <ele>752</ele>
        <time>2022-03-09T15:28:28.000Z</time>
      </trkpt>
      <trkpt lat="46.48904" lon="6.27755">
        <ele>752</ele>
        <time>2022-03-09T15:28:38.000Z</time>
      </trkpt>
      <trkpt lat="46.48904" lon="6.27749">
        <ele>752.20001220703</ele>
        <time>2022-03-09T15:28:39.000Z</time>
      </trkpt>
      <trkpt lat="46.48907" lon="6.27719">
        <ele>753</ele>
        <time>2022-03-09T15:28:45.000Z</time>
      </trkpt>
      <trkpt lat="46.48909" lon="6.27696">
        <ele>753</ele>
        <time>2022-03-09T15:28:50.000Z</time>
      </trkpt>
      <trkpt lat="46.4891" lon="6.27687">
        <ele>753.20001220703</ele>
        <time>2022-03-09T15:28:52.000Z</time>
      </trkpt>
      <trkpt lat="46.4891" lon="6.27674">
        <ele>753.40002441406</ele>
        <time>2022-03-09T15:28:55.000Z</time>
      </trkpt>
      <trkpt lat="46.48907" lon="6.27646">
        <ele>754.40002441406</ele>
        <time>2022-03-09T15:29:02.000Z</time>
      </trkpt>
      <trkpt lat="46.48898" lon="6.27629">
        <ele>754.59997558594</ele>
        <time>2022-03-09T15:29:07.000Z</time>
      </trkpt>
      <trkpt lat="46.4888" lon="6.27602">
        <ele>754.79998779297</ele>
        <time>2022-03-09T15:29:15.000Z</time>
      </trkpt>
      <trkpt lat="46.48862" lon="6.27569">
        <ele>755.40002441406</ele>
        <time>2022-03-09T15:29:24.000Z</time>
      </trkpt>
      <trkpt lat="46.4886" lon="6.27567">
        <ele>755.40002441406</ele>
        <time>2022-03-09T15:29:25.000Z</time>
      </trkpt>
      <trkpt lat="46.48849" lon="6.27547">
        <ele>755.20001220703</ele>
        <time>2022-03-09T15:29:31.000Z</time>
      </trkpt>
      <trkpt lat="46.48829" lon="6.27516">
        <ele>755.79998779297</ele>
        <time>2022-03-09T15:29:40.000Z</time>
      </trkpt>
      <trkpt lat="46.48808" lon="6.2748">
        <ele>756.20001220703</ele>
        <time>2022-03-09T15:29:50.000Z</time>
      </trkpt>
      <trkpt lat="46.48806" lon="6.27476">
        <ele>756.40002441406</ele>
        <time>2022-03-09T15:29:51.000Z</time>
      </trkpt>
      <trkpt lat="46.48784" lon="6.27444">
        <ele>756.59997558594</ele>
        <time>2022-03-09T15:30:00.000Z</time>
      </trkpt>
      <trkpt lat="46.48772" lon="6.27427">
        <ele>757.40002441406</ele>
        <time>2022-03-09T15:30:05.000Z</time>
      </trkpt>
      <trkpt lat="46.48762" lon="6.27413">
        <ele>757.79998779297</ele>
        <time>2022-03-09T15:30:09.000Z</time>
      </trkpt>
      <trkpt lat="46.48741" lon="6.27399">
        <ele>758.40002441406</ele>
        <time>2022-03-09T15:30:16.000Z</time>
      </trkpt>
      <trkpt lat="46.48729" lon="6.27393">
        <ele>758.59997558594</ele>
        <time>2022-03-09T15:30:20.000Z</time>
      </trkpt>
      <trkpt lat="46.48716" lon="6.27387">
        <ele>759</ele>
        <time>2022-03-09T15:30:24.000Z</time>
      </trkpt>
      <trkpt lat="46.48696" lon="6.27374">
        <ele>759.59997558594</ele>
        <time>2022-03-09T15:30:31.000Z</time>
      </trkpt>
      <trkpt lat="46.48672" lon="6.27362">
        <ele>759.79998779297</ele>
        <time>2022-03-09T15:30:38.000Z</time>
      </trkpt>
      <trkpt lat="46.48644" lon="6.27353">
        <ele>760.59997558594</ele>
        <time>2022-03-09T15:30:46.000Z</time>
      </trkpt>
      <trkpt lat="46.4864" lon="6.27352">
        <ele>760.59997558594</ele>
        <time>2022-03-09T15:30:47.000Z</time>
      </trkpt>
      <trkpt lat="46.48616" lon="6.27349">
        <ele>760.79998779297</ele>
        <time>2022-03-09T15:30:54.000Z</time>
      </trkpt>
      <trkpt lat="46.48602" lon="6.27351">
        <ele>761</ele>
        <time>2022-03-09T15:30:59.000Z</time>
      </trkpt>
      <trkpt lat="46.48585" lon="6.2735">
        <ele>761</ele>
        <time>2022-03-09T15:31:05.000Z</time>
      </trkpt>
      <trkpt lat="46.48563" lon="6.27346">
        <ele>761.59997558594</ele>
        <time>2022-03-09T15:31:12.000Z</time>
      </trkpt>
      <trkpt lat="46.48557" lon="6.27347">
        <ele>761.59997558594</ele>
        <time>2022-03-09T15:31:14.000Z</time>
      </trkpt>
      <trkpt lat="46.48545" lon="6.27345">
        <ele>761.59997558594</ele>
        <time>2022-03-09T15:31:18.000Z</time>
      </trkpt>
      <trkpt lat="46.48529" lon="6.2734">
        <ele>762</ele>
        <time>2022-03-09T15:31:25.000Z</time>
      </trkpt>
      <trkpt lat="46.48516" lon="6.27338">
        <ele>762.59997558594</ele>
        <time>2022-03-09T15:31:31.000Z</time>
      </trkpt>
      <trkpt lat="46.48513" lon="6.27338">
        <ele>762.79998779297</ele>
        <time>2022-03-09T15:31:32.000Z</time>
      </trkpt>
      <trkpt lat="46.48503" lon="6.27338">
        <ele>763</ele>
        <time>2022-03-09T15:31:36.000Z</time>
      </trkpt>
      <trkpt lat="46.48486" lon="6.27336">
        <ele>763.40002441406</ele>
        <time>2022-03-09T15:31:42.000Z</time>
      </trkpt>
      <trkpt lat="46.4847" lon="6.27339">
        <ele>763.79998779297</ele>
        <time>2022-03-09T15:31:47.000Z</time>
      </trkpt>
      <trkpt lat="46.48449" lon="6.27336">
        <ele>764.40002441406</ele>
        <time>2022-03-09T15:31:53.000Z</time>
      </trkpt>
      <trkpt lat="46.4844" lon="6.27335">
        <ele>765</ele>
        <time>2022-03-09T15:31:56.000Z</time>
      </trkpt>
      <trkpt lat="46.48431" lon="6.27332">
        <ele>765.40002441406</ele>
        <time>2022-03-09T15:31:59.000Z</time>
      </trkpt>
      <trkpt lat="46.4842" lon="6.27329">
        <ele>766</ele>
        <time>2022-03-09T15:32:03.000Z</time>
      </trkpt>
      <trkpt lat="46.4841" lon="6.27328">
        <ele>766.79998779297</ele>
        <time>2022-03-09T15:32:07.000Z</time>
      </trkpt>
      <trkpt lat="46.48404" lon="6.27328">
        <ele>767</ele>
        <time>2022-03-09T15:32:09.000Z</time>
      </trkpt>
      <trkpt lat="46.48399" lon="6.27328">
        <ele>767.20001220703</ele>
        <time>2022-03-09T15:32:11.000Z</time>
      </trkpt>
      <trkpt lat="46.48388" lon="6.27325">
        <ele>767.79998779297</ele>
        <time>2022-03-09T15:32:15.000Z</time>
      </trkpt>
      <trkpt lat="46.48378" lon="6.27322">
        <ele>768.20001220703</ele>
        <time>2022-03-09T15:32:19.000Z</time>
      </trkpt>
      <trkpt lat="46.48366" lon="6.2732">
        <ele>768.40002441406</ele>
        <time>2022-03-09T15:32:23.000Z</time>
      </trkpt>
      <trkpt lat="46.48344" lon="6.27319">
        <ele>769.20001220703</ele>
        <time>2022-03-09T15:32:30.000Z</time>
      </trkpt>
      <trkpt lat="46.48337" lon="6.27317">
        <ele>769.40002441406</ele>
        <time>2022-03-09T15:32:32.000Z</time>
      </trkpt>
      <trkpt lat="46.48321" lon="6.27313">
        <ele>769.40002441406</ele>
        <time>2022-03-09T15:32:37.000Z</time>
      </trkpt>
      <trkpt lat="46.48301" lon="6.27308">
        <ele>769.79998779297</ele>
        <time>2022-03-09T15:32:44.000Z</time>
      </trkpt>
      <trkpt lat="46.48281" lon="6.27302">
        <ele>770</ele>
        <time>2022-03-09T15:32:50.000Z</time>
      </trkpt>
      <trkpt lat="46.48267" lon="6.27297">
        <ele>770.20001220703</ele>
        <time>2022-03-09T15:32:55.000Z</time>
      </trkpt>
      <trkpt lat="46.48261" lon="6.27295">
        <ele>770.40002441406</ele>
        <time>2022-03-09T15:32:57.000Z</time>
      </trkpt>
      <trkpt lat="46.48246" lon="6.27294">
        <ele>770.59997558594</ele>
        <time>2022-03-09T15:33:02.000Z</time>
      </trkpt>
      <trkpt lat="46.48231" lon="6.27285">
        <ele>771</ele>
        <time>2022-03-09T15:33:08.000Z</time>
      </trkpt>
      <trkpt lat="46.4822" lon="6.27285">
        <ele>771.40002441406</ele>
        <time>2022-03-09T15:33:12.000Z</time>
      </trkpt>
      <trkpt lat="46.48207" lon="6.27289">
        <ele>771.59997558594</ele>
        <time>2022-03-09T15:33:15.000Z</time>
      </trkpt>
      <trkpt lat="46.48191" lon="6.27288">
        <ele>771.79998779297</ele>
        <time>2022-03-09T15:33:20.000Z</time>
      </trkpt>
      <trkpt lat="46.4817" lon="6.27285">
        <ele>772.59997558594</ele>
        <time>2022-03-09T15:33:27.000Z</time>
      </trkpt>
      <trkpt lat="46.48167" lon="6.27284">
        <ele>772.59997558594</ele>
        <time>2022-03-09T15:33:28.000Z</time>
      </trkpt>
      <trkpt lat="46.48144" lon="6.2728">
        <ele>773.40002441406</ele>
        <time>2022-03-09T15:33:36.000Z</time>
      </trkpt>
      <trkpt lat="46.48139" lon="6.27278">
        <ele>773.79998779297</ele>
        <time>2022-03-09T15:33:38.000Z</time>
      </trkpt>
      <trkpt lat="46.48132" lon="6.27276">
        <ele>775</ele>
        <time>2022-03-09T15:33:42.000Z</time>
      </trkpt>
      <trkpt lat="46.4813" lon="6.27276">
        <ele>775.40002441406</ele>
        <time>2022-03-09T15:33:43.000Z</time>
      </trkpt>
      <trkpt lat="46.48127" lon="6.27274">
        <ele>776</ele>
        <time>2022-03-09T15:33:45.000Z</time>
      </trkpt>
      <trkpt lat="46.48119" lon="6.27273">
        <ele>776.59997558594</ele>
        <time>2022-03-09T15:33:49.000Z</time>
      </trkpt>
      <trkpt lat="46.48111" lon="6.27272">
        <ele>777.20001220703</ele>
        <time>2022-03-09T15:33:53.000Z</time>
      </trkpt>
      <trkpt lat="46.48106" lon="6.27272">
        <ele>777.40002441406</ele>
        <time>2022-03-09T15:33:55.000Z</time>
      </trkpt>
      <trkpt lat="46.48095" lon="6.27269">
        <ele>778.20001220703</ele>
        <time>2022-03-09T15:34:01.000Z</time>
      </trkpt>
      <trkpt lat="46.4808" lon="6.27264">
        <ele>779</ele>
        <time>2022-03-09T15:34:07.000Z</time>
      </trkpt>
      <trkpt lat="46.48076" lon="6.2726">
        <ele>779.40002441406</ele>
        <time>2022-03-09T15:34:09.000Z</time>
      </trkpt>
      <trkpt lat="46.48069" lon="6.27257">
        <ele>779.79998779297</ele>
        <time>2022-03-09T15:34:12.000Z</time>
      </trkpt>
      <trkpt lat="46.4806" lon="6.27252">
        <ele>780.40002441406</ele>
        <time>2022-03-09T15:34:17.000Z</time>
      </trkpt>
      <trkpt lat="46.48056" lon="6.27249">
        <ele>780.59997558594</ele>
        <time>2022-03-09T15:34:19.000Z</time>
      </trkpt>
      <trkpt lat="46.48045" lon="6.27234">
        <ele>781.59997558594</ele>
        <time>2022-03-09T15:34:25.000Z</time>
      </trkpt>
      <trkpt lat="46.48037" lon="6.2722">
        <ele>782.59997558594</ele>
        <time>2022-03-09T15:34:31.000Z</time>
      </trkpt>
      <trkpt lat="46.48028" lon="6.27205">
        <ele>783.40002441406</ele>
        <time>2022-03-09T15:34:37.000Z</time>
      </trkpt>
      <trkpt lat="46.48024" lon="6.27201">
        <ele>783.59997558594</ele>
        <time>2022-03-09T15:34:39.000Z</time>
      </trkpt>
      <trkpt lat="46.48018" lon="6.27194">
        <ele>784.20001220703</ele>
        <time>2022-03-09T15:34:43.000Z</time>
      </trkpt>
      <trkpt lat="46.48014" lon="6.27184">
        <ele>785</ele>
        <time>2022-03-09T15:34:47.000Z</time>
      </trkpt>
      <trkpt lat="46.48009" lon="6.27176">
        <ele>785.40002441406</ele>
        <time>2022-03-09T15:34:51.000Z</time>
      </trkpt>
      <trkpt lat="46.48003" lon="6.27171">
        <ele>786</ele>
        <time>2022-03-09T15:34:55.000Z</time>
      </trkpt>
      <trkpt lat="46.47998" lon="6.27166">
        <ele>786.40002441406</ele>
        <time>2022-03-09T15:34:58.000Z</time>
      </trkpt>
      <trkpt lat="46.47991" lon="6.27162">
        <ele>787</ele>
        <time>2022-03-09T15:35:02.000Z</time>
      </trkpt>
      <trkpt lat="46.47987" lon="6.27158">
        <ele>787.40002441406</ele>
        <time>2022-03-09T15:35:05.000Z</time>
      </trkpt>
      <trkpt lat="46.4798" lon="6.27153">
        <ele>787.79998779297</ele>
        <time>2022-03-09T15:35:09.000Z</time>
      </trkpt>
      <trkpt lat="46.47978" lon="6.27151">
        <ele>788</ele>
        <time>2022-03-09T15:35:10.000Z</time>
      </trkpt>
      <trkpt lat="46.47968" lon="6.27139">
        <ele>788.59997558594</ele>
        <time>2022-03-09T15:35:17.000Z</time>
      </trkpt>
      <trkpt lat="46.47963" lon="6.27133">
        <ele>789.20001220703</ele>
        <time>2022-03-09T15:35:20.000Z</time>
      </trkpt>
      <trkpt lat="46.47953" lon="6.27126">
        <ele>790.20001220703</ele>
        <time>2022-03-09T15:35:25.000Z</time>
      </trkpt>
      <trkpt lat="46.47951" lon="6.27125">
        <ele>790.20001220703</ele>
        <time>2022-03-09T15:35:26.000Z</time>
      </trkpt>
      <trkpt lat="46.47941" lon="6.27115">
        <ele>790.40002441406</ele>
        <time>2022-03-09T15:35:33.000Z</time>
      </trkpt>
      <trkpt lat="46.47935" lon="6.27108">
        <ele>791.20001220703</ele>
        <time>2022-03-09T15:35:37.000Z</time>
      </trkpt>
      <trkpt lat="46.47926" lon="6.27101">
        <ele>792</ele>
        <time>2022-03-09T15:35:42.000Z</time>
      </trkpt>
      <trkpt lat="46.47923" lon="6.27098">
        <ele>792.20001220703</ele>
        <time>2022-03-09T15:35:44.000Z</time>
      </trkpt>
      <trkpt lat="46.47916" lon="6.27093">
        <ele>792.79998779297</ele>
        <time>2022-03-09T15:35:48.000Z</time>
      </trkpt>
      <trkpt lat="46.47911" lon="6.27089">
        <ele>793.40002441406</ele>
        <time>2022-03-09T15:35:51.000Z</time>
      </trkpt>
      <trkpt lat="46.47902" lon="6.27081">
        <ele>794</ele>
        <time>2022-03-09T15:35:56.000Z</time>
      </trkpt>
      <trkpt lat="46.47896" lon="6.27077">
        <ele>794.59997558594</ele>
        <time>2022-03-09T15:35:59.000Z</time>
      </trkpt>
      <trkpt lat="46.47888" lon="6.27071">
        <ele>795.20001220703</ele>
        <time>2022-03-09T15:36:03.000Z</time>
      </trkpt>
      <trkpt lat="46.47882" lon="6.27067">
        <ele>795.79998779297</ele>
        <time>2022-03-09T15:36:06.000Z</time>
      </trkpt>
      <trkpt lat="46.47872" lon="6.27062">
        <ele>796.40002441406</ele>
        <time>2022-03-09T15:36:11.000Z</time>
      </trkpt>
      <trkpt lat="46.47867" lon="6.2706">
        <ele>796.79998779297</ele>
        <time>2022-03-09T15:36:14.000Z</time>
      </trkpt>
      <trkpt lat="46.47863" lon="6.27057">
        <ele>797.40002441406</ele>
        <time>2022-03-09T15:36:17.000Z</time>
      </trkpt>
      <trkpt lat="46.47862" lon="6.27054">
        <ele>797.79998779297</ele>
        <time>2022-03-09T15:36:20.000Z</time>
      </trkpt>
      <trkpt lat="46.4786" lon="6.27052">
        <ele>797.79998779297</ele>
        <time>2022-03-09T15:36:24.000Z</time>
      </trkpt>
      <trkpt lat="46.4786" lon="6.2705">
        <ele>798.20001220703</ele>
        <time>2022-03-09T15:36:32.000Z</time>
      </trkpt>
      <trkpt lat="46.47863" lon="6.27048">
        <ele>798</ele>
        <time>2022-03-09T15:36:40.000Z</time>
      </trkpt>
      <trkpt lat="46.47862" lon="6.27047">
        <ele>797.40002441406</ele>
        <time>2022-03-09T15:36:48.000Z</time>
      </trkpt>
      <trkpt lat="46.47863" lon="6.27044">
        <ele>797.40002441406</ele>
        <time>2022-03-09T15:36:56.000Z</time>
      </trkpt>
      <trkpt lat="46.47864" lon="6.27045">
        <ele>797.20001220703</ele>
        <time>2022-03-09T15:37:07.000Z</time>
      </trkpt>
      <trkpt lat="46.47865" lon="6.27049">
        <ele>796.79998779297</ele>
        <time>2022-03-09T15:37:14.000Z</time>
      </trkpt>
      <trkpt lat="46.47866" lon="6.27049">
        <ele>796.79998779297</ele>
        <time>2022-03-09T15:37:16.000Z</time>
      </trkpt>
      <trkpt lat="46.47867" lon="6.27046">
        <ele>796.79998779297</ele>
        <time>2022-03-09T15:37:23.000Z</time>
      </trkpt>
      <trkpt lat="46.47868" lon="6.27044">
        <ele>797.20001220703</ele>
        <time>2022-03-09T15:37:34.000Z</time>
      </trkpt>
      <trkpt lat="46.47865" lon="6.27045">
        <ele>797.20001220703</ele>
        <time>2022-03-09T15:37:43.000Z</time>
      </trkpt>
      <trkpt lat="46.47861" lon="6.27045">
        <ele>797.20001220703</ele>
        <time>2022-03-09T15:37:52.000Z</time>
      </trkpt>
      <trkpt lat="46.47864" lon="6.27045">
        <ele>797.20001220703</ele>
        <time>2022-03-09T15:37:59.000Z</time>
      </trkpt>
      <trkpt lat="46.47865" lon="6.27045">
        <ele>797.20001220703</ele>
        <time>2022-03-09T15:38:08.000Z</time>
      </trkpt>
      <trkpt lat="46.47866" lon="6.27045">
        <ele>797.20001220703</ele>
        <time>2022-03-09T15:38:17.000Z</time>
      </trkpt>
      <trkpt lat="46.47866" lon="6.27042">
        <ele>797.20001220703</ele>
        <time>2022-03-09T15:38:22.000Z</time>
      </trkpt>
      <trkpt lat="46.47865" lon="6.27041">
        <ele>797.20001220703</ele>
        <time>2022-03-09T15:38:23.000Z</time>
      </trkpt>
      <trkpt lat="46.47856" lon="6.27038">
        <ele>797.59997558594</ele>
        <time>2022-03-09T15:38:30.000Z</time>
      </trkpt>
      <trkpt lat="46.47853" lon="6.27035">
        <ele>797.79998779297</ele>
        <time>2022-03-09T15:38:33.000Z</time>
      </trkpt>
      <trkpt lat="46.4785" lon="6.27032">
        <ele>798.40002441406</ele>
        <time>2022-03-09T15:38:35.000Z</time>
      </trkpt>
      <trkpt lat="46.47847" lon="6.27029">
        <ele>798.79998779297</ele>
        <time>2022-03-09T15:38:37.000Z</time>
      </trkpt>
      <trkpt lat="46.47844" lon="6.27024">
        <ele>800</ele>
        <time>2022-03-09T15:38:41.000Z</time>
      </trkpt>
      <trkpt lat="46.47843" lon="6.27022">
        <ele>800.20001220703</ele>
        <time>2022-03-09T15:38:42.000Z</time>
      </trkpt>
      <trkpt lat="46.47841" lon="6.2702">
        <ele>800.40002441406</ele>
        <time>2022-03-09T15:38:44.000Z</time>
      </trkpt>
      <trkpt lat="46.47837" lon="6.27014">
        <ele>801.20001220703</ele>
        <time>2022-03-09T15:38:48.000Z</time>
      </trkpt>
      <trkpt lat="46.47834" lon="6.27009">
        <ele>802</ele>
        <time>2022-03-09T15:38:51.000Z</time>
      </trkpt>
      <trkpt lat="46.47834" lon="6.27007">
        <ele>802.40002441406</ele>
        <time>2022-03-09T15:38:52.000Z</time>
      </trkpt>
      <trkpt lat="46.47833" lon="6.27004">
        <ele>802.59997558594</ele>
        <time>2022-03-09T15:38:54.000Z</time>
      </trkpt>
      <trkpt lat="46.47829" lon="6.26993">
        <ele>803.40002441406</ele>
        <time>2022-03-09T15:38:59.000Z</time>
      </trkpt>
      <trkpt lat="46.47827" lon="6.26986">
        <ele>804</ele>
        <time>2022-03-09T15:39:02.000Z</time>
      </trkpt>
      <trkpt lat="46.47824" lon="6.26977">
        <ele>804.40002441406</ele>
        <time>2022-03-09T15:39:06.000Z</time>
      </trkpt>
      <trkpt lat="46.47822" lon="6.2697">
        <ele>805.20001220703</ele>
        <time>2022-03-09T15:39:09.000Z</time>
      </trkpt>
      <trkpt lat="46.47821" lon="6.26967">
        <ele>805.59997558594</ele>
        <time>2022-03-09T15:39:10.000Z</time>
      </trkpt>
      <trkpt lat="46.47818" lon="6.26959">
        <ele>806.59997558594</ele>
        <time>2022-03-09T15:39:14.000Z</time>
      </trkpt>
      <trkpt lat="46.47817" lon="6.26957">
        <ele>806.79998779297</ele>
        <time>2022-03-09T15:39:15.000Z</time>
      </trkpt>
      <trkpt lat="46.47813" lon="6.26951">
        <ele>807.59997558594</ele>
        <time>2022-03-09T15:39:19.000Z</time>
      </trkpt>
      <trkpt lat="46.47811" lon="6.26948">
        <ele>808.20001220703</ele>
        <time>2022-03-09T15:39:21.000Z</time>
      </trkpt>
      <trkpt lat="46.47808" lon="6.26943">
        <ele>808.79998779297</ele>
        <time>2022-03-09T15:39:23.000Z</time>
      </trkpt>
      <trkpt lat="46.47807" lon="6.26941">
        <ele>809</ele>
        <time>2022-03-09T15:39:24.000Z</time>
      </trkpt>
      <trkpt lat="46.47803" lon="6.26933">
        <ele>809.40002441406</ele>
        <time>2022-03-09T15:39:28.000Z</time>
      </trkpt>
      <trkpt lat="46.47799" lon="6.26927">
        <ele>810</ele>
        <time>2022-03-09T15:39:32.000Z</time>
      </trkpt>
      <trkpt lat="46.47797" lon="6.26921">
        <ele>810.40002441406</ele>
        <time>2022-03-09T15:39:35.000Z</time>
      </trkpt>
      <trkpt lat="46.47794" lon="6.26907">
        <ele>810.79998779297</ele>
        <time>2022-03-09T15:39:41.000Z</time>
      </trkpt>
      <trkpt lat="46.47793" lon="6.26901">
        <ele>810.59997558594</ele>
        <time>2022-03-09T15:39:44.000Z</time>
      </trkpt>
      <trkpt lat="46.47792" lon="6.26895">
        <ele>810.40002441406</ele>
        <time>2022-03-09T15:39:47.000Z</time>
      </trkpt>
      <trkpt lat="46.47786" lon="6.26881">
        <ele>809.79998779297</ele>
        <time>2022-03-09T15:39:54.000Z</time>
      </trkpt>
      <trkpt lat="46.47776" lon="6.26873">
        <ele>809.79998779297</ele>
        <time>2022-03-09T15:40:00.000Z</time>
      </trkpt>
      <trkpt lat="46.47774" lon="6.26874">
        <ele>810</ele>
        <time>2022-03-09T15:40:02.000Z</time>
      </trkpt>
      <trkpt lat="46.47772" lon="6.26877">
        <ele>810.20001220703</ele>
        <time>2022-03-09T15:40:06.000Z</time>
      </trkpt>
      <trkpt lat="46.47765" lon="6.26889">
        <ele>810.40002441406</ele>
        <time>2022-03-09T15:40:15.000Z</time>
      </trkpt>
      <trkpt lat="46.4776" lon="6.26901">
        <ele>811.20001220703</ele>
        <time>2022-03-09T15:40:20.000Z</time>
      </trkpt>
      <trkpt lat="46.47758" lon="6.26907">
        <ele>811.40002441406</ele>
        <time>2022-03-09T15:40:22.000Z</time>
      </trkpt>
      <trkpt lat="46.47751" lon="6.26925">
        <ele>812.20001220703</ele>
        <time>2022-03-09T15:40:28.000Z</time>
      </trkpt>
      <trkpt lat="46.4775" lon="6.26929">
        <ele>812.40002441406</ele>
        <time>2022-03-09T15:40:29.000Z</time>
      </trkpt>
      <trkpt lat="46.47747" lon="6.26945">
        <ele>813.20001220703</ele>
        <time>2022-03-09T15:40:34.000Z</time>
      </trkpt>
      <trkpt lat="46.47746" lon="6.26947">
        <ele>813.20001220703</ele>
        <time>2022-03-09T15:40:35.000Z</time>
      </trkpt>
      <trkpt lat="46.47742" lon="6.2697">
        <ele>814.40002441406</ele>
        <time>2022-03-09T15:40:42.000Z</time>
      </trkpt>
      <trkpt lat="46.4774" lon="6.26979">
        <ele>814.79998779297</ele>
        <time>2022-03-09T15:40:45.000Z</time>
      </trkpt>
      <trkpt lat="46.4774" lon="6.26986">
        <ele>815</ele>
        <time>2022-03-09T15:40:47.000Z</time>
      </trkpt>
      <trkpt lat="46.47742" lon="6.27008">
        <ele>815.20001220703</ele>
        <time>2022-03-09T15:40:53.000Z</time>
      </trkpt>
      <trkpt lat="46.47741" lon="6.27016">
        <ele>815.59997558594</ele>
        <time>2022-03-09T15:40:56.000Z</time>
      </trkpt>
      <trkpt lat="46.47741" lon="6.27018">
        <ele>816</ele>
        <time>2022-03-09T15:40:59.000Z</time>
      </trkpt>
      <trkpt lat="46.47738" lon="6.27021">
        <ele>816.20001220703</ele>
        <time>2022-03-09T15:41:05.000Z</time>
      </trkpt>
      <trkpt lat="46.47739" lon="6.27021">
        <ele>816</ele>
        <time>2022-03-09T15:41:13.000Z</time>
      </trkpt>
      <trkpt lat="46.47737" lon="6.27016">
        <ele>816</ele>
        <time>2022-03-09T15:41:21.000Z</time>
      </trkpt>
      <trkpt lat="46.47736" lon="6.27016">
        <ele>816.20001220703</ele>
        <time>2022-03-09T15:41:30.000Z</time>
      </trkpt>
      <trkpt lat="46.47737" lon="6.27017">
        <ele>816.20001220703</ele>
        <time>2022-03-09T15:41:38.000Z</time>
      </trkpt>
      <trkpt lat="46.4774" lon="6.27019">
        <ele>816.79998779297</ele>
        <time>2022-03-09T15:41:43.000Z</time>
      </trkpt>
      <trkpt lat="46.4774" lon="6.27019">
        <ele>816.79998779297</ele>
        <time>2022-03-09T15:41:46.000Z</time>
      </trkpt>
      <trkpt lat="46.47735" lon="6.27017">
        <ele>817.20001220703</ele>
        <time>2022-03-09T15:41:56.000Z</time>
      </trkpt>
      <trkpt lat="46.47733" lon="6.27015">
        <ele>817</ele>
        <time>2022-03-09T15:42:00.000Z</time>
      </trkpt>
    </trkseg>
  </trk>
</gpx>